<?xml version='1.0' encoding='UTF-8'?><gpx version="1.1" creator="JPX - https://github.com/jenetics/jpx" xmlns="http://www.topografix.com/GPX/1/1"><trk><trkseg><trkpt lat="45.6343476" lon="11.4151521"><ele>153.0</ele><time>2026-04-26T06:53:38.336Z</time></trkpt><trkpt lat="45.634359" lon="11.4152409"><ele>153.0</ele><time>2026-04-26T06:54:15.793Z</time></trkpt><trkpt lat="45.6343248" lon="11.4153349"><ele>153.0</ele><time>2026-04-26T06:54:18.793Z</time></trkpt><trkpt lat="45.6342705" lon="11.4153812"><ele>153.0</ele><time>2026-04-26T06:54:20.793Z</time></trkpt><trkpt lat="45.6342112" lon="11.4154574"><ele>153.0</ele><time>2026-04-26T06:54:22.793Z</time></trkpt><trkpt lat="45.6342134" lon="11.4155716"><ele>153.0</ele><time>2026-04-26T06:54:23.794Z</time></trkpt><trkpt lat="45.6342054" lon="11.4156681"><ele>153.0</ele><time>2026-04-26T06:54:24.794Z</time></trkpt><trkpt lat="45.6342493" lon="11.4157329"><ele>153.0</ele><time>2026-04-26T06:54:25.793Z</time></trkpt><trkpt lat="45.6342609" lon="11.4158668"><ele>153.0</ele><time>2026-04-26T06:54:27.794Z</time></trkpt><trkpt lat="45.6342616" lon="11.4159807"><ele>153.0</ele><time>2026-04-26T06:54:29.794Z</time></trkpt><trkpt lat="45.6342135" lon="11.4161623"><ele>153.0</ele><time>2026-04-26T06:54:31.793Z</time></trkpt><trkpt lat="45.6342095" lon="11.4162568"><ele>153.0</ele><time>2026-04-26T06:54:32.793Z</time></trkpt><trkpt lat="45.6342244" lon="11.4163973"><ele>151.20000000000002</ele><time>2026-04-26T06:54:33.793Z</time></trkpt><trkpt lat="45.6342221" lon="11.4165662"><ele>149.4</ele><time>2026-04-26T06:54:34.793Z</time></trkpt><trkpt lat="45.6342422" lon="11.416745"><ele>147.60000000000002</ele><time>2026-04-26T06:54:35.793Z</time></trkpt><trkpt lat="45.6342422" lon="11.4168855"><ele>145.8</ele><time>2026-04-26T06:54:36.794Z</time></trkpt><trkpt lat="45.6342268" lon="11.4170066"><ele>144.0</ele><time>2026-04-26T06:54:37.794Z</time></trkpt><trkpt lat="45.6342277" lon="11.4171249"><ele>142.8</ele><time>2026-04-26T06:54:38.793Z</time></trkpt><trkpt lat="45.6342295" lon="11.4172319"><ele>141.60000000000002</ele><time>2026-04-26T06:54:39.793Z</time></trkpt><trkpt lat="45.6342897" lon="11.4173966"><ele>140.4</ele><time>2026-04-26T06:54:41.793Z</time></trkpt><trkpt lat="45.6344081" lon="11.4174578"><ele>139.20000000000002</ele><time>2026-04-26T06:54:42.793Z</time></trkpt><trkpt lat="45.6345076" lon="11.4174187"><ele>138.0</ele><time>2026-04-26T06:54:43.793Z</time></trkpt><trkpt lat="45.6346105" lon="11.4174311"><ele>138.0</ele><time>2026-04-26T06:54:44.794Z</time></trkpt><trkpt lat="45.634703" lon="11.4174378"><ele>138.0</ele><time>2026-04-26T06:54:45.793Z</time></trkpt><trkpt lat="45.6347731" lon="11.4174505"><ele>138.0</ele><time>2026-04-26T06:54:46.794Z</time></trkpt><trkpt lat="45.6348325" lon="11.4175023"><ele>138.0</ele><time>2026-04-26T06:54:47.794Z</time></trkpt><trkpt lat="45.6348833" lon="11.4175598"><ele>138.0</ele><time>2026-04-26T06:54:48.793Z</time></trkpt><trkpt lat="45.6349224" lon="11.4176333"><ele>138.0</ele><time>2026-04-26T06:54:49.793Z</time></trkpt><trkpt lat="45.6348867" lon="11.4177538"><ele>138.0</ele><time>2026-04-26T06:54:52.793Z</time></trkpt><trkpt lat="45.6348543" lon="11.4178344"><ele>138.0</ele><time>2026-04-26T06:54:53.794Z</time></trkpt><trkpt lat="45.6348118" lon="11.417935"><ele>138.0</ele><time>2026-04-26T06:54:54.793Z</time></trkpt><trkpt lat="45.6347647" lon="11.4180305"><ele>138.0</ele><time>2026-04-26T06:54:55.794Z</time></trkpt><trkpt lat="45.6345999" lon="11.4181979"><ele>138.0</ele><time>2026-04-26T06:54:56.793Z</time></trkpt><trkpt lat="45.6345339" lon="11.4183134"><ele>135.5</ele><time>2026-04-26T06:54:57.793Z</time></trkpt><trkpt lat="45.6344889" lon="11.4184994"><ele>133.0</ele><time>2026-04-26T06:54:58.793Z</time></trkpt><trkpt lat="45.6344198" lon="11.4186059"><ele>130.5</ele><time>2026-04-26T06:54:59.794Z</time></trkpt><trkpt lat="45.634351" lon="11.4187513"><ele>128.0</ele><time>2026-04-26T06:55:00.793Z</time></trkpt><trkpt lat="45.6342717" lon="11.4189288"><ele>126.0</ele><time>2026-04-26T06:55:02.794Z</time></trkpt><trkpt lat="45.6342333" lon="11.4190369"><ele>124.0</ele><time>2026-04-26T06:55:04.793Z</time></trkpt><trkpt lat="45.6342168" lon="11.4191901"><ele>122.0</ele><time>2026-04-26T06:55:05.794Z</time></trkpt><trkpt lat="45.6341821" lon="11.419415"><ele>120.0</ele><time>2026-04-26T06:55:06.792Z</time></trkpt><trkpt lat="45.6342082" lon="11.4196334"><ele>118.0</ele><time>2026-04-26T06:55:07.793Z</time></trkpt><trkpt lat="45.6342863" lon="11.4198184"><ele>116.0</ele><time>2026-04-26T06:55:08.794Z</time></trkpt><trkpt lat="45.6343321" lon="11.4200286"><ele>114.0</ele><time>2026-04-26T06:55:09.794Z</time></trkpt><trkpt lat="45.6343668" lon="11.4201944"><ele>112.0</ele><time>2026-04-26T06:55:10.794Z</time></trkpt><trkpt lat="45.634409" lon="11.4203704"><ele>110.0</ele><time>2026-04-26T06:55:11.794Z</time></trkpt><trkpt lat="45.6344405" lon="11.4205276"><ele>108.0</ele><time>2026-04-26T06:55:12.794Z</time></trkpt><trkpt lat="45.6344854" lon="11.420697"><ele>106.0</ele><time>2026-04-26T06:55:13.794Z</time></trkpt><trkpt lat="45.6345181" lon="11.420878"><ele>104.0</ele><time>2026-04-26T06:55:14.793Z</time></trkpt><trkpt lat="45.6345442" lon="11.4210607"><ele>103.75</ele><time>2026-04-26T06:55:15.793Z</time></trkpt><trkpt lat="45.634594" lon="11.4212412"><ele>103.5</ele><time>2026-04-26T06:55:16.794Z</time></trkpt><trkpt lat="45.6346328" lon="11.4214124"><ele>103.25</ele><time>2026-04-26T06:55:17.794Z</time></trkpt><trkpt lat="45.6346791" lon="11.42159"><ele>103.0</ele><time>2026-04-26T06:55:18.793Z</time></trkpt><trkpt lat="45.6347182" lon="11.4217672"><ele>101.5</ele><time>2026-04-26T06:55:19.793Z</time></trkpt><trkpt lat="45.6347509" lon="11.4219365"><ele>100.0</ele><time>2026-04-26T06:55:20.793Z</time></trkpt><trkpt lat="45.6347919" lon="11.4221012"><ele>98.5</ele><time>2026-04-26T06:55:21.793Z</time></trkpt><trkpt lat="45.6348392" lon="11.4222657"><ele>97.0</ele><time>2026-04-26T06:55:22.794Z</time></trkpt><trkpt lat="45.6348824" lon="11.4224313"><ele>96.0</ele><time>2026-04-26T06:55:23.793Z</time></trkpt><trkpt lat="45.6349143" lon="11.4225922"><ele>95.0</ele><time>2026-04-26T06:55:24.793Z</time></trkpt><trkpt lat="45.63495" lon="11.4227543"><ele>94.0</ele><time>2026-04-26T06:55:25.793Z</time></trkpt><trkpt lat="45.6349857" lon="11.4229199"><ele>93.0</ele><time>2026-04-26T06:55:26.793Z</time></trkpt><trkpt lat="45.6350132" lon="11.423033"><ele>92.0</ele><time>2026-04-26T06:55:27.793Z</time></trkpt><trkpt lat="45.6350295" lon="11.4231539"><ele>91.66666666666667</ele><time>2026-04-26T06:55:28.793Z</time></trkpt><trkpt lat="45.6350623" lon="11.4232372"><ele>91.33333333333334</ele><time>2026-04-26T06:55:29.793Z</time></trkpt><trkpt lat="45.6350352" lon="11.4233706"><ele>91.0</ele><time>2026-04-26T06:55:33.793Z</time></trkpt><trkpt lat="45.6349538" lon="11.4234096"><ele>90.66666666666667</ele><time>2026-04-26T06:55:36.792Z</time></trkpt><trkpt lat="45.6348677" lon="11.4234678"><ele>90.33333333333333</ele><time>2026-04-26T06:55:38.794Z</time></trkpt><trkpt lat="45.6348007" lon="11.4234925"><ele>90.0</ele><time>2026-04-26T06:55:39.793Z</time></trkpt><trkpt lat="45.6346938" lon="11.4235562"><ele>90.0</ele><time>2026-04-26T06:55:41.793Z</time></trkpt><trkpt lat="45.6346007" lon="11.4235897"><ele>90.0</ele><time>2026-04-26T06:55:43.794Z</time></trkpt><trkpt lat="45.6344863" lon="11.4236954"><ele>90.0</ele><time>2026-04-26T06:55:45.794Z</time></trkpt><trkpt lat="45.6344188" lon="11.4236999"><ele>90.0</ele><time>2026-04-26T06:55:47.794Z</time></trkpt><trkpt lat="45.6343396" lon="11.4237299"><ele>90.0</ele><time>2026-04-26T06:55:49.793Z</time></trkpt><trkpt lat="45.6342313" lon="11.4237826"><ele>90.0</ele><time>2026-04-26T06:55:51.794Z</time></trkpt><trkpt lat="45.6341691" lon="11.4238001"><ele>90.0</ele><time>2026-04-26T06:55:52.793Z</time></trkpt><trkpt lat="45.6341063" lon="11.4238153"><ele>90.0</ele><time>2026-04-26T06:55:53.794Z</time></trkpt><trkpt lat="45.63404" lon="11.4238332"><ele>90.0</ele><time>2026-04-26T06:55:54.794Z</time></trkpt><trkpt lat="45.6339703" lon="11.4238571"><ele>90.0</ele><time>2026-04-26T06:55:55.793Z</time></trkpt><trkpt lat="45.6339024" lon="11.4238942"><ele>90.0</ele><time>2026-04-26T06:55:56.793Z</time></trkpt><trkpt lat="45.6338379" lon="11.4239371"><ele>90.0</ele><time>2026-04-26T06:55:57.793Z</time></trkpt><trkpt lat="45.6337759" lon="11.4239817"><ele>90.0</ele><time>2026-04-26T06:55:58.794Z</time></trkpt><trkpt lat="45.6336889" lon="11.4240762"><ele>90.0</ele><time>2026-04-26T06:55:59.793Z</time></trkpt><trkpt lat="45.6336112" lon="11.4241291"><ele>90.0</ele><time>2026-04-26T06:56:00.794Z</time></trkpt><trkpt lat="45.6335493" lon="11.4241635"><ele>90.0</ele><time>2026-04-26T06:56:01.793Z</time></trkpt><trkpt lat="45.6334917" lon="11.4242168"><ele>90.0</ele><time>2026-04-26T06:56:02.793Z</time></trkpt><trkpt lat="45.6334445" lon="11.4243085"><ele>90.0</ele><time>2026-04-26T06:56:06.793Z</time></trkpt><trkpt lat="45.6333692" lon="11.4243661"><ele>90.0</ele><time>2026-04-26T06:56:07.793Z</time></trkpt><trkpt lat="45.6332776" lon="11.4244294"><ele>90.0</ele><time>2026-04-26T06:56:08.794Z</time></trkpt><trkpt lat="45.6332121" lon="11.424441"><ele>90.0</ele><time>2026-04-26T06:56:09.794Z</time></trkpt><trkpt lat="45.6331359" lon="11.4244837"><ele>90.0</ele><time>2026-04-26T06:56:11.794Z</time></trkpt><trkpt lat="45.6330404" lon="11.4244158"><ele>90.0</ele><time>2026-04-26T06:56:14.793Z</time></trkpt><trkpt lat="45.6329558" lon="11.4244542"><ele>90.0</ele><time>2026-04-26T06:56:16.793Z</time></trkpt><trkpt lat="45.632854" lon="11.4245236"><ele>90.0</ele><time>2026-04-26T06:56:18.792Z</time></trkpt><trkpt lat="45.6327851" lon="11.4245606"><ele>90.0</ele><time>2026-04-26T06:56:19.793Z</time></trkpt><trkpt lat="45.6327072" lon="11.4245943"><ele>90.0</ele><time>2026-04-26T06:56:20.794Z</time></trkpt><trkpt lat="45.6326263" lon="11.4246698"><ele>90.0</ele><time>2026-04-26T06:56:22.793Z</time></trkpt><trkpt lat="45.6325291" lon="11.4247244"><ele>90.0</ele><time>2026-04-26T06:56:24.793Z</time></trkpt><trkpt lat="45.6324687" lon="11.4247622"><ele>90.0</ele><time>2026-04-26T06:56:26.793Z</time></trkpt><trkpt lat="45.6323964" lon="11.424797"><ele>90.0</ele><time>2026-04-26T06:56:28.793Z</time></trkpt><trkpt lat="45.6323538" lon="11.4248868"><ele>90.0</ele><time>2026-04-26T06:56:30.793Z</time></trkpt><trkpt lat="45.63224" lon="11.4249553"><ele>90.0</ele><time>2026-04-26T06:56:32.794Z</time></trkpt><trkpt lat="45.6321577" lon="11.4250126"><ele>90.0</ele><time>2026-04-26T06:56:34.794Z</time></trkpt><trkpt lat="45.632051" lon="11.4250316"><ele>90.0</ele><time>2026-04-26T06:56:36.794Z</time></trkpt><trkpt lat="45.6319112" lon="11.4250676"><ele>89.2</ele><time>2026-04-26T06:56:38.793Z</time></trkpt><trkpt lat="45.631769" lon="11.4251198"><ele>88.4</ele><time>2026-04-26T06:56:40.793Z</time></trkpt><trkpt lat="45.6316838" lon="11.4251406"><ele>87.6</ele><time>2026-04-26T06:56:41.793Z</time></trkpt><trkpt lat="45.631612" lon="11.4251324"><ele>86.8</ele><time>2026-04-26T06:56:42.794Z</time></trkpt><trkpt lat="45.6314958" lon="11.4252362"><ele>86.0</ele><time>2026-04-26T06:56:44.794Z</time></trkpt><trkpt lat="45.6314104" lon="11.425308"><ele>86.0</ele><time>2026-04-26T06:56:45.793Z</time></trkpt><trkpt lat="45.6313494" lon="11.4253508"><ele>86.0</ele><time>2026-04-26T06:56:46.794Z</time></trkpt><trkpt lat="45.6312931" lon="11.4254732"><ele>86.0</ele><time>2026-04-26T06:56:48.794Z</time></trkpt><trkpt lat="45.6312691" lon="11.4253313"><ele>86.0</ele><time>2026-04-26T06:56:53.793Z</time></trkpt><trkpt lat="45.6312409" lon="11.4251911"><ele>86.0</ele><time>2026-04-26T06:56:55.793Z</time></trkpt><trkpt lat="45.631209" lon="11.4250435"><ele>86.0</ele><time>2026-04-26T06:56:57.794Z</time></trkpt><trkpt lat="45.631171" lon="11.424908"><ele>86.0</ele><time>2026-04-26T06:56:59.793Z</time></trkpt><trkpt lat="45.6311335" lon="11.4247614"><ele>86.0</ele><time>2026-04-26T06:57:01.794Z</time></trkpt><trkpt lat="45.6310807" lon="11.4246504"><ele>86.0</ele><time>2026-04-26T06:57:03.792Z</time></trkpt><trkpt lat="45.6309728" lon="11.4246397"><ele>86.0</ele><time>2026-04-26T06:57:05.793Z</time></trkpt><trkpt lat="45.630909" lon="11.4246657"><ele>86.0</ele><time>2026-04-26T06:57:06.794Z</time></trkpt><trkpt lat="45.6308475" lon="11.4246971"><ele>86.0</ele><time>2026-04-26T06:57:07.794Z</time></trkpt><trkpt lat="45.6307368" lon="11.4247553"><ele>86.0</ele><time>2026-04-26T06:57:09.793Z</time></trkpt><trkpt lat="45.6306229" lon="11.4248011"><ele>86.0</ele><time>2026-04-26T06:57:11.794Z</time></trkpt><trkpt lat="45.6305085" lon="11.4248163"><ele>86.0</ele><time>2026-04-26T06:57:13.794Z</time></trkpt><trkpt lat="45.6303975" lon="11.4248175"><ele>85.8</ele><time>2026-04-26T06:57:15.793Z</time></trkpt><trkpt lat="45.630292" lon="11.4248662"><ele>85.6</ele><time>2026-04-26T06:57:17.792Z</time></trkpt><trkpt lat="45.6302012" lon="11.4249357"><ele>85.4</ele><time>2026-04-26T06:57:19.794Z</time></trkpt><trkpt lat="45.6301062" lon="11.4250029"><ele>85.2</ele><time>2026-04-26T06:57:21.794Z</time></trkpt><trkpt lat="45.6300121" lon="11.4250551"><ele>85.0</ele><time>2026-04-26T06:57:23.794Z</time></trkpt><trkpt lat="45.6299494" lon="11.4250828"><ele>85.0</ele><time>2026-04-26T06:57:24.794Z</time></trkpt><trkpt lat="45.6298021" lon="11.425132"><ele>85.0</ele><time>2026-04-26T06:57:25.794Z</time></trkpt><trkpt lat="45.629661" lon="11.4251761"><ele>85.0</ele><time>2026-04-26T06:57:26.793Z</time></trkpt><trkpt lat="45.6295937" lon="11.4251935"><ele>85.0</ele><time>2026-04-26T06:57:27.793Z</time></trkpt><trkpt lat="45.6295273" lon="11.4252265"><ele>85.0</ele><time>2026-04-26T06:57:28.793Z</time></trkpt><trkpt lat="45.6294547" lon="11.4252439"><ele>84.57142857142857</ele><time>2026-04-26T06:57:29.794Z</time></trkpt><trkpt lat="45.6293941" lon="11.4252951"><ele>84.14285714285714</ele><time>2026-04-26T06:57:30.793Z</time></trkpt><trkpt lat="45.6293255" lon="11.4253172"><ele>83.71428571428571</ele><time>2026-04-26T06:57:31.793Z</time></trkpt><trkpt lat="45.6292499" lon="11.4253821"><ele>83.28571428571428</ele><time>2026-04-26T06:57:32.794Z</time></trkpt><trkpt lat="45.6291771" lon="11.4254278"><ele>82.85714285714286</ele><time>2026-04-26T06:57:33.793Z</time></trkpt><trkpt lat="45.6291174" lon="11.4254802"><ele>82.42857142857142</ele><time>2026-04-26T06:57:34.792Z</time></trkpt><trkpt lat="45.6290592" lon="11.425518"><ele>82.0</ele><time>2026-04-26T06:57:35.794Z</time></trkpt><trkpt lat="45.6289889" lon="11.4255372"><ele>81.8</ele><time>2026-04-26T06:57:36.794Z</time></trkpt><trkpt lat="45.6289268" lon="11.4255808"><ele>81.6</ele><time>2026-04-26T06:57:37.793Z</time></trkpt><trkpt lat="45.628803" lon="11.4256552"><ele>81.39999999999999</ele><time>2026-04-26T06:57:39.793Z</time></trkpt><trkpt lat="45.6287413" lon="11.4256956"><ele>81.19999999999999</ele><time>2026-04-26T06:57:40.793Z</time></trkpt><trkpt lat="45.6286217" lon="11.4257563"><ele>81.0</ele><time>2026-04-26T06:57:42.794Z</time></trkpt><trkpt lat="45.6285666" lon="11.4258121"><ele>81.0</ele><time>2026-04-26T06:57:43.793Z</time></trkpt><trkpt lat="45.6285055" lon="11.4258523"><ele>81.0</ele><time>2026-04-26T06:57:44.793Z</time></trkpt><trkpt lat="45.6284071" lon="11.4258942"><ele>81.0</ele><time>2026-04-26T06:57:46.793Z</time></trkpt><trkpt lat="45.6283416" lon="11.4258293"><ele>81.0</ele><time>2026-04-26T06:57:48.793Z</time></trkpt><trkpt lat="45.6283216" lon="11.4257006"><ele>81.0</ele><time>2026-04-26T06:57:50.794Z</time></trkpt><trkpt lat="45.6282926" lon="11.4255611"><ele>81.0</ele><time>2026-04-26T06:57:52.793Z</time></trkpt><trkpt lat="45.6282764" lon="11.4254713"><ele>81.0</ele><time>2026-04-26T06:57:53.793Z</time></trkpt><trkpt lat="45.6282318" lon="11.4253294"><ele>81.0</ele><time>2026-04-26T06:57:55.793Z</time></trkpt><trkpt lat="45.6282034" lon="11.4251923"><ele>81.0</ele><time>2026-04-26T06:57:57.793Z</time></trkpt><trkpt lat="45.628174" lon="11.4250314"><ele>81.0</ele><time>2026-04-26T06:57:59.793Z</time></trkpt><trkpt lat="45.6281581" lon="11.4249203"><ele>81.0</ele><time>2026-04-26T06:58:00.793Z</time></trkpt><trkpt lat="45.6281554" lon="11.4247842"><ele>81.0</ele><time>2026-04-26T06:58:02.793Z</time></trkpt><trkpt lat="45.6281113" lon="11.4246136"><ele>81.0</ele><time>2026-04-26T06:58:04.793Z</time></trkpt><trkpt lat="45.6281493" lon="11.4244702"><ele>81.0</ele><time>2026-04-26T06:58:06.794Z</time></trkpt><trkpt lat="45.6281394" lon="11.4243197"><ele>81.0</ele><time>2026-04-26T06:58:08.794Z</time></trkpt><trkpt lat="45.6281543" lon="11.4241647"><ele>81.0</ele><time>2026-04-26T06:58:10.793Z</time></trkpt><trkpt lat="45.62815" lon="11.4240228"><ele>81.0</ele><time>2026-04-26T06:58:12.793Z</time></trkpt><trkpt lat="45.6281321" lon="11.4238892"><ele>81.0</ele><time>2026-04-26T06:58:14.793Z</time></trkpt><trkpt lat="45.6280648" lon="11.4237508"><ele>81.0</ele><time>2026-04-26T06:58:16.794Z</time></trkpt><trkpt lat="45.6279799" lon="11.423642"><ele>81.0</ele><time>2026-04-26T06:58:18.793Z</time></trkpt><trkpt lat="45.6279065" lon="11.4235394"><ele>81.0</ele><time>2026-04-26T06:58:20.793Z</time></trkpt><trkpt lat="45.6278541" lon="11.4234382"><ele>81.0</ele><time>2026-04-26T06:58:22.794Z</time></trkpt><trkpt lat="45.6278022" lon="11.4233314"><ele>81.0</ele><time>2026-04-26T06:58:24.794Z</time></trkpt><trkpt lat="45.6277399" lon="11.4232286"><ele>81.0</ele><time>2026-04-26T06:58:26.793Z</time></trkpt><trkpt lat="45.6276732" lon="11.4231252"><ele>81.0</ele><time>2026-04-26T06:58:28.793Z</time></trkpt><trkpt lat="45.6275988" lon="11.4230308"><ele>81.0</ele><time>2026-04-26T06:58:30.793Z</time></trkpt><trkpt lat="45.6274816" lon="11.4229425"><ele>81.0</ele><time>2026-04-26T06:58:32.793Z</time></trkpt><trkpt lat="45.6274165" lon="11.4228967"><ele>81.0</ele><time>2026-04-26T06:58:33.793Z</time></trkpt><trkpt lat="45.6273562" lon="11.4228475"><ele>81.0</ele><time>2026-04-26T06:58:34.793Z</time></trkpt><trkpt lat="45.6272634" lon="11.4227368"><ele>81.0</ele><time>2026-04-26T06:58:36.793Z</time></trkpt><trkpt lat="45.6271824" lon="11.4226328"><ele>81.0</ele><time>2026-04-26T06:58:38.794Z</time></trkpt><trkpt lat="45.6271025" lon="11.4225303"><ele>81.0</ele><time>2026-04-26T06:58:40.793Z</time></trkpt><trkpt lat="45.6270451" lon="11.422419"><ele>81.0</ele><time>2026-04-26T06:58:42.793Z</time></trkpt><trkpt lat="45.6270023" lon="11.4223068"><ele>81.0</ele><time>2026-04-26T06:58:44.793Z</time></trkpt><trkpt lat="45.6269544" lon="11.4222138"><ele>81.0</ele><time>2026-04-26T06:58:46.793Z</time></trkpt><trkpt lat="45.6268794" lon="11.4221232"><ele>81.85714285714286</ele><time>2026-04-26T06:58:49.793Z</time></trkpt><trkpt lat="45.6268187" lon="11.4220524"><ele>82.71428571428571</ele><time>2026-04-26T06:58:52.793Z</time></trkpt><trkpt lat="45.6267595" lon="11.4219902"><ele>83.57142857142857</ele><time>2026-04-26T06:58:55.793Z</time></trkpt><trkpt lat="45.6267083" lon="11.4219249"><ele>84.42857142857143</ele><time>2026-04-26T06:58:58.794Z</time></trkpt><trkpt lat="45.6266599" lon="11.4218656"><ele>85.28571428571429</ele><time>2026-04-26T06:59:01.793Z</time></trkpt><trkpt lat="45.6266064" lon="11.4218017"><ele>86.14285714285714</ele><time>2026-04-26T06:59:04.793Z</time></trkpt><trkpt lat="45.6265407" lon="11.4217337"><ele>87.0</ele><time>2026-04-26T06:59:07.793Z</time></trkpt><trkpt lat="45.6264889" lon="11.4216821"><ele>87.0</ele><time>2026-04-26T06:59:10.793Z</time></trkpt><trkpt lat="45.6264307" lon="11.4216079"><ele>87.0</ele><time>2026-04-26T06:59:14.793Z</time></trkpt><trkpt lat="45.6263793" lon="11.4215426"><ele>87.0</ele><time>2026-04-26T06:59:17.794Z</time></trkpt><trkpt lat="45.626323" lon="11.4214526"><ele>87.0</ele><time>2026-04-26T06:59:21.793Z</time></trkpt><trkpt lat="45.6262737" lon="11.4213717"><ele>87.0</ele><time>2026-04-26T06:59:25.793Z</time></trkpt><trkpt lat="45.6262191" lon="11.4213144"><ele>87.0</ele><time>2026-04-26T06:59:29.793Z</time></trkpt><trkpt lat="45.6261815" lon="11.4212261"><ele>87.0</ele><time>2026-04-26T06:59:34.793Z</time></trkpt><trkpt lat="45.6261622" lon="11.4211388"><ele>87.57142857142857</ele><time>2026-04-26T06:59:38.794Z</time></trkpt><trkpt lat="45.6261483" lon="11.4210479"><ele>88.14285714285714</ele><time>2026-04-26T06:59:41.793Z</time></trkpt><trkpt lat="45.6261274" lon="11.4209462"><ele>88.71428571428572</ele><time>2026-04-26T06:59:44.793Z</time></trkpt><trkpt lat="45.6261054" lon="11.4208447"><ele>89.28571428571428</ele><time>2026-04-26T06:59:48.793Z</time></trkpt><trkpt lat="45.62609" lon="11.4207489"><ele>89.85714285714286</ele><time>2026-04-26T06:59:51.793Z</time></trkpt><trkpt lat="45.6260768" lon="11.4206448"><ele>90.42857142857143</ele><time>2026-04-26T06:59:55.793Z</time></trkpt><trkpt lat="45.6260741" lon="11.4205394"><ele>91.0</ele><time>2026-04-26T06:59:59.793Z</time></trkpt><trkpt lat="45.6260779" lon="11.4204327"><ele>92.42857142857143</ele><time>2026-04-26T07:00:03.794Z</time></trkpt><trkpt lat="45.6260795" lon="11.4203317"><ele>93.85714285714286</ele><time>2026-04-26T07:00:06.793Z</time></trkpt><trkpt lat="45.6261" lon="11.420241"><ele>95.28571428571428</ele><time>2026-04-26T07:00:09.793Z</time></trkpt><trkpt lat="45.6261069" lon="11.4201443"><ele>96.71428571428572</ele><time>2026-04-26T07:00:12.794Z</time></trkpt><trkpt lat="45.6260856" lon="11.4200268"><ele>98.14285714285714</ele><time>2026-04-26T07:00:15.793Z</time></trkpt><trkpt lat="45.6260535" lon="11.4199325"><ele>99.57142857142857</ele><time>2026-04-26T07:00:18.793Z</time></trkpt><trkpt lat="45.6260208" lon="11.4198354"><ele>101.0</ele><time>2026-04-26T07:00:21.794Z</time></trkpt><trkpt lat="45.625989" lon="11.4197227"><ele>101.16666666666666</ele><time>2026-04-26T07:00:24.794Z</time></trkpt><trkpt lat="45.6259571" lon="11.4196141"><ele>101.33333333333333</ele><time>2026-04-26T07:00:27.793Z</time></trkpt><trkpt lat="45.6259197" lon="11.4195274"><ele>101.5</ele><time>2026-04-26T07:00:30.793Z</time></trkpt><trkpt lat="45.6258804" lon="11.419425"><ele>101.66666666666666</ele><time>2026-04-26T07:00:34.793Z</time></trkpt><trkpt lat="45.6258431" lon="11.4193436"><ele>101.83333333333333</ele><time>2026-04-26T07:00:37.793Z</time></trkpt><trkpt lat="45.6257942" lon="11.4192469"><ele>102.0</ele><time>2026-04-26T07:00:41.794Z</time></trkpt><trkpt lat="45.6257412" lon="11.4191843"><ele>102.0</ele><time>2026-04-26T07:00:44.793Z</time></trkpt><trkpt lat="45.6256854" lon="11.4191283"><ele>102.0</ele><time>2026-04-26T07:00:47.794Z</time></trkpt><trkpt lat="45.6256183" lon="11.4190557"><ele>102.0</ele><time>2026-04-26T07:00:51.793Z</time></trkpt><trkpt lat="45.6255509" lon="11.4190116"><ele>102.0</ele><time>2026-04-26T07:00:54.793Z</time></trkpt><trkpt lat="45.6254846" lon="11.4189807"><ele>102.0</ele><time>2026-04-26T07:00:57.793Z</time></trkpt><trkpt lat="45.6254295" lon="11.4189349"><ele>102.0</ele><time>2026-04-26T07:01:00.794Z</time></trkpt><trkpt lat="45.6253745" lon="11.4188816"><ele>102.0</ele><time>2026-04-26T07:01:03.794Z</time></trkpt><trkpt lat="45.6253125" lon="11.4188435"><ele>103.33333333333333</ele><time>2026-04-26T07:01:06.794Z</time></trkpt><trkpt lat="45.6252378" lon="11.4188001"><ele>104.66666666666666</ele><time>2026-04-26T07:01:09.793Z</time></trkpt><trkpt lat="45.6251643" lon="11.4187534"><ele>106.0</ele><time>2026-04-26T07:01:12.793Z</time></trkpt><trkpt lat="45.6250882" lon="11.41871"><ele>107.33333333333333</ele><time>2026-04-26T07:01:15.794Z</time></trkpt><trkpt lat="45.6250247" lon="11.418653"><ele>108.66666666666666</ele><time>2026-04-26T07:01:18.793Z</time></trkpt><trkpt lat="45.624984" lon="11.4185725"><ele>110.0</ele><time>2026-04-26T07:01:21.793Z</time></trkpt><trkpt lat="45.6249401" lon="11.4184965"><ele>109.99999999999999</ele><time>2026-04-26T07:01:24.793Z</time></trkpt><trkpt lat="45.6249081" lon="11.4184081"><ele>110.0</ele><time>2026-04-26T07:01:27.794Z</time></trkpt><trkpt lat="45.6248799" lon="11.418314"><ele>110.0</ele><time>2026-04-26T07:01:30.793Z</time></trkpt><trkpt lat="45.624854" lon="11.4182165"><ele>110.0</ele><time>2026-04-26T07:01:33.794Z</time></trkpt><trkpt lat="45.6248436" lon="11.418117"><ele>110.0</ele><time>2026-04-26T07:01:36.794Z</time></trkpt><trkpt lat="45.6248357" lon="11.4180203"><ele>109.99999999999999</ele><time>2026-04-26T07:01:39.794Z</time></trkpt><trkpt lat="45.6248447" lon="11.4179209"><ele>110.0</ele><time>2026-04-26T07:01:42.794Z</time></trkpt><trkpt lat="45.624848" lon="11.4178279"><ele>110.42857142857142</ele><time>2026-04-26T07:01:45.793Z</time></trkpt><trkpt lat="45.6248503" lon="11.4177338"><ele>110.85714285714286</ele><time>2026-04-26T07:01:48.793Z</time></trkpt><trkpt lat="45.6248643" lon="11.4176171"><ele>111.28571428571428</ele><time>2026-04-26T07:01:52.794Z</time></trkpt><trkpt lat="45.6248854" lon="11.4175221"><ele>111.71428571428571</ele><time>2026-04-26T07:01:56.794Z</time></trkpt><trkpt lat="45.6248859" lon="11.4174043"><ele>112.14285714285714</ele><time>2026-04-26T07:02:00.794Z</time></trkpt><trkpt lat="45.6248804" lon="11.417299"><ele>112.57142857142857</ele><time>2026-04-26T07:02:03.793Z</time></trkpt><trkpt lat="45.6248686" lon="11.4171967"><ele>113.0</ele><time>2026-04-26T07:02:06.794Z</time></trkpt><trkpt lat="45.6248563" lon="11.4171021"><ele>113.49999999999999</ele><time>2026-04-26T07:02:09.794Z</time></trkpt><trkpt lat="45.6248413" lon="11.4169937"><ele>114.0</ele><time>2026-04-26T07:02:13.793Z</time></trkpt><trkpt lat="45.6248189" lon="11.416887"><ele>114.5</ele><time>2026-04-26T07:02:17.793Z</time></trkpt><trkpt lat="45.6248019" lon="11.4167721"><ele>115.0</ele><time>2026-04-26T07:02:21.793Z</time></trkpt><trkpt lat="45.6247954" lon="11.41668"><ele>115.49999999999999</ele><time>2026-04-26T07:02:24.794Z</time></trkpt><trkpt lat="45.6247863" lon="11.4165703"><ele>116.0</ele><time>2026-04-26T07:02:28.793Z</time></trkpt><trkpt lat="45.6247707" lon="11.416455"><ele>115.99999999999999</ele><time>2026-04-26T07:02:32.793Z</time></trkpt><trkpt lat="45.6247354" lon="11.4163721"><ele>116.0</ele><time>2026-04-26T07:02:35.794Z</time></trkpt><trkpt lat="45.6247053" lon="11.4162696"><ele>116.0</ele><time>2026-04-26T07:02:39.794Z</time></trkpt><trkpt lat="45.6246808" lon="11.4161667"><ele>116.0</ele><time>2026-04-26T07:02:43.794Z</time></trkpt><trkpt lat="45.624656" lon="11.416068"><ele>115.99999999999999</ele><time>2026-04-26T07:02:47.794Z</time></trkpt><trkpt lat="45.6246232" lon="11.4159664"><ele>116.0</ele><time>2026-04-26T07:02:51.794Z</time></trkpt><trkpt lat="45.6245841" lon="11.4158712"><ele>115.83333333333333</ele><time>2026-04-26T07:02:55.794Z</time></trkpt><trkpt lat="45.6245507" lon="11.4157806"><ele>115.66666666666666</ele><time>2026-04-26T07:02:59.793Z</time></trkpt><trkpt lat="45.6245136" lon="11.4156861"><ele>115.5</ele><time>2026-04-26T07:03:03.793Z</time></trkpt><trkpt lat="45.6244682" lon="11.4155988"><ele>115.33333333333334</ele><time>2026-04-26T07:03:07.793Z</time></trkpt><trkpt lat="45.6244223" lon="11.4155065"><ele>115.16666666666667</ele><time>2026-04-26T07:03:11.793Z</time></trkpt><trkpt lat="45.624376" lon="11.4154097"><ele>115.0</ele><time>2026-04-26T07:03:15.794Z</time></trkpt><trkpt lat="45.6243319" lon="11.4153122"><ele>117.66666666666667</ele><time>2026-04-26T07:03:19.794Z</time></trkpt><trkpt lat="45.6242838" lon="11.4152177"><ele>120.33333333333334</ele><time>2026-04-26T07:03:23.794Z</time></trkpt><trkpt lat="45.6242462" lon="11.4151196"><ele>123.0</ele><time>2026-04-26T07:03:27.793Z</time></trkpt><trkpt lat="45.6242154" lon="11.4150164"><ele>125.66666666666666</ele><time>2026-04-26T07:03:31.793Z</time></trkpt><trkpt lat="45.6241952" lon="11.4149132"><ele>128.33333333333331</ele><time>2026-04-26T07:03:35.793Z</time></trkpt><trkpt lat="45.6241796" lon="11.4148163"><ele>131.0</ele><time>2026-04-26T07:03:39.793Z</time></trkpt><trkpt lat="45.6241555" lon="11.4147155"><ele>131.0</ele><time>2026-04-26T07:03:43.792Z</time></trkpt><trkpt lat="45.6241347" lon="11.4146294"><ele>131.0</ele><time>2026-04-26T07:03:48.793Z</time></trkpt><trkpt lat="45.6241141" lon="11.4145339"><ele>131.0</ele><time>2026-04-26T07:03:53.794Z</time></trkpt><trkpt lat="45.6240912" lon="11.4144388"><ele>131.0</ele><time>2026-04-26T07:03:57.794Z</time></trkpt><trkpt lat="45.6240642" lon="11.4143246"><ele>131.0</ele><time>2026-04-26T07:04:01.793Z</time></trkpt><trkpt lat="45.6240371" lon="11.4142362"><ele>131.0</ele><time>2026-04-26T07:04:04.793Z</time></trkpt><trkpt lat="45.6240081" lon="11.4141543"><ele>131.0</ele><time>2026-04-26T07:04:07.793Z</time></trkpt><trkpt lat="45.6239957" lon="11.4140369"><ele>131.0</ele><time>2026-04-26T07:04:11.793Z</time></trkpt><trkpt lat="45.6239834" lon="11.4139206"><ele>131.0</ele><time>2026-04-26T07:04:15.794Z</time></trkpt><trkpt lat="45.6239732" lon="11.41382"><ele>131.0</ele><time>2026-04-26T07:04:19.794Z</time></trkpt><trkpt lat="45.6239729" lon="11.4137245"><ele>131.0</ele><time>2026-04-26T07:04:23.794Z</time></trkpt><trkpt lat="45.6239779" lon="11.4136269"><ele>131.0</ele><time>2026-04-26T07:04:27.793Z</time></trkpt><trkpt lat="45.6239848" lon="11.4135298"><ele>131.0</ele><time>2026-04-26T07:04:31.793Z</time></trkpt><trkpt lat="45.6239893" lon="11.4134212"><ele>131.0</ele><time>2026-04-26T07:04:35.793Z</time></trkpt><trkpt lat="45.6239944" lon="11.4133023"><ele>131.71428571428572</ele><time>2026-04-26T07:04:39.793Z</time></trkpt><trkpt lat="45.6239887" lon="11.4132098"><ele>132.42857142857144</ele><time>2026-04-26T07:04:42.794Z</time></trkpt><trkpt lat="45.6239871" lon="11.4131182"><ele>133.14285714285714</ele><time>2026-04-26T07:04:45.793Z</time></trkpt><trkpt lat="45.6239898" lon="11.4130271"><ele>133.85714285714286</ele><time>2026-04-26T07:04:48.793Z</time></trkpt><trkpt lat="45.6239775" lon="11.4129163"><ele>134.57142857142856</ele><time>2026-04-26T07:04:52.794Z</time></trkpt><trkpt lat="45.6239595" lon="11.4128227"><ele>135.28571428571428</ele><time>2026-04-26T07:04:55.794Z</time></trkpt><trkpt lat="45.6239438" lon="11.4127354"><ele>136.0</ele><time>2026-04-26T07:04:58.794Z</time></trkpt><trkpt lat="45.6239195" lon="11.412632"><ele>136.14285714285714</ele><time>2026-04-26T07:05:02.793Z</time></trkpt><trkpt lat="45.6239062" lon="11.4125269"><ele>136.28571428571428</ele><time>2026-04-26T07:05:06.793Z</time></trkpt><trkpt lat="45.6238771" lon="11.4124252"><ele>136.42857142857144</ele><time>2026-04-26T07:05:10.793Z</time></trkpt><trkpt lat="45.6238505" lon="11.41234"><ele>136.57142857142856</ele><time>2026-04-26T07:05:13.794Z</time></trkpt><trkpt lat="45.6238288" lon="11.412255"><ele>136.71428571428572</ele><time>2026-04-26T07:05:16.793Z</time></trkpt><trkpt lat="45.6238031" lon="11.4121434"><ele>136.85714285714286</ele><time>2026-04-26T07:05:20.794Z</time></trkpt><trkpt lat="45.6237851" lon="11.412028"><ele>137.0</ele><time>2026-04-26T07:05:24.793Z</time></trkpt><trkpt lat="45.623767" lon="11.4119389"><ele>137.00000000000003</ele><time>2026-04-26T07:05:27.793Z</time></trkpt><trkpt lat="45.6237371" lon="11.4118335"><ele>137.0</ele><time>2026-04-26T07:05:31.793Z</time></trkpt><trkpt lat="45.6236968" lon="11.4117397"><ele>137.0</ele><time>2026-04-26T07:05:35.793Z</time></trkpt><trkpt lat="45.6236589" lon="11.4116464"><ele>137.0</ele><time>2026-04-26T07:05:39.793Z</time></trkpt><trkpt lat="45.6236164" lon="11.4115789"><ele>137.0</ele><time>2026-04-26T07:05:42.793Z</time></trkpt><trkpt lat="45.623555" lon="11.4115475"><ele>137.00000000000003</ele><time>2026-04-26T07:05:45.793Z</time></trkpt><trkpt lat="45.6234837" lon="11.4115589"><ele>137.0</ele><time>2026-04-26T07:05:48.793Z</time></trkpt><trkpt lat="45.623411" lon="11.4115935"><ele>140.33333333333331</ele><time>2026-04-26T07:05:52.794Z</time></trkpt><trkpt lat="45.6233571" lon="11.411649"><ele>143.66666666666666</ele><time>2026-04-26T07:05:57.793Z</time></trkpt><trkpt lat="45.6232942" lon="11.4116241"><ele>147.0</ele><time>2026-04-26T07:06:04.793Z</time></trkpt><trkpt lat="45.6232031" lon="11.4115568"><ele>150.33333333333334</ele><time>2026-04-26T07:06:11.793Z</time></trkpt><trkpt lat="45.6231294" lon="11.411542"><ele>153.66666666666669</ele><time>2026-04-26T07:06:12.794Z</time></trkpt><trkpt lat="45.6230501" lon="11.411532"><ele>157.0</ele><time>2026-04-26T07:06:13.793Z</time></trkpt><trkpt lat="45.6228534" lon="11.4115154"><ele>156.66666666666669</ele><time>2026-04-26T07:06:14.793Z</time></trkpt><trkpt lat="45.6227183" lon="11.4115044"><ele>156.33333333333334</ele><time>2026-04-26T07:06:15.794Z</time></trkpt><trkpt lat="45.6226521" lon="11.4115598"><ele>156.0</ele><time>2026-04-26T07:06:16.793Z</time></trkpt><trkpt lat="45.6225919" lon="11.4115993"><ele>155.66666666666666</ele><time>2026-04-26T07:06:18.793Z</time></trkpt><trkpt lat="45.6225453" lon="11.4116803"><ele>155.33333333333331</ele><time>2026-04-26T07:06:21.794Z</time></trkpt><trkpt lat="45.6224965" lon="11.4117693"><ele>155.0</ele><time>2026-04-26T07:06:25.793Z</time></trkpt><trkpt lat="45.6224656" lon="11.4118533"><ele>155.0</ele><time>2026-04-26T07:06:29.792Z</time></trkpt><trkpt lat="45.6224128" lon="11.4119387"><ele>155.0</ele><time>2026-04-26T07:06:34.794Z</time></trkpt><trkpt lat="45.6223863" lon="11.4120474"><ele>155.0</ele><time>2026-04-26T07:06:38.794Z</time></trkpt><trkpt lat="45.6223696" lon="11.412165"><ele>155.0</ele><time>2026-04-26T07:06:42.793Z</time></trkpt><trkpt lat="45.6223639" lon="11.4122638"><ele>155.0</ele><time>2026-04-26T07:06:45.793Z</time></trkpt><trkpt lat="45.6223639" lon="11.4123859"><ele>155.0</ele><time>2026-04-26T07:06:48.794Z</time></trkpt><trkpt lat="45.6223388" lon="11.4124705"><ele>155.66666666666666</ele><time>2026-04-26T07:06:51.794Z</time></trkpt><trkpt lat="45.6223269" lon="11.4125813"><ele>156.33333333333331</ele><time>2026-04-26T07:06:54.794Z</time></trkpt><trkpt lat="45.6223357" lon="11.4126965"><ele>157.0</ele><time>2026-04-26T07:06:57.794Z</time></trkpt><trkpt lat="45.6223383" lon="11.41281"><ele>157.66666666666666</ele><time>2026-04-26T07:07:00.793Z</time></trkpt><trkpt lat="45.6223343" lon="11.412909"><ele>158.33333333333334</ele><time>2026-04-26T07:07:03.793Z</time></trkpt><trkpt lat="45.6222901" lon="11.4129939"><ele>159.0</ele><time>2026-04-26T07:07:07.794Z</time></trkpt><trkpt lat="45.6222367" lon="11.4130579"><ele>159.85714285714286</ele><time>2026-04-26T07:07:11.794Z</time></trkpt><trkpt lat="45.6222029" lon="11.4131508"><ele>160.71428571428572</ele><time>2026-04-26T07:07:14.794Z</time></trkpt><trkpt lat="45.6221748" lon="11.4132639"><ele>161.57142857142858</ele><time>2026-04-26T07:07:17.792Z</time></trkpt><trkpt lat="45.6221465" lon="11.4133541"><ele>162.42857142857144</ele><time>2026-04-26T07:07:20.793Z</time></trkpt><trkpt lat="45.6221188" lon="11.4134378"><ele>163.28571428571428</ele><time>2026-04-26T07:07:23.793Z</time></trkpt><trkpt lat="45.6220763" lon="11.4135325"><ele>164.14285714285717</ele><time>2026-04-26T07:07:27.793Z</time></trkpt><trkpt lat="45.6220455" lon="11.4136296"><ele>165.0</ele><time>2026-04-26T07:07:31.794Z</time></trkpt><trkpt lat="45.6219969" lon="11.4137236"><ele>165.2857142857143</ele><time>2026-04-26T07:07:35.793Z</time></trkpt><trkpt lat="45.6219547" lon="11.4138159"><ele>165.57142857142858</ele><time>2026-04-26T07:07:38.793Z</time></trkpt><trkpt lat="45.6219153" lon="11.413914"><ele>165.85714285714286</ele><time>2026-04-26T07:07:41.793Z</time></trkpt><trkpt lat="45.6218877" lon="11.414012"><ele>166.14285714285717</ele><time>2026-04-26T07:07:45.794Z</time></trkpt><trkpt lat="45.621896" lon="11.4141234"><ele>166.42857142857144</ele><time>2026-04-26T07:07:48.794Z</time></trkpt><trkpt lat="45.6219117" lon="11.4142193"><ele>166.71428571428572</ele><time>2026-04-26T07:07:52.793Z</time></trkpt><trkpt lat="45.6218947" lon="11.4143165"><ele>167.0</ele><time>2026-04-26T07:07:56.793Z</time></trkpt><trkpt lat="45.6218533" lon="11.4144382"><ele>167.42857142857142</ele><time>2026-04-26T07:08:00.794Z</time></trkpt><trkpt lat="45.6218261" lon="11.4145367"><ele>167.85714285714286</ele><time>2026-04-26T07:08:03.793Z</time></trkpt><trkpt lat="45.6217932" lon="11.4146183"><ele>168.28571428571428</ele><time>2026-04-26T07:08:07.793Z</time></trkpt><trkpt lat="45.621745" lon="11.4146948"><ele>168.71428571428572</ele><time>2026-04-26T07:08:11.794Z</time></trkpt><trkpt lat="45.6216721" lon="11.4147164"><ele>169.14285714285714</ele><time>2026-04-26T07:08:14.793Z</time></trkpt><trkpt lat="45.621609" lon="11.4147187"><ele>169.57142857142858</ele><time>2026-04-26T07:08:17.793Z</time></trkpt><trkpt lat="45.6215306" lon="11.4147622"><ele>170.0</ele><time>2026-04-26T07:08:20.793Z</time></trkpt><trkpt lat="45.6214596" lon="11.4147932"><ele>170.0</ele><time>2026-04-26T07:08:23.794Z</time></trkpt><trkpt lat="45.6213822" lon="11.4147999"><ele>170.0</ele><time>2026-04-26T07:08:27.794Z</time></trkpt><trkpt lat="45.6213103" lon="11.4147907"><ele>170.0</ele><time>2026-04-26T07:08:30.793Z</time></trkpt><trkpt lat="45.6212326" lon="11.41477"><ele>170.0</ele><time>2026-04-26T07:08:34.794Z</time></trkpt><trkpt lat="45.6211447" lon="11.4147775"><ele>170.0</ele><time>2026-04-26T07:08:38.794Z</time></trkpt><trkpt lat="45.6210637" lon="11.4147648"><ele>170.0</ele><time>2026-04-26T07:08:41.793Z</time></trkpt><trkpt lat="45.6209895" lon="11.4147463"><ele>171.14285714285714</ele><time>2026-04-26T07:08:44.794Z</time></trkpt><trkpt lat="45.6209232" lon="11.4147412"><ele>172.28571428571428</ele><time>2026-04-26T07:08:47.793Z</time></trkpt><trkpt lat="45.6208546" lon="11.4147315"><ele>173.42857142857142</ele><time>2026-04-26T07:08:50.793Z</time></trkpt><trkpt lat="45.6207782" lon="11.4147216"><ele>174.57142857142856</ele><time>2026-04-26T07:08:53.793Z</time></trkpt><trkpt lat="45.6207078" lon="11.4147127"><ele>175.71428571428572</ele><time>2026-04-26T07:08:57.794Z</time></trkpt><trkpt lat="45.620632" lon="11.4147278"><ele>176.85714285714283</ele><time>2026-04-26T07:09:00.794Z</time></trkpt><trkpt lat="45.6205516" lon="11.414735"><ele>178.0</ele><time>2026-04-26T07:09:04.793Z</time></trkpt><trkpt lat="45.6204929" lon="11.4147737"><ele>178.0</ele><time>2026-04-26T07:09:08.793Z</time></trkpt><trkpt lat="45.6204389" lon="11.4148618"><ele>178.0</ele><time>2026-04-26T07:09:12.794Z</time></trkpt><trkpt lat="45.6203879" lon="11.4149239"><ele>178.0</ele><time>2026-04-26T07:09:15.793Z</time></trkpt><trkpt lat="45.6203036" lon="11.4149751"><ele>178.0</ele><time>2026-04-26T07:09:18.793Z</time></trkpt><trkpt lat="45.6202356" lon="11.4150011"><ele>178.0</ele><time>2026-04-26T07:09:20.793Z</time></trkpt><trkpt lat="45.6201757" lon="11.4150389"><ele>178.0</ele><time>2026-04-26T07:09:22.794Z</time></trkpt><trkpt lat="45.6200888" lon="11.4150744"><ele>178.66666666666669</ele><time>2026-04-26T07:09:25.793Z</time></trkpt><trkpt lat="45.6199993" lon="11.415071"><ele>179.33333333333334</ele><time>2026-04-26T07:09:28.793Z</time></trkpt><trkpt lat="45.6199336" lon="11.4150642"><ele>180.0</ele><time>2026-04-26T07:09:30.793Z</time></trkpt><trkpt lat="45.6198435" lon="11.4150496"><ele>180.66666666666666</ele><time>2026-04-26T07:09:33.794Z</time></trkpt><trkpt lat="45.6197581" lon="11.4150201"><ele>181.33333333333331</ele><time>2026-04-26T07:09:36.794Z</time></trkpt><trkpt lat="45.6196826" lon="11.4149763"><ele>182.0</ele><time>2026-04-26T07:09:39.794Z</time></trkpt><trkpt lat="45.6196148" lon="11.4149188"><ele>182.0</ele><time>2026-04-26T07:09:42.793Z</time></trkpt><trkpt lat="45.6195576" lon="11.4148482"><ele>182.0</ele><time>2026-04-26T07:09:45.794Z</time></trkpt><trkpt lat="45.6195134" lon="11.4147751"><ele>182.0</ele><time>2026-04-26T07:09:48.794Z</time></trkpt><trkpt lat="45.6194748" lon="11.4146999"><ele>182.0</ele><time>2026-04-26T07:09:51.793Z</time></trkpt><trkpt lat="45.6194263" lon="11.4146396"><ele>182.0</ele><time>2026-04-26T07:09:54.793Z</time></trkpt><trkpt lat="45.6193758" lon="11.4145689"><ele>182.0</ele><time>2026-04-26T07:09:57.793Z</time></trkpt><trkpt lat="45.6193297" lon="11.4144933"><ele>182.0</ele><time>2026-04-26T07:10:00.793Z</time></trkpt><trkpt lat="45.6192784" lon="11.41441"><ele>182.5</ele><time>2026-04-26T07:10:03.793Z</time></trkpt><trkpt lat="45.6192286" lon="11.4143139"><ele>183.0</ele><time>2026-04-26T07:10:06.793Z</time></trkpt><trkpt lat="45.6191883" lon="11.4142178"><ele>183.5</ele><time>2026-04-26T07:10:09.793Z</time></trkpt><trkpt lat="45.6191737" lon="11.4141189"><ele>184.0</ele><time>2026-04-26T07:10:12.793Z</time></trkpt><trkpt lat="45.619168" lon="11.414"><ele>184.5</ele><time>2026-04-26T07:10:15.794Z</time></trkpt><trkpt lat="45.6191621" lon="11.4138741"><ele>185.0</ele><time>2026-04-26T07:10:18.793Z</time></trkpt><trkpt lat="45.6191727" lon="11.4137638"><ele>186.14285714285714</ele><time>2026-04-26T07:10:21.794Z</time></trkpt><trkpt lat="45.6191879" lon="11.4136644"><ele>187.28571428571428</ele><time>2026-04-26T07:10:24.793Z</time></trkpt><trkpt lat="45.6192107" lon="11.4135714"><ele>188.42857142857144</ele><time>2026-04-26T07:10:27.793Z</time></trkpt><trkpt lat="45.6192549" lon="11.4134706"><ele>189.57142857142856</ele><time>2026-04-26T07:10:31.793Z</time></trkpt><trkpt lat="45.6193013" lon="11.4134062"><ele>190.71428571428572</ele><time>2026-04-26T07:10:34.793Z</time></trkpt><trkpt lat="45.6193554" lon="11.4133175"><ele>191.85714285714286</ele><time>2026-04-26T07:10:38.793Z</time></trkpt><trkpt lat="45.6194105" lon="11.4132459"><ele>193.0</ele><time>2026-04-26T07:10:42.794Z</time></trkpt><trkpt lat="45.6194771" lon="11.4132136"><ele>192.42857142857144</ele><time>2026-04-26T07:10:46.794Z</time></trkpt><trkpt lat="45.619541" lon="11.413171"><ele>191.85714285714286</ele><time>2026-04-26T07:10:49.793Z</time></trkpt><trkpt lat="45.6195933" lon="11.4131104"><ele>191.28571428571428</ele><time>2026-04-26T07:10:52.794Z</time></trkpt><trkpt lat="45.6196462" lon="11.4130373"><ele>190.71428571428572</ele><time>2026-04-26T07:10:55.793Z</time></trkpt><trkpt lat="45.6196913" lon="11.4129637"><ele>190.14285714285714</ele><time>2026-04-26T07:10:58.793Z</time></trkpt><trkpt lat="45.6197293" lon="11.4128745"><ele>189.57142857142858</ele><time>2026-04-26T07:11:01.793Z</time></trkpt><trkpt lat="45.6197662" lon="11.4127915"><ele>189.0</ele><time>2026-04-26T07:11:04.794Z</time></trkpt><trkpt lat="45.6198053" lon="11.4127114"><ele>189.0</ele><time>2026-04-26T07:11:07.794Z</time></trkpt><trkpt lat="45.6198352" lon="11.4126297"><ele>189.0</ele><time>2026-04-26T07:11:10.794Z</time></trkpt><trkpt lat="45.6198804" lon="11.4125409"><ele>189.0</ele><time>2026-04-26T07:11:15.793Z</time></trkpt><trkpt lat="45.6199028" lon="11.4124426"><ele>189.0</ele><time>2026-04-26T07:11:18.793Z</time></trkpt><trkpt lat="45.619921" lon="11.4123533"><ele>189.0</ele><time>2026-04-26T07:11:21.792Z</time></trkpt><trkpt lat="45.6199607" lon="11.4122571"><ele>189.0</ele><time>2026-04-26T07:11:25.792Z</time></trkpt><trkpt lat="45.620011" lon="11.4121963"><ele>189.0</ele><time>2026-04-26T07:11:29.793Z</time></trkpt><trkpt lat="45.6200584" lon="11.4120931"><ele>190.85714285714286</ele><time>2026-04-26T07:11:33.792Z</time></trkpt><trkpt lat="45.6201007" lon="11.4120014"><ele>192.71428571428572</ele><time>2026-04-26T07:11:37.792Z</time></trkpt><trkpt lat="45.6201407" lon="11.4119268"><ele>194.57142857142856</ele><time>2026-04-26T07:11:41.792Z</time></trkpt><trkpt lat="45.6201878" lon="11.4118604"><ele>196.42857142857144</ele><time>2026-04-26T07:11:45.793Z</time></trkpt><trkpt lat="45.6202419" lon="11.4117862"><ele>198.28571428571428</ele><time>2026-04-26T07:11:48.793Z</time></trkpt><trkpt lat="45.6203007" lon="11.411717"><ele>200.14285714285714</ele><time>2026-04-26T07:11:51.792Z</time></trkpt><trkpt lat="45.6203392" lon="11.4116372"><ele>202.0</ele><time>2026-04-26T07:11:55.792Z</time></trkpt><trkpt lat="45.6203608" lon="11.4115385"><ele>200.0</ele><time>2026-04-26T07:12:00.793Z</time></trkpt><trkpt lat="45.620382" lon="11.4114474"><ele>198.0</ele><time>2026-04-26T07:12:05.793Z</time></trkpt><trkpt lat="45.6204135" lon="11.411348"><ele>196.0</ele><time>2026-04-26T07:12:08.792Z</time></trkpt><trkpt lat="45.6204395" lon="11.4112645"><ele>194.0</ele><time>2026-04-26T07:12:10.793Z</time></trkpt><trkpt lat="45.6204536" lon="11.4111365"><ele>192.0</ele><time>2026-04-26T07:12:13.792Z</time></trkpt><trkpt lat="45.6204526" lon="11.4110197"><ele>190.0</ele><time>2026-04-26T07:12:16.793Z</time></trkpt><trkpt lat="45.6204381" lon="11.4109238"><ele>188.0</ele><time>2026-04-26T07:12:19.791Z</time></trkpt><trkpt lat="45.6203764" lon="11.410859"><ele>191.28571428571428</ele><time>2026-04-26T07:12:24.793Z</time></trkpt><trkpt lat="45.6203129" lon="11.410825"><ele>194.57142857142856</ele><time>2026-04-26T07:12:28.793Z</time></trkpt><trkpt lat="45.6202429" lon="11.4108071"><ele>197.85714285714286</ele><time>2026-04-26T07:12:33.793Z</time></trkpt><trkpt lat="45.6201697" lon="11.4107748"><ele>201.14285714285714</ele><time>2026-04-26T07:12:37.792Z</time></trkpt><trkpt lat="45.6201036" lon="11.4107525"><ele>204.42857142857144</ele><time>2026-04-26T07:12:40.792Z</time></trkpt><trkpt lat="45.6200302" lon="11.4107388"><ele>207.71428571428572</ele><time>2026-04-26T07:12:44.793Z</time></trkpt><trkpt lat="45.6199607" lon="11.4107196"><ele>211.0</ele><time>2026-04-26T07:12:48.792Z</time></trkpt><trkpt lat="45.6198888" lon="11.4107285"><ele>211.0</ele><time>2026-04-26T07:12:51.792Z</time></trkpt><trkpt lat="45.6198237" lon="11.4107396"><ele>211.0</ele><time>2026-04-26T07:12:54.793Z</time></trkpt><trkpt lat="45.6197559" lon="11.410776"><ele>211.0</ele><time>2026-04-26T07:12:57.793Z</time></trkpt><trkpt lat="45.6196847" lon="11.4108094"><ele>211.0</ele><time>2026-04-26T07:13:01.793Z</time></trkpt><trkpt lat="45.6196323" lon="11.4108596"><ele>211.0</ele><time>2026-04-26T07:13:04.792Z</time></trkpt><trkpt lat="45.6195669" lon="11.4109161"><ele>211.0</ele><time>2026-04-26T07:13:07.793Z</time></trkpt><trkpt lat="45.6194944" lon="11.410954"><ele>211.0</ele><time>2026-04-26T07:13:11.793Z</time></trkpt><trkpt lat="45.6194118" lon="11.4110025"><ele>213.49999999999997</ele><time>2026-04-26T07:13:14.792Z</time></trkpt><trkpt lat="45.6193541" lon="11.4110458"><ele>216.0</ele><time>2026-04-26T07:13:16.792Z</time></trkpt><trkpt lat="45.6192867" lon="11.4110897"><ele>218.5</ele><time>2026-04-26T07:13:19.792Z</time></trkpt><trkpt lat="45.61922" lon="11.4111234"><ele>221.0</ele><time>2026-04-26T07:13:22.792Z</time></trkpt><trkpt lat="45.6191415" lon="11.4111573"><ele>223.49999999999997</ele><time>2026-04-26T07:13:25.792Z</time></trkpt><trkpt lat="45.6190661" lon="11.4112127"><ele>226.0</ele><time>2026-04-26T07:13:28.792Z</time></trkpt><trkpt lat="45.6190066" lon="11.4112801"><ele>224.57142857142858</ele><time>2026-04-26T07:13:31.792Z</time></trkpt><trkpt lat="45.618941" lon="11.4113455"><ele>223.14285714285714</ele><time>2026-04-26T07:13:34.792Z</time></trkpt><trkpt lat="45.6188563" lon="11.4113603"><ele>221.71428571428572</ele><time>2026-04-26T07:13:37.793Z</time></trkpt><trkpt lat="45.6187848" lon="11.4113871"><ele>220.28571428571428</ele><time>2026-04-26T07:13:40.793Z</time></trkpt><trkpt lat="45.6187179" lon="11.4114181"><ele>218.85714285714283</ele><time>2026-04-26T07:13:43.793Z</time></trkpt><trkpt lat="45.6186507" lon="11.4114576"><ele>217.42857142857142</ele><time>2026-04-26T07:13:46.792Z</time></trkpt><trkpt lat="45.6185892" lon="11.411495"><ele>216.0</ele><time>2026-04-26T07:13:49.793Z</time></trkpt><trkpt lat="45.6185227" lon="11.4115247"><ele>219.0</ele><time>2026-04-26T07:13:52.792Z</time></trkpt><trkpt lat="45.6184543" lon="11.4115666"><ele>222.0</ele><time>2026-04-26T07:13:56.792Z</time></trkpt><trkpt lat="45.61841" lon="11.4116342"><ele>225.0</ele><time>2026-04-26T07:13:59.793Z</time></trkpt><trkpt lat="45.6183622" lon="11.41172"><ele>228.0</ele><time>2026-04-26T07:14:03.792Z</time></trkpt><trkpt lat="45.6183348" lon="11.4118084"><ele>231.0</ele><time>2026-04-26T07:14:08.792Z</time></trkpt><trkpt lat="45.6182901" lon="11.4118876"><ele>233.99999999999997</ele><time>2026-04-26T07:14:14.793Z</time></trkpt><trkpt lat="45.6182658" lon="11.4119981"><ele>236.99999999999997</ele><time>2026-04-26T07:14:19.792Z</time></trkpt><trkpt lat="45.6182192" lon="11.4120874"><ele>235.16666666666666</ele><time>2026-04-26T07:14:23.792Z</time></trkpt><trkpt lat="45.6181839" lon="11.4121643"><ele>233.33333333333331</ele><time>2026-04-26T07:14:26.793Z</time></trkpt><trkpt lat="45.6181426" lon="11.4122524"><ele>231.5</ele><time>2026-04-26T07:14:30.792Z</time></trkpt><trkpt lat="45.6181162" lon="11.4123695"><ele>229.66666666666666</ele><time>2026-04-26T07:14:34.793Z</time></trkpt><trkpt lat="45.6181372" lon="11.4124849"><ele>227.83333333333331</ele><time>2026-04-26T07:14:38.792Z</time></trkpt><trkpt lat="45.6181038" lon="11.4125883"><ele>226.0</ele><time>2026-04-26T07:14:42.793Z</time></trkpt><trkpt lat="45.6180693" lon="11.4126929"><ele>226.0</ele><time>2026-04-26T07:14:46.793Z</time></trkpt><trkpt lat="45.6180411" lon="11.4127919"><ele>226.0</ele><time>2026-04-26T07:14:50.792Z</time></trkpt><trkpt lat="45.6180235" lon="11.4128995"><ele>226.0</ele><time>2026-04-26T07:14:53.792Z</time></trkpt><trkpt lat="45.6180223" lon="11.4130088"><ele>226.0</ele><time>2026-04-26T07:14:56.792Z</time></trkpt><trkpt lat="45.6180112" lon="11.4131026"><ele>226.0</ele><time>2026-04-26T07:14:59.792Z</time></trkpt><trkpt lat="45.6179863" lon="11.4132024"><ele>226.0</ele><time>2026-04-26T07:15:03.792Z</time></trkpt><trkpt lat="45.6179581" lon="11.4132876"><ele>226.0</ele><time>2026-04-26T07:15:06.792Z</time></trkpt><trkpt lat="45.6179071" lon="11.4133866"><ele>225.57142857142858</ele><time>2026-04-26T07:15:09.793Z</time></trkpt><trkpt lat="45.6178565" lon="11.4134542"><ele>225.14285714285714</ele><time>2026-04-26T07:15:12.792Z</time></trkpt><trkpt lat="45.6177947" lon="11.4135016"><ele>224.71428571428572</ele><time>2026-04-26T07:15:15.792Z</time></trkpt><trkpt lat="45.6177564" lon="11.4135839"><ele>224.28571428571428</ele><time>2026-04-26T07:15:19.792Z</time></trkpt><trkpt lat="45.6176929" lon="11.4136704"><ele>223.85714285714283</ele><time>2026-04-26T07:15:23.793Z</time></trkpt><trkpt lat="45.6176228" lon="11.4137425"><ele>223.42857142857142</ele><time>2026-04-26T07:15:27.792Z</time></trkpt><trkpt lat="45.6175731" lon="11.4138054"><ele>223.0</ele><time>2026-04-26T07:15:30.792Z</time></trkpt><trkpt lat="45.6175266" lon="11.4138896"><ele>226.14285714285714</ele><time>2026-04-26T07:15:33.792Z</time></trkpt><trkpt lat="45.6174734" lon="11.4139384"><ele>229.28571428571428</ele><time>2026-04-26T07:15:36.793Z</time></trkpt><trkpt lat="45.6174361" lon="11.4140188"><ele>232.42857142857144</ele><time>2026-04-26T07:15:40.792Z</time></trkpt><trkpt lat="45.6174798" lon="11.4139439"><ele>235.57142857142856</ele><time>2026-04-26T07:15:52.793Z</time></trkpt><trkpt lat="45.6174966" lon="11.4138418"><ele>238.71428571428572</ele><time>2026-04-26T07:15:58.792Z</time></trkpt><trkpt lat="45.6175389" lon="11.4137694"><ele>241.85714285714286</ele><time>2026-04-26T07:16:05.793Z</time></trkpt><trkpt lat="45.6175677" lon="11.413669"><ele>245.0</ele><time>2026-04-26T07:16:09.793Z</time></trkpt><trkpt lat="45.6175933" lon="11.4135843"><ele>246.14285714285714</ele><time>2026-04-26T07:16:12.793Z</time></trkpt><trkpt lat="45.6175982" lon="11.4134713"><ele>247.28571428571428</ele><time>2026-04-26T07:16:15.792Z</time></trkpt><trkpt lat="45.6175679" lon="11.4133726"><ele>248.42857142857144</ele><time>2026-04-26T07:16:18.793Z</time></trkpt><trkpt lat="45.6174992" lon="11.4133273"><ele>249.57142857142858</ele><time>2026-04-26T07:16:23.792Z</time></trkpt><trkpt lat="45.6174362" lon="11.4133282"><ele>250.71428571428572</ele><time>2026-04-26T07:16:26.792Z</time></trkpt><trkpt lat="45.6173604" lon="11.4133758"><ele>251.8571428571429</ele><time>2026-04-26T07:16:30.793Z</time></trkpt><trkpt lat="45.6172991" lon="11.4134321"><ele>253.00000000000003</ele><time>2026-04-26T07:16:33.792Z</time></trkpt><trkpt lat="45.6172345" lon="11.4134968"><ele>253.00000000000003</ele><time>2026-04-26T07:16:37.793Z</time></trkpt><trkpt lat="45.6171666" lon="11.413544"><ele>253.0</ele><time>2026-04-26T07:16:41.792Z</time></trkpt><trkpt lat="45.617128" lon="11.4136264"><ele>253.00000000000003</ele><time>2026-04-26T07:16:44.792Z</time></trkpt><trkpt lat="45.6170777" lon="11.4137122"><ele>253.00000000000003</ele><time>2026-04-26T07:16:48.792Z</time></trkpt><trkpt lat="45.6170246" lon="11.4137634"><ele>253.0</ele><time>2026-04-26T07:16:53.793Z</time></trkpt><trkpt lat="45.6170027" lon="11.4138764"><ele>253.00000000000003</ele><time>2026-04-26T07:16:58.792Z</time></trkpt><trkpt lat="45.6169882" lon="11.4139763"><ele>253.00000000000003</ele><time>2026-04-26T07:17:01.792Z</time></trkpt><trkpt lat="45.6169816" lon="11.4140999"><ele>251.8571428571429</ele><time>2026-04-26T07:17:05.792Z</time></trkpt><trkpt lat="45.6169927" lon="11.4142076"><ele>250.71428571428572</ele><time>2026-04-26T07:17:08.792Z</time></trkpt><trkpt lat="45.6170118" lon="11.4143149"><ele>249.57142857142858</ele><time>2026-04-26T07:17:11.792Z</time></trkpt><trkpt lat="45.6170026" lon="11.4144128"><ele>248.42857142857144</ele><time>2026-04-26T07:17:15.793Z</time></trkpt><trkpt lat="45.6169809" lon="11.41451"><ele>247.28571428571428</ele><time>2026-04-26T07:17:19.793Z</time></trkpt><trkpt lat="45.6170177" lon="11.4146174"><ele>246.14285714285714</ele><time>2026-04-26T07:17:22.792Z</time></trkpt><trkpt lat="45.6170284" lon="11.4147176"><ele>245.0</ele><time>2026-04-26T07:17:25.792Z</time></trkpt><trkpt lat="45.6169927" lon="11.4148129"><ele>251.33333333333334</ele><time>2026-04-26T07:17:28.793Z</time></trkpt><trkpt lat="45.6169644" lon="11.4149103"><ele>257.6666666666667</ele><time>2026-04-26T07:17:31.792Z</time></trkpt><trkpt lat="45.6169187" lon="11.4149843"><ele>264.0</ele><time>2026-04-26T07:17:34.793Z</time></trkpt><trkpt lat="45.6168922" lon="11.4150891"><ele>270.3333333333333</ele><time>2026-04-26T07:17:37.793Z</time></trkpt><trkpt lat="45.6168587" lon="11.4151984"><ele>276.66666666666663</ele><time>2026-04-26T07:17:41.791Z</time></trkpt><trkpt lat="45.6167984" lon="11.4152859"><ele>283.0</ele><time>2026-04-26T07:17:44.792Z</time></trkpt><trkpt lat="45.6167365" lon="11.4153541"><ele>283.0</ele><time>2026-04-26T07:17:47.793Z</time></trkpt><trkpt lat="45.6166641" lon="11.4154168"><ele>283.0</ele><time>2026-04-26T07:17:50.792Z</time></trkpt><trkpt lat="45.6166151" lon="11.4154768"><ele>283.0</ele><time>2026-04-26T07:17:52.792Z</time></trkpt><trkpt lat="45.6165662" lon="11.4155707"><ele>283.0</ele><time>2026-04-26T07:17:55.792Z</time></trkpt><trkpt lat="45.6165084" lon="11.4156149"><ele>283.0</ele><time>2026-04-26T07:17:58.792Z</time></trkpt><trkpt lat="45.6164609" lon="11.4156858"><ele>283.0</ele><time>2026-04-26T07:18:02.792Z</time></trkpt><trkpt lat="45.6164086" lon="11.4157713"><ele>283.0</ele><time>2026-04-26T07:18:05.792Z</time></trkpt><trkpt lat="45.6163427" lon="11.415832"><ele>285.5</ele><time>2026-04-26T07:18:08.793Z</time></trkpt><trkpt lat="45.6163253" lon="11.4159371"><ele>288.0</ele><time>2026-04-26T07:18:12.792Z</time></trkpt><trkpt lat="45.6162969" lon="11.4160208"><ele>290.5</ele><time>2026-04-26T07:18:17.792Z</time></trkpt><trkpt lat="45.6162488" lon="11.4160952"><ele>293.0</ele><time>2026-04-26T07:18:21.792Z</time></trkpt><trkpt lat="45.6161941" lon="11.4161968"><ele>295.5</ele><time>2026-04-26T07:18:25.793Z</time></trkpt><trkpt lat="45.6161339" lon="11.4162548"><ele>298.0</ele><time>2026-04-26T07:18:28.792Z</time></trkpt><trkpt lat="45.6160716" lon="11.4163177"><ele>295.16666666666663</ele><time>2026-04-26T07:18:31.792Z</time></trkpt><trkpt lat="45.6159989" lon="11.4163842"><ele>292.3333333333333</ele><time>2026-04-26T07:18:34.792Z</time></trkpt><trkpt lat="45.6159285" lon="11.4164521"><ele>289.5</ele><time>2026-04-26T07:18:37.793Z</time></trkpt><trkpt lat="45.615868" lon="11.4165257"><ele>286.6666666666667</ele><time>2026-04-26T07:18:40.792Z</time></trkpt><trkpt lat="45.6158009" lon="11.4165856"><ele>283.83333333333337</ele><time>2026-04-26T07:18:43.792Z</time></trkpt><trkpt lat="45.615754" lon="11.4166638"><ele>281.0</ele><time>2026-04-26T07:18:47.792Z</time></trkpt><trkpt lat="45.6157493" lon="11.4167775"><ele>281.0</ele><time>2026-04-26T07:18:51.793Z</time></trkpt><trkpt lat="45.6157419" lon="11.4168716"><ele>281.0</ele><time>2026-04-26T07:18:54.793Z</time></trkpt><trkpt lat="45.6157199" lon="11.4169739"><ele>281.0</ele><time>2026-04-26T07:18:57.792Z</time></trkpt><trkpt lat="45.6156745" lon="11.4170904"><ele>281.0</ele><time>2026-04-26T07:19:00.792Z</time></trkpt><trkpt lat="45.6156368" lon="11.4171922"><ele>281.0</ele><time>2026-04-26T07:19:03.793Z</time></trkpt><trkpt lat="45.6156065" lon="11.4172914"><ele>281.0</ele><time>2026-04-26T07:19:06.793Z</time></trkpt><trkpt lat="45.6155793" lon="11.4173762"><ele>281.00000000000006</ele><time>2026-04-26T07:19:09.793Z</time></trkpt><trkpt lat="45.6155382" lon="11.4174497"><ele>281.0</ele><time>2026-04-26T07:19:12.791Z</time></trkpt><trkpt lat="45.6155108" lon="11.417536"><ele>281.0</ele><time>2026-04-26T07:19:15.792Z</time></trkpt><trkpt lat="45.6155096" lon="11.4176339"><ele>281.0</ele><time>2026-04-26T07:19:18.792Z</time></trkpt><trkpt lat="45.61553" lon="11.4177257"><ele>281.0</ele><time>2026-04-26T07:19:21.791Z</time></trkpt><trkpt lat="45.6155716" lon="11.4177961"><ele>281.00000000000006</ele><time>2026-04-26T07:19:24.792Z</time></trkpt><trkpt lat="45.6156414" lon="11.4178368"><ele>281.0</ele><time>2026-04-26T07:19:29.793Z</time></trkpt><trkpt lat="45.6157155" lon="11.417874"><ele>281.0</ele><time>2026-04-26T07:19:34.792Z</time></trkpt><trkpt lat="45.6157829" lon="11.4179256"><ele>281.0</ele><time>2026-04-26T07:19:38.792Z</time></trkpt><trkpt lat="45.6158446" lon="11.4179832"><ele>281.0</ele><time>2026-04-26T07:19:41.793Z</time></trkpt><trkpt lat="45.6158954" lon="11.4180449"><ele>281.0</ele><time>2026-04-26T07:19:44.793Z</time></trkpt><trkpt lat="45.615955" lon="11.418102"><ele>281.0</ele><time>2026-04-26T07:19:47.792Z</time></trkpt><trkpt lat="45.6160252" lon="11.4181528"><ele>281.0</ele><time>2026-04-26T07:19:51.792Z</time></trkpt><trkpt lat="45.6161081" lon="11.4181838"><ele>282.1666666666667</ele><time>2026-04-26T07:19:55.793Z</time></trkpt><trkpt lat="45.616179" lon="11.4182056"><ele>283.33333333333337</ele><time>2026-04-26T07:19:58.792Z</time></trkpt><trkpt lat="45.6162491" lon="11.4182283"><ele>284.5</ele><time>2026-04-26T07:20:03.792Z</time></trkpt><trkpt lat="45.6163524" lon="11.4182375"><ele>285.6666666666667</ele><time>2026-04-26T07:20:10.792Z</time></trkpt><trkpt lat="45.6163948" lon="11.4183188"><ele>286.8333333333333</ele><time>2026-04-26T07:20:13.793Z</time></trkpt><trkpt lat="45.616426" lon="11.4184169"><ele>288.0</ele><time>2026-04-26T07:20:16.792Z</time></trkpt><trkpt lat="45.6164502" lon="11.4185125"><ele>288.00000000000006</ele><time>2026-04-26T07:20:19.793Z</time></trkpt><trkpt lat="45.6164616" lon="11.4186184"><ele>288.0</ele><time>2026-04-26T07:20:24.793Z</time></trkpt><trkpt lat="45.6164452" lon="11.418721"><ele>288.0</ele><time>2026-04-26T07:20:29.793Z</time></trkpt><trkpt lat="45.6164495" lon="11.4188149"><ele>288.0</ele><time>2026-04-26T07:20:32.792Z</time></trkpt><trkpt lat="45.6164456" lon="11.4189207"><ele>288.0</ele><time>2026-04-26T07:20:35.792Z</time></trkpt><trkpt lat="45.616408" lon="11.4190066"><ele>288.00000000000006</ele><time>2026-04-26T07:20:38.792Z</time></trkpt><trkpt lat="45.6163481" lon="11.4190591"><ele>288.0</ele><time>2026-04-26T07:20:42.792Z</time></trkpt><trkpt lat="45.6162659" lon="11.4190556"><ele>288.3333333333333</ele><time>2026-04-26T07:20:47.792Z</time></trkpt><trkpt lat="45.6161857" lon="11.4190389"><ele>288.6666666666667</ele><time>2026-04-26T07:20:51.792Z</time></trkpt><trkpt lat="45.6161141" lon="11.4190181"><ele>289.0</ele><time>2026-04-26T07:20:54.793Z</time></trkpt><trkpt lat="45.6160306" lon="11.4190018"><ele>289.33333333333337</ele><time>2026-04-26T07:20:57.793Z</time></trkpt><trkpt lat="45.6159502" lon="11.4190114"><ele>289.6666666666667</ele><time>2026-04-26T07:21:00.793Z</time></trkpt><trkpt lat="45.6158753" lon="11.419035"><ele>290.0</ele><time>2026-04-26T07:21:03.793Z</time></trkpt><trkpt lat="45.6157954" lon="11.4190484"><ele>292.0</ele><time>2026-04-26T07:21:07.793Z</time></trkpt><trkpt lat="45.6157268" lon="11.4190716"><ele>294.0</ele><time>2026-04-26T07:21:10.792Z</time></trkpt><trkpt lat="45.6156522" lon="11.4191219"><ele>296.0</ele><time>2026-04-26T07:21:13.793Z</time></trkpt><trkpt lat="45.6155778" lon="11.4191738"><ele>298.0</ele><time>2026-04-26T07:21:16.793Z</time></trkpt><trkpt lat="45.6155052" lon="11.4192387"><ele>300.0</ele><time>2026-04-26T07:21:19.793Z</time></trkpt><trkpt lat="45.6154261" lon="11.4193065"><ele>302.0</ele><time>2026-04-26T07:21:22.792Z</time></trkpt><trkpt lat="45.615347" lon="11.4193584"><ele>303.0</ele><time>2026-04-26T07:21:25.792Z</time></trkpt><trkpt lat="45.6152696" lon="11.4194213"><ele>304.0</ele><time>2026-04-26T07:21:28.793Z</time></trkpt><trkpt lat="45.6152035" lon="11.4194977"><ele>305.0</ele><time>2026-04-26T07:21:31.793Z</time></trkpt><trkpt lat="45.6151357" lon="11.4195639"><ele>306.0</ele><time>2026-04-26T07:21:34.793Z</time></trkpt><trkpt lat="45.6150692" lon="11.4196154"><ele>307.0</ele><time>2026-04-26T07:21:37.792Z</time></trkpt><trkpt lat="45.6150153" lon="11.4196626"><ele>308.0</ele><time>2026-04-26T07:21:41.792Z</time></trkpt><trkpt lat="45.6149433" lon="11.4196861"><ele>308.0</ele><time>2026-04-26T07:21:44.793Z</time></trkpt><trkpt lat="45.6148733" lon="11.4196634"><ele>308.0</ele><time>2026-04-26T07:21:47.792Z</time></trkpt><trkpt lat="45.6148153" lon="11.4196109"><ele>308.0</ele><time>2026-04-26T07:21:50.793Z</time></trkpt><trkpt lat="45.6147858" lon="11.4195229"><ele>308.0</ele><time>2026-04-26T07:21:53.792Z</time></trkpt><trkpt lat="45.6147573" lon="11.4194181"><ele>308.0</ele><time>2026-04-26T07:21:57.792Z</time></trkpt><trkpt lat="45.6147335" lon="11.419318"><ele>308.0</ele><time>2026-04-26T07:22:01.793Z</time></trkpt><trkpt lat="45.6147039" lon="11.4192045"><ele>308.0</ele><time>2026-04-26T07:22:06.792Z</time></trkpt><trkpt lat="45.6146607" lon="11.4191328"><ele>308.2857142857143</ele><time>2026-04-26T07:22:09.792Z</time></trkpt><trkpt lat="45.614628" lon="11.419016"><ele>308.57142857142856</ele><time>2026-04-26T07:22:12.793Z</time></trkpt><trkpt lat="45.6146152" lon="11.4189241"><ele>308.8571428571429</ele><time>2026-04-26T07:22:14.792Z</time></trkpt><trkpt lat="45.6145936" lon="11.4188375"><ele>309.1428571428571</ele><time>2026-04-26T07:22:16.792Z</time></trkpt><trkpt lat="45.6145516" lon="11.418762"><ele>309.42857142857144</ele><time>2026-04-26T07:22:18.793Z</time></trkpt><trkpt lat="45.614495" lon="11.4186913"><ele>309.7142857142857</ele><time>2026-04-26T07:22:20.791Z</time></trkpt><trkpt lat="45.6144413" lon="11.4186441"><ele>310.0</ele><time>2026-04-26T07:22:22.792Z</time></trkpt><trkpt lat="45.6141412" lon="11.418524"><ele>311.4</ele><time>2026-04-26T07:22:28.792Z</time></trkpt><trkpt lat="45.6140312" lon="11.4184781"><ele>312.8</ele><time>2026-04-26T07:22:29.793Z</time></trkpt><trkpt lat="45.6139416" lon="11.4184491"><ele>314.2</ele><time>2026-04-26T07:22:30.792Z</time></trkpt><trkpt lat="45.6138565" lon="11.4184516"><ele>315.6</ele><time>2026-04-26T07:22:31.792Z</time></trkpt><trkpt lat="45.6137711" lon="11.4184674"><ele>317.0</ele><time>2026-04-26T07:22:32.792Z</time></trkpt><trkpt lat="45.6136895" lon="11.4185061"><ele>315.0</ele><time>2026-04-26T07:22:33.792Z</time></trkpt><trkpt lat="45.6136265" lon="11.4185445"><ele>313.0</ele><time>2026-04-26T07:22:34.793Z</time></trkpt><trkpt lat="45.6135236" lon="11.4186138"><ele>311.0</ele><time>2026-04-26T07:22:36.792Z</time></trkpt><trkpt lat="45.6136225" lon="11.4113577"><ele>300.33333333333337</ele><time>2026-04-26T07:24:57.793Z</time></trkpt><trkpt lat="45.6137376" lon="11.4112887"><ele>289.6666666666667</ele><time>2026-04-26T07:25:06.714Z</time></trkpt><trkpt lat="45.6138088" lon="11.4112766"><ele>279.0</ele><time>2026-04-26T07:25:11.792Z</time></trkpt><trkpt lat="45.6138747" lon="11.4112739"><ele>268.3333333333333</ele><time>2026-04-26T07:25:15.791Z</time></trkpt><trkpt lat="45.6139441" lon="11.4112785"><ele>257.66666666666663</ele><time>2026-04-26T07:25:20.791Z</time></trkpt><trkpt lat="45.6140135" lon="11.411238"><ele>247.0</ele><time>2026-04-26T07:25:24.792Z</time></trkpt><trkpt lat="45.6140848" lon="11.4111808"><ele>247.0</ele><time>2026-04-26T07:25:28.791Z</time></trkpt><trkpt lat="45.6141346" lon="11.4110988"><ele>247.0</ele><time>2026-04-26T07:25:32.792Z</time></trkpt><trkpt lat="45.6141946" lon="11.4110568"><ele>247.0</ele><time>2026-04-26T07:25:36.792Z</time></trkpt><trkpt lat="45.6142537" lon="11.4109907"><ele>247.0</ele><time>2026-04-26T07:25:41.791Z</time></trkpt><trkpt lat="45.6142995" lon="11.4109044"><ele>247.0</ele><time>2026-04-26T07:25:47.792Z</time></trkpt><trkpt lat="45.6143422" lon="11.4108371"><ele>247.0</ele><time>2026-04-26T07:25:53.791Z</time></trkpt><trkpt lat="45.6143902" lon="11.4107658"><ele>247.0</ele><time>2026-04-26T07:25:58.791Z</time></trkpt><trkpt lat="45.6144367" lon="11.4106843"><ele>247.0</ele><time>2026-04-26T07:26:03.791Z</time></trkpt><trkpt lat="45.6144871" lon="11.4106084"><ele>247.0</ele><time>2026-04-26T07:26:08.791Z</time></trkpt><trkpt lat="45.6145415" lon="11.4105326"><ele>247.0</ele><time>2026-04-26T07:26:13.792Z</time></trkpt><trkpt lat="45.6145937" lon="11.4104558"><ele>247.0</ele><time>2026-04-26T07:26:18.792Z</time></trkpt><trkpt lat="45.6146375" lon="11.4103811"><ele>247.0</ele><time>2026-04-26T07:26:22.792Z</time></trkpt><trkpt lat="45.6146454" lon="11.4102788"><ele>247.0</ele><time>2026-04-26T07:26:26.791Z</time></trkpt><trkpt lat="45.6146719" lon="11.4101866"><ele>247.0</ele><time>2026-04-26T07:26:31.791Z</time></trkpt><trkpt lat="45.6146989" lon="11.4100964"><ele>250.42857142857144</ele><time>2026-04-26T07:26:36.791Z</time></trkpt><trkpt lat="45.6147281" lon="11.4100022"><ele>253.85714285714283</ele><time>2026-04-26T07:26:45.791Z</time></trkpt><trkpt lat="45.614759" lon="11.4099186"><ele>257.2857142857143</ele><time>2026-04-26T07:26:51.792Z</time></trkpt><trkpt lat="45.6148072" lon="11.409843"><ele>260.7142857142857</ele><time>2026-04-26T07:26:58.792Z</time></trkpt><trkpt lat="45.6148231" lon="11.4097472"><ele>264.14285714285717</ele><time>2026-04-26T07:27:02.792Z</time></trkpt><trkpt lat="45.614812" lon="11.4096561"><ele>267.57142857142856</ele><time>2026-04-26T07:27:06.791Z</time></trkpt><trkpt lat="45.6148396" lon="11.4095671"><ele>271.0</ele><time>2026-04-26T07:27:11.791Z</time></trkpt><trkpt lat="45.6148957" lon="11.4095131"><ele>271.0</ele><time>2026-04-26T07:27:15.792Z</time></trkpt><trkpt lat="45.6149281" lon="11.4094135"><ele>271.0</ele><time>2026-04-26T07:27:19.792Z</time></trkpt><trkpt lat="45.6149278" lon="11.4093052"><ele>271.0</ele><time>2026-04-26T07:27:23.791Z</time></trkpt><trkpt lat="45.6149408" lon="11.4092134"><ele>271.0</ele><time>2026-04-26T07:27:27.792Z</time></trkpt><trkpt lat="45.6149534" lon="11.4091246"><ele>271.0</ele><time>2026-04-26T07:27:31.791Z</time></trkpt><trkpt lat="45.6149695" lon="11.4090326"><ele>271.0</ele><time>2026-04-26T07:27:35.791Z</time></trkpt><trkpt lat="45.6149806" lon="11.4089263"><ele>271.0</ele><time>2026-04-26T07:27:40.792Z</time></trkpt><trkpt lat="45.6149488" lon="11.4088432"><ele>270.42857142857144</ele><time>2026-04-26T07:27:43.791Z</time></trkpt><trkpt lat="45.614973" lon="11.4087485"><ele>269.8571428571429</ele><time>2026-04-26T07:27:48.791Z</time></trkpt><trkpt lat="45.6149992" lon="11.4086659"><ele>269.28571428571433</ele><time>2026-04-26T07:27:53.791Z</time></trkpt><trkpt lat="45.6150398" lon="11.4085816"><ele>268.7142857142857</ele><time>2026-04-26T07:27:57.791Z</time></trkpt><trkpt lat="45.6150822" lon="11.4085099"><ele>268.14285714285717</ele><time>2026-04-26T07:28:01.791Z</time></trkpt><trkpt lat="45.6150828" lon="11.4083988"><ele>267.5714285714286</ele><time>2026-04-26T07:28:07.792Z</time></trkpt><trkpt lat="45.6151032" lon="11.4082969"><ele>267.0</ele><time>2026-04-26T07:28:11.792Z</time></trkpt><trkpt lat="45.6151332" lon="11.4082052"><ele>267.00000000000006</ele><time>2026-04-26T07:28:14.791Z</time></trkpt><trkpt lat="45.6151691" lon="11.4081308"><ele>267.0</ele><time>2026-04-26T07:28:17.791Z</time></trkpt><trkpt lat="45.6151981" lon="11.4080441"><ele>267.0</ele><time>2026-04-26T07:28:21.792Z</time></trkpt><trkpt lat="45.6152297" lon="11.4079614"><ele>267.0</ele><time>2026-04-26T07:28:25.791Z</time></trkpt><trkpt lat="45.6152502" lon="11.407874"><ele>267.0</ele><time>2026-04-26T07:28:29.791Z</time></trkpt><trkpt lat="45.6152688" lon="11.4077711"><ele>267.00000000000006</ele><time>2026-04-26T07:28:34.792Z</time></trkpt><trkpt lat="45.6152788" lon="11.4076753"><ele>267.0</ele><time>2026-04-26T07:28:38.792Z</time></trkpt><trkpt lat="45.6152708" lon="11.4075808"><ele>267.14285714285717</ele><time>2026-04-26T07:28:42.791Z</time></trkpt><trkpt lat="45.6152662" lon="11.4074764"><ele>267.2857142857143</ele><time>2026-04-26T07:28:49.791Z</time></trkpt><trkpt lat="45.6152535" lon="11.4073845"><ele>267.42857142857144</ele><time>2026-04-26T07:28:54.792Z</time></trkpt><trkpt lat="45.615263" lon="11.4072811"><ele>267.57142857142856</ele><time>2026-04-26T07:28:58.791Z</time></trkpt><trkpt lat="45.6152811" lon="11.4071805"><ele>267.7142857142857</ele><time>2026-04-26T07:29:02.791Z</time></trkpt><trkpt lat="45.6152877" lon="11.4070786"><ele>267.8571428571429</ele><time>2026-04-26T07:29:07.792Z</time></trkpt><trkpt lat="45.6153051" lon="11.4069698"><ele>268.0</ele><time>2026-04-26T07:29:11.792Z</time></trkpt><trkpt lat="45.6152916" lon="11.4068668"><ele>269.8571428571429</ele><time>2026-04-26T07:29:17.792Z</time></trkpt><trkpt lat="45.6152723" lon="11.4067643"><ele>271.7142857142857</ele><time>2026-04-26T07:29:22.791Z</time></trkpt><trkpt lat="45.6152552" lon="11.4066586"><ele>273.57142857142856</ele><time>2026-04-26T07:29:26.791Z</time></trkpt><trkpt lat="45.61523" lon="11.4065497"><ele>275.42857142857144</ele><time>2026-04-26T07:29:30.792Z</time></trkpt><trkpt lat="45.615201" lon="11.4064585"><ele>277.2857142857143</ele><time>2026-04-26T07:29:33.791Z</time></trkpt><trkpt lat="45.615192" lon="11.4063662"><ele>279.14285714285717</ele><time>2026-04-26T07:29:36.791Z</time></trkpt><trkpt lat="45.6151572" lon="11.4062723"><ele>281.0</ele><time>2026-04-26T07:29:40.792Z</time></trkpt><trkpt lat="45.6151024" lon="11.4062129"><ele>285.14285714285717</ele><time>2026-04-26T07:29:45.791Z</time></trkpt><trkpt lat="45.6150352" lon="11.4061966"><ele>289.2857142857143</ele><time>2026-04-26T07:29:51.791Z</time></trkpt><trkpt lat="45.6149697" lon="11.4061691"><ele>293.42857142857144</ele><time>2026-04-26T07:29:57.792Z</time></trkpt><trkpt lat="45.6149078" lon="11.4061227"><ele>297.57142857142856</ele><time>2026-04-26T07:30:02.791Z</time></trkpt><trkpt lat="45.6148321" lon="11.4061134"><ele>301.7142857142857</ele><time>2026-04-26T07:30:09.791Z</time></trkpt><trkpt lat="45.6147577" lon="11.4060865"><ele>305.8571428571429</ele><time>2026-04-26T07:30:13.791Z</time></trkpt><trkpt lat="45.6146967" lon="11.4060543"><ele>310.0</ele><time>2026-04-26T07:30:17.792Z</time></trkpt><trkpt lat="45.6146185" lon="11.4060369"><ele>310.0</ele><time>2026-04-26T07:30:22.791Z</time></trkpt><trkpt lat="45.6145519" lon="11.4060084"><ele>310.0</ele><time>2026-04-26T07:30:26.791Z</time></trkpt><trkpt lat="45.6144949" lon="11.4059422"><ele>310.0</ele><time>2026-04-26T07:30:32.792Z</time></trkpt><trkpt lat="45.6144259" lon="11.4059088"><ele>310.0</ele><time>2026-04-26T07:30:37.791Z</time></trkpt><trkpt lat="45.6143557" lon="11.4058508"><ele>310.0</ele><time>2026-04-26T07:30:41.792Z</time></trkpt><trkpt lat="45.6142901" lon="11.4057914"><ele>310.0</ele><time>2026-04-26T07:30:45.791Z</time></trkpt><trkpt lat="45.6142244" lon="11.4057235"><ele>311.0</ele><time>2026-04-26T07:30:49.791Z</time></trkpt><trkpt lat="45.6141968" lon="11.4056406"><ele>312.0</ele><time>2026-04-26T07:30:52.792Z</time></trkpt><trkpt lat="45.6141614" lon="11.405554"><ele>313.0</ele><time>2026-04-26T07:30:56.79Z</time></trkpt><trkpt lat="45.6141191" lon="11.4054745"><ele>314.0</ele><time>2026-04-26T07:31:01.792Z</time></trkpt><trkpt lat="45.614086" lon="11.4053846"><ele>315.0</ele><time>2026-04-26T07:31:05.79Z</time></trkpt><trkpt lat="45.6140625" lon="11.4052935"><ele>316.0</ele><time>2026-04-26T07:31:09.791Z</time></trkpt><trkpt lat="45.6140603" lon="11.4051706"><ele>317.0</ele><time>2026-04-26T07:31:13.791Z</time></trkpt><trkpt lat="45.6140633" lon="11.4050591"><ele>317.0</ele><time>2026-04-26T07:31:16.791Z</time></trkpt><trkpt lat="45.6140347" lon="11.404952"><ele>317.0</ele><time>2026-04-26T07:31:19.791Z</time></trkpt><trkpt lat="45.614033" lon="11.4048589"><ele>317.0</ele><time>2026-04-26T07:31:22.792Z</time></trkpt><trkpt lat="45.614007" lon="11.4047763"><ele>317.0</ele><time>2026-04-26T07:31:27.791Z</time></trkpt><trkpt lat="45.6139808" lon="11.4046909"><ele>317.0</ele><time>2026-04-26T07:31:32.791Z</time></trkpt><trkpt lat="45.6139365" lon="11.4046137"><ele>317.0</ele><time>2026-04-26T07:31:37.792Z</time></trkpt><trkpt lat="45.6138886" lon="11.4045344"><ele>317.0</ele><time>2026-04-26T07:31:41.791Z</time></trkpt><trkpt lat="45.6138481" lon="11.4044627"><ele>320.2857142857143</ele><time>2026-04-26T07:31:45.791Z</time></trkpt><trkpt lat="45.6138103" lon="11.4043759"><ele>323.57142857142856</ele><time>2026-04-26T07:31:49.791Z</time></trkpt><trkpt lat="45.6137651" lon="11.4042826"><ele>326.8571428571429</ele><time>2026-04-26T07:31:54.791Z</time></trkpt><trkpt lat="45.61373" lon="11.4041875"><ele>330.1428571428571</ele><time>2026-04-26T07:31:58.791Z</time></trkpt><trkpt lat="45.6137111" lon="11.4040839"><ele>333.4285714285714</ele><time>2026-04-26T07:32:01.791Z</time></trkpt><trkpt lat="45.6136935" lon="11.4039888"><ele>336.7142857142857</ele><time>2026-04-26T07:32:05.791Z</time></trkpt><trkpt lat="45.6136779" lon="11.4039"><ele>340.0</ele><time>2026-04-26T07:32:10.791Z</time></trkpt><trkpt lat="45.6136687" lon="11.4038"><ele>338.7142857142857</ele><time>2026-04-26T07:32:14.791Z</time></trkpt><trkpt lat="45.61364" lon="11.4037126"><ele>337.4285714285714</ele><time>2026-04-26T07:32:17.792Z</time></trkpt><trkpt lat="45.6136292" lon="11.4036073"><ele>336.1428571428571</ele><time>2026-04-26T07:32:21.791Z</time></trkpt><trkpt lat="45.6136166" lon="11.403518"><ele>334.8571428571429</ele><time>2026-04-26T07:32:25.791Z</time></trkpt><trkpt lat="45.6136154" lon="11.4034034"><ele>333.57142857142856</ele><time>2026-04-26T07:32:30.792Z</time></trkpt><trkpt lat="45.6135483" lon="11.4033519"><ele>332.2857142857143</ele><time>2026-04-26T07:32:35.792Z</time></trkpt><trkpt lat="45.6134871" lon="11.4032965"><ele>331.0</ele><time>2026-04-26T07:32:42.792Z</time></trkpt><trkpt lat="45.6134206" lon="11.4032531"><ele>331.0</ele><time>2026-04-26T07:32:46.792Z</time></trkpt><trkpt lat="45.6133413" lon="11.4032411"><ele>331.0</ele><time>2026-04-26T07:32:52.79Z</time></trkpt><trkpt lat="45.6132767" lon="11.4032348"><ele>331.0</ele><time>2026-04-26T07:32:55.792Z</time></trkpt><trkpt lat="45.6132031" lon="11.403228"><ele>331.0</ele><time>2026-04-26T07:32:59.791Z</time></trkpt><trkpt lat="45.6131332" lon="11.4032349"><ele>331.0</ele><time>2026-04-26T07:33:03.791Z</time></trkpt><trkpt lat="45.6130638" lon="11.4032177"><ele>331.0</ele><time>2026-04-26T07:33:07.792Z</time></trkpt><trkpt lat="45.6129986" lon="11.4031462"><ele>331.0</ele><time>2026-04-26T07:33:11.792Z</time></trkpt><trkpt lat="45.6129271" lon="11.4031246"><ele>331.0</ele><time>2026-04-26T07:33:15.792Z</time></trkpt><trkpt lat="45.6128552" lon="11.4030853"><ele>331.0</ele><time>2026-04-26T07:33:20.791Z</time></trkpt><trkpt lat="45.6127986" lon="11.4030277"><ele>331.0</ele><time>2026-04-26T07:33:24.791Z</time></trkpt><trkpt lat="45.6127385" lon="11.402942"><ele>331.0</ele><time>2026-04-26T07:33:28.791Z</time></trkpt><trkpt lat="45.6126691" lon="11.4028926"><ele>331.0</ele><time>2026-04-26T07:33:32.792Z</time></trkpt><trkpt lat="45.6126061" lon="11.4028401"><ele>331.0</ele><time>2026-04-26T07:33:37.791Z</time></trkpt><trkpt lat="45.6125394" lon="11.4028015"><ele>333.8333333333333</ele><time>2026-04-26T07:33:41.792Z</time></trkpt><trkpt lat="45.6124823" lon="11.4027254"><ele>336.66666666666663</ele><time>2026-04-26T07:33:45.791Z</time></trkpt><trkpt lat="45.6124298" lon="11.4026405"><ele>339.5</ele><time>2026-04-26T07:33:49.792Z</time></trkpt><trkpt lat="45.6123799" lon="11.40256"><ele>342.3333333333333</ele><time>2026-04-26T07:33:54.79Z</time></trkpt><trkpt lat="45.6123329" lon="11.4024792"><ele>345.1666666666667</ele><time>2026-04-26T07:33:58.792Z</time></trkpt><trkpt lat="45.6122705" lon="11.4024201"><ele>348.0</ele><time>2026-04-26T07:34:01.791Z</time></trkpt><trkpt lat="45.6122153" lon="11.4023502"><ele>348.0</ele><time>2026-04-26T07:34:04.791Z</time></trkpt><trkpt lat="45.6121626" lon="11.4022847"><ele>348.0</ele><time>2026-04-26T07:34:09.791Z</time></trkpt><trkpt lat="45.6120897" lon="11.4022584"><ele>348.0</ele><time>2026-04-26T07:34:15.792Z</time></trkpt><trkpt lat="45.6120341" lon="11.4023205"><ele>348.0</ele><time>2026-04-26T07:34:20.792Z</time></trkpt><trkpt lat="45.6119891" lon="11.4023843"><ele>348.0</ele><time>2026-04-26T07:34:24.791Z</time></trkpt><trkpt lat="45.6119396" lon="11.4024538"><ele>348.0</ele><time>2026-04-26T07:34:28.79Z</time></trkpt><trkpt lat="45.6118805" lon="11.4024911"><ele>348.0</ele><time>2026-04-26T07:34:32.791Z</time></trkpt><trkpt lat="45.6118147" lon="11.4025449"><ele>349.0</ele><time>2026-04-26T07:34:36.791Z</time></trkpt><trkpt lat="45.6117609" lon="11.4025937"><ele>350.0</ele><time>2026-04-26T07:34:39.791Z</time></trkpt><trkpt lat="45.611708" lon="11.4026435"><ele>351.0</ele><time>2026-04-26T07:34:42.791Z</time></trkpt><trkpt lat="45.6116487" lon="11.4026921"><ele>352.0</ele><time>2026-04-26T07:34:45.791Z</time></trkpt><trkpt lat="45.6115944" lon="11.4027501"><ele>353.0</ele><time>2026-04-26T07:34:49.792Z</time></trkpt><trkpt lat="45.6115386" lon="11.4028092"><ele>354.0</ele><time>2026-04-26T07:34:54.791Z</time></trkpt><trkpt lat="45.6114634" lon="11.4028524"><ele>355.0</ele><time>2026-04-26T07:34:58.791Z</time></trkpt><trkpt lat="45.6114023" lon="11.4029071"><ele>355.0</ele><time>2026-04-26T07:35:02.791Z</time></trkpt><trkpt lat="45.6113494" lon="11.4029796"><ele>355.0</ele><time>2026-04-26T07:35:07.791Z</time></trkpt><trkpt lat="45.611289" lon="11.4030303"><ele>355.0</ele><time>2026-04-26T07:35:12.792Z</time></trkpt><trkpt lat="45.6112096" lon="11.4030724"><ele>355.0</ele><time>2026-04-26T07:35:15.791Z</time></trkpt><trkpt lat="45.6111452" lon="11.4030877"><ele>355.0</ele><time>2026-04-26T07:35:18.791Z</time></trkpt><trkpt lat="45.6110707" lon="11.4030822"><ele>355.0</ele><time>2026-04-26T07:35:22.792Z</time></trkpt><trkpt lat="45.6109985" lon="11.4030718"><ele>355.0</ele><time>2026-04-26T07:35:26.791Z</time></trkpt><trkpt lat="45.6109313" lon="11.4030353"><ele>353.42857142857144</ele><time>2026-04-26T07:35:30.791Z</time></trkpt><trkpt lat="45.6108687" lon="11.4029998"><ele>351.8571428571429</ele><time>2026-04-26T07:35:34.791Z</time></trkpt><trkpt lat="45.6108033" lon="11.4029721"><ele>350.28571428571433</ele><time>2026-04-26T07:35:38.791Z</time></trkpt><trkpt lat="45.6107359" lon="11.402965"><ele>348.7142857142857</ele><time>2026-04-26T07:35:42.791Z</time></trkpt><trkpt lat="45.6106648" lon="11.4029471"><ele>347.14285714285717</ele><time>2026-04-26T07:35:48.792Z</time></trkpt><trkpt lat="45.6105999" lon="11.4029421"><ele>345.5714285714286</ele><time>2026-04-26T07:35:52.791Z</time></trkpt><trkpt lat="45.6105341" lon="11.4029451"><ele>344.0</ele><time>2026-04-26T07:35:57.792Z</time></trkpt><trkpt lat="45.6104731" lon="11.4029227"><ele>345.1666666666667</ele><time>2026-04-26T07:36:06.79Z</time></trkpt><trkpt lat="45.6103676" lon="11.4029366"><ele>346.33333333333337</ele><time>2026-04-26T07:36:09.791Z</time></trkpt><trkpt lat="45.6102851" lon="11.4029522"><ele>347.5</ele><time>2026-04-26T07:36:11.791Z</time></trkpt><trkpt lat="45.6102126" lon="11.4029683"><ele>348.6666666666667</ele><time>2026-04-26T07:36:13.791Z</time></trkpt><trkpt lat="45.6101295" lon="11.402985"><ele>349.8333333333333</ele><time>2026-04-26T07:36:16.792Z</time></trkpt><trkpt lat="45.6100699" lon="11.403025"><ele>351.0</ele><time>2026-04-26T07:36:20.791Z</time></trkpt><trkpt lat="45.6099962" lon="11.403012"><ele>351.00000000000006</ele><time>2026-04-26T07:36:25.792Z</time></trkpt><trkpt lat="45.6099306" lon="11.4030255"><ele>351.0</ele><time>2026-04-26T07:36:31.791Z</time></trkpt><trkpt lat="45.6098689" lon="11.4030548"><ele>351.0</ele><time>2026-04-26T07:36:36.791Z</time></trkpt><trkpt lat="45.6098046" lon="11.4030574"><ele>351.0</ele><time>2026-04-26T07:36:43.791Z</time></trkpt><trkpt lat="45.6097377" lon="11.4030301"><ele>351.0</ele><time>2026-04-26T07:36:48.791Z</time></trkpt><trkpt lat="45.609675" lon="11.40301"><ele>351.00000000000006</ele><time>2026-04-26T07:36:52.791Z</time></trkpt><trkpt lat="45.6096044" lon="11.4029912"><ele>351.0</ele><time>2026-04-26T07:36:56.791Z</time></trkpt><trkpt lat="45.6095373" lon="11.4029559"><ele>354.28571428571433</ele><time>2026-04-26T07:37:00.792Z</time></trkpt><trkpt lat="45.6094794" lon="11.4028857"><ele>357.57142857142856</ele><time>2026-04-26T07:37:10.791Z</time></trkpt><trkpt lat="45.6094125" lon="11.4028449"><ele>360.8571428571429</ele><time>2026-04-26T07:37:14.791Z</time></trkpt><trkpt lat="45.6093725" lon="11.402761"><ele>364.14285714285717</ele><time>2026-04-26T07:37:20.792Z</time></trkpt><trkpt lat="45.6093518" lon="11.4026718"><ele>367.42857142857144</ele><time>2026-04-26T07:37:25.791Z</time></trkpt><trkpt lat="45.6093216" lon="11.4025872"><ele>370.7142857142857</ele><time>2026-04-26T07:37:29.791Z</time></trkpt><trkpt lat="45.6093446" lon="11.4024976"><ele>374.0</ele><time>2026-04-26T07:37:37.791Z</time></trkpt><trkpt lat="45.6093839" lon="11.4024212"><ele>374.0</ele><time>2026-04-26T07:37:42.792Z</time></trkpt><trkpt lat="45.6094244" lon="11.4023472"><ele>374.0</ele><time>2026-04-26T07:37:46.791Z</time></trkpt><trkpt lat="45.6094803" lon="11.4022868"><ele>374.0</ele><time>2026-04-26T07:37:51.791Z</time></trkpt><trkpt lat="45.6095482" lon="11.4022353"><ele>374.0</ele><time>2026-04-26T07:37:56.791Z</time></trkpt><trkpt lat="45.6096069" lon="11.4021671"><ele>374.0</ele><time>2026-04-26T07:38:01.792Z</time></trkpt><trkpt lat="45.6096536" lon="11.4021033"><ele>374.0</ele><time>2026-04-26T07:38:05.792Z</time></trkpt><trkpt lat="45.6093446" lon="11.4024976"><ele>374.0</ele><time>2026-04-26T07:37:37.791Z</time></trkpt><trkpt lat="45.6093839" lon="11.4024212"><ele>374.0</ele><time>2026-04-26T07:37:42.792Z</time></trkpt><trkpt lat="45.6094244" lon="11.4023472"><ele>374.0</ele><time>2026-04-26T07:37:46.791Z</time></trkpt><trkpt lat="45.6094803" lon="11.4022868"><ele>374.0</ele><time>2026-04-26T07:37:51.791Z</time></trkpt><trkpt lat="45.6095482" lon="11.4022353"><ele>374.0</ele><time>2026-04-26T07:37:56.791Z</time></trkpt><trkpt lat="45.6096069" lon="11.4021671"><ele>374.0</ele><time>2026-04-26T07:38:01.792Z</time></trkpt><trkpt lat="45.6096536" lon="11.4021033"><ele>374.0</ele><time>2026-04-26T07:38:05.792Z</time></trkpt><trkpt lat="45.6097158" lon="11.4020389"><ele>374.7142857142857</ele><time>2026-04-26T07:38:10.791Z</time></trkpt><trkpt lat="45.6097591" lon="11.4019539"><ele>375.42857142857144</ele><time>2026-04-26T07:38:14.792Z</time></trkpt><trkpt lat="45.6098017" lon="11.4018692"><ele>376.14285714285717</ele><time>2026-04-26T07:38:18.792Z</time></trkpt><trkpt lat="45.6098452" lon="11.4017993"><ele>376.8571428571429</ele><time>2026-04-26T07:38:23.791Z</time></trkpt><trkpt lat="45.6098885" lon="11.4017234"><ele>377.57142857142856</ele><time>2026-04-26T07:38:26.792Z</time></trkpt><trkpt lat="45.6099327" lon="11.4016463"><ele>378.28571428571433</ele><time>2026-04-26T07:38:29.792Z</time></trkpt><trkpt lat="45.6099884" lon="11.4015661"><ele>379.0</ele><time>2026-04-26T07:38:33.791Z</time></trkpt><trkpt lat="45.6100347" lon="11.4015016"><ele>379.00000000000006</ele><time>2026-04-26T07:38:36.791Z</time></trkpt><trkpt lat="45.6100734" lon="11.4014243"><ele>379.0</ele><time>2026-04-26T07:38:39.792Z</time></trkpt><trkpt lat="45.6101095" lon="11.4013385"><ele>379.0</ele><time>2026-04-26T07:38:42.791Z</time></trkpt><trkpt lat="45.6101544" lon="11.4012393"><ele>379.0</ele><time>2026-04-26T07:38:46.791Z</time></trkpt><trkpt lat="45.6102035" lon="11.4011472"><ele>379.0</ele><time>2026-04-26T07:38:49.791Z</time></trkpt><trkpt lat="45.6102459" lon="11.4010633"><ele>379.00000000000006</ele><time>2026-04-26T07:38:52.792Z</time></trkpt><trkpt lat="45.6102995" lon="11.4009907"><ele>379.0</ele><time>2026-04-26T07:38:56.792Z</time></trkpt><trkpt lat="45.6103499" lon="11.4009089"><ele>381.00000000000006</ele><time>2026-04-26T07:39:00.791Z</time></trkpt><trkpt lat="45.6103882" lon="11.4008296"><ele>383.0</ele><time>2026-04-26T07:39:03.791Z</time></trkpt><trkpt lat="45.6104289" lon="11.4007589"><ele>385.0</ele><time>2026-04-26T07:39:06.791Z</time></trkpt><trkpt lat="45.6104843" lon="11.4006827"><ele>387.0</ele><time>2026-04-26T07:39:10.791Z</time></trkpt><trkpt lat="45.6105368" lon="11.4005919"><ele>389.0</ele><time>2026-04-26T07:39:14.789Z</time></trkpt><trkpt lat="45.6106018" lon="11.4005205"><ele>391.00000000000006</ele><time>2026-04-26T07:39:18.791Z</time></trkpt><trkpt lat="45.6106589" lon="11.4004736"><ele>393.0</ele><time>2026-04-26T07:39:22.79Z</time></trkpt><trkpt lat="45.6107299" lon="11.4004453"><ele>393.14285714285717</ele><time>2026-04-26T07:39:28.79Z</time></trkpt><trkpt lat="45.6108056" lon="11.4004259"><ele>393.2857142857143</ele><time>2026-04-26T07:39:34.79Z</time></trkpt><trkpt lat="45.6108724" lon="11.4003844"><ele>393.42857142857144</ele><time>2026-04-26T07:39:39.791Z</time></trkpt><trkpt lat="45.6109301" lon="11.400345"><ele>393.57142857142856</ele><time>2026-04-26T07:39:43.79Z</time></trkpt><trkpt lat="45.6109897" lon="11.4003005"><ele>393.7142857142857</ele><time>2026-04-26T07:39:49.79Z</time></trkpt><trkpt lat="45.6110322" lon="11.4002132"><ele>393.8571428571429</ele><time>2026-04-26T07:39:55.79Z</time></trkpt><trkpt lat="45.6110606" lon="11.4001187"><ele>394.0</ele><time>2026-04-26T07:40:00.791Z</time></trkpt><trkpt lat="45.6110821" lon="11.4000195"><ele>394.00000000000006</ele><time>2026-04-26T07:40:05.79Z</time></trkpt><trkpt lat="45.6110963" lon="11.3999196"><ele>394.0</ele><time>2026-04-26T07:40:09.791Z</time></trkpt><trkpt lat="45.6111129" lon="11.3998156"><ele>394.0</ele><time>2026-04-26T07:40:12.79Z</time></trkpt><trkpt lat="45.6111381" lon="11.3997059"><ele>394.0</ele><time>2026-04-26T07:40:15.791Z</time></trkpt><trkpt lat="45.6111734" lon="11.3996125"><ele>394.00000000000006</ele><time>2026-04-26T07:40:18.791Z</time></trkpt><trkpt lat="45.6111915" lon="11.3995116"><ele>394.0</ele><time>2026-04-26T07:40:21.789Z</time></trkpt><trkpt lat="45.611205" lon="11.3993807"><ele>395.00000000000006</ele><time>2026-04-26T07:40:24.79Z</time></trkpt><trkpt lat="45.6112035" lon="11.3992476"><ele>396.0</ele><time>2026-04-26T07:40:27.791Z</time></trkpt><trkpt lat="45.6112067" lon="11.3991312"><ele>397.0</ele><time>2026-04-26T07:40:30.791Z</time></trkpt><trkpt lat="45.6111953" lon="11.3990014"><ele>398.0</ele><time>2026-04-26T07:40:33.79Z</time></trkpt><trkpt lat="45.6111632" lon="11.3988838"><ele>399.00000000000006</ele><time>2026-04-26T07:40:36.79Z</time></trkpt><trkpt lat="45.6111291" lon="11.3987617"><ele>400.0</ele><time>2026-04-26T07:40:39.789Z</time></trkpt><trkpt lat="45.611101" lon="11.3986592"><ele>400.00000000000006</ele><time>2026-04-26T07:40:42.791Z</time></trkpt><trkpt lat="45.6110679" lon="11.3985523"><ele>400.0</ele><time>2026-04-26T07:40:45.791Z</time></trkpt><trkpt lat="45.61103" lon="11.3984473"><ele>400.0</ele><time>2026-04-26T07:40:48.791Z</time></trkpt><trkpt lat="45.6110008" lon="11.398338"><ele>400.0</ele><time>2026-04-26T07:40:51.79Z</time></trkpt><trkpt lat="45.6109891" lon="11.3982245"><ele>400.00000000000006</ele><time>2026-04-26T07:40:54.791Z</time></trkpt><trkpt lat="45.6109796" lon="11.3981087"><ele>400.0</ele><time>2026-04-26T07:40:57.791Z</time></trkpt><trkpt lat="45.6109605" lon="11.3980008"><ele>401.33333333333337</ele><time>2026-04-26T07:41:00.79Z</time></trkpt><trkpt lat="45.6109423" lon="11.3978847"><ele>402.6666666666667</ele><time>2026-04-26T07:41:03.79Z</time></trkpt><trkpt lat="45.610911" lon="11.3977678"><ele>404.0</ele><time>2026-04-26T07:41:06.79Z</time></trkpt><trkpt lat="45.6108735" lon="11.3976472"><ele>405.33333333333337</ele><time>2026-04-26T07:41:09.79Z</time></trkpt><trkpt lat="45.610842" lon="11.3975209"><ele>406.6666666666667</ele><time>2026-04-26T07:41:12.791Z</time></trkpt><trkpt lat="45.6108109" lon="11.3974037"><ele>408.0</ele><time>2026-04-26T07:41:15.79Z</time></trkpt><trkpt lat="45.6107616" lon="11.3973158"><ele>408.0</ele><time>2026-04-26T07:41:18.791Z</time></trkpt><trkpt lat="45.6107274" lon="11.3972096"><ele>408.0</ele><time>2026-04-26T07:41:21.79Z</time></trkpt><trkpt lat="45.6106787" lon="11.3971192"><ele>408.0</ele><time>2026-04-26T07:41:24.791Z</time></trkpt><trkpt lat="45.6106263" lon="11.3970105"><ele>408.0</ele><time>2026-04-26T07:41:27.791Z</time></trkpt><trkpt lat="45.6105787" lon="11.396911"><ele>408.0</ele><time>2026-04-26T07:41:30.79Z</time></trkpt><trkpt lat="45.6105236" lon="11.396821"><ele>408.0</ele><time>2026-04-26T07:41:33.79Z</time></trkpt><trkpt lat="45.6105618" lon="11.3967204"><ele>407.59999999999997</ele><time>2026-04-26T07:41:37.791Z</time></trkpt><trkpt lat="45.6106406" lon="11.3966991"><ele>407.2</ele><time>2026-04-26T07:41:39.79Z</time></trkpt><trkpt lat="45.6107277" lon="11.3966888"><ele>406.8</ele><time>2026-04-26T07:41:41.79Z</time></trkpt><trkpt lat="45.6108064" lon="11.3967686"><ele>406.4</ele><time>2026-04-26T07:41:44.79Z</time></trkpt><trkpt lat="45.6108909" lon="11.3968496"><ele>406.0</ele><time>2026-04-26T07:41:46.791Z</time></trkpt><trkpt lat="45.6109595" lon="11.3969194"><ele>406.0</ele><time>2026-04-26T07:41:48.79Z</time></trkpt><trkpt lat="45.6110074" lon="11.39699"><ele>406.0</ele><time>2026-04-26T07:41:50.791Z</time></trkpt><trkpt lat="45.6110447" lon="11.397064"><ele>406.0</ele><time>2026-04-26T07:41:52.791Z</time></trkpt><trkpt lat="45.611096" lon="11.3971464"><ele>406.0</ele><time>2026-04-26T07:41:54.79Z</time></trkpt><trkpt lat="45.611145" lon="11.3972068"><ele>406.0</ele><time>2026-04-26T07:41:56.791Z</time></trkpt><trkpt lat="45.6111897" lon="11.3972737"><ele>406.0</ele><time>2026-04-26T07:41:58.79Z</time></trkpt><trkpt lat="45.6112322" lon="11.3973464"><ele>406.0</ele><time>2026-04-26T07:42:00.791Z</time></trkpt><trkpt lat="45.6112955" lon="11.3974468"><ele>407.14285714285717</ele><time>2026-04-26T07:42:03.79Z</time></trkpt><trkpt lat="45.6113473" lon="11.397546"><ele>408.2857142857143</ele><time>2026-04-26T07:42:06.791Z</time></trkpt><trkpt lat="45.6113791" lon="11.3976243"><ele>409.42857142857144</ele><time>2026-04-26T07:42:08.79Z</time></trkpt><trkpt lat="45.6114174" lon="11.397701"><ele>410.57142857142856</ele><time>2026-04-26T07:42:10.79Z</time></trkpt><trkpt lat="45.6114562" lon="11.3977813"><ele>411.7142857142857</ele><time>2026-04-26T07:42:12.79Z</time></trkpt><trkpt lat="45.6114952" lon="11.3978638"><ele>412.8571428571429</ele><time>2026-04-26T07:42:14.791Z</time></trkpt><trkpt lat="45.6115444" lon="11.3979707"><ele>414.0</ele><time>2026-04-26T07:42:17.791Z</time></trkpt><trkpt lat="45.6116002" lon="11.3980635"><ele>414.5</ele><time>2026-04-26T07:42:20.79Z</time></trkpt><trkpt lat="45.6116718" lon="11.3981493"><ele>415.0</ele><time>2026-04-26T07:42:23.791Z</time></trkpt><trkpt lat="45.6117264" lon="11.3982064"><ele>415.5</ele><time>2026-04-26T07:42:25.79Z</time></trkpt><trkpt lat="45.6117891" lon="11.3982352"><ele>416.0</ele><time>2026-04-26T07:42:27.79Z</time></trkpt><trkpt lat="45.6118721" lon="11.3982461"><ele>416.5</ele><time>2026-04-26T07:42:29.79Z</time></trkpt><trkpt lat="45.6119882" lon="11.3982307"><ele>417.0</ele><time>2026-04-26T07:42:32.79Z</time></trkpt><trkpt lat="45.6120716" lon="11.3982178"><ele>417.75</ele><time>2026-04-26T07:42:35.791Z</time></trkpt><trkpt lat="45.612219" lon="11.3982141"><ele>418.5</ele><time>2026-04-26T07:42:41.79Z</time></trkpt><trkpt lat="45.6123046" lon="11.3981952"><ele>419.25</ele><time>2026-04-26T07:42:44.79Z</time></trkpt><trkpt lat="45.6123993" lon="11.3981758"><ele>420.0</ele><time>2026-04-26T07:42:47.79Z</time></trkpt><trkpt lat="45.6128674" lon="11.398211"><ele>420.6</ele><time>2026-04-26T07:43:04.927Z</time></trkpt><trkpt lat="45.6129622" lon="11.3982296"><ele>421.2</ele><time>2026-04-26T07:43:06.791Z</time></trkpt><trkpt lat="45.6130696" lon="11.3982494"><ele>421.79999999999995</ele><time>2026-04-26T07:43:09.791Z</time></trkpt><trkpt lat="45.6131383" lon="11.398294"><ele>422.4</ele><time>2026-04-26T07:43:11.791Z</time></trkpt><trkpt lat="45.6132254" lon="11.3983133"><ele>423.0</ele><time>2026-04-26T07:43:14.792Z</time></trkpt><trkpt lat="45.6133192" lon="11.3983372"><ele>423.0</ele><time>2026-04-26T07:43:16.79Z</time></trkpt><trkpt lat="45.6133901" lon="11.3983388"><ele>423.0</ele><time>2026-04-26T07:43:18.791Z</time></trkpt><trkpt lat="45.6134841" lon="11.3983311"><ele>423.0</ele><time>2026-04-26T07:43:20.792Z</time></trkpt><trkpt lat="45.6135637" lon="11.3983266"><ele>423.0</ele><time>2026-04-26T07:43:22.792Z</time></trkpt><trkpt lat="45.613632" lon="11.3983114"><ele>423.0</ele><time>2026-04-26T07:43:24.791Z</time></trkpt><trkpt lat="45.6137012" lon="11.3983083"><ele>423.0</ele><time>2026-04-26T07:43:26.792Z</time></trkpt><trkpt lat="45.6137771" lon="11.3983262"><ele>422.4</ele><time>2026-04-26T07:43:28.792Z</time></trkpt><trkpt lat="45.6138875" lon="11.3983514"><ele>421.79999999999995</ele><time>2026-04-26T07:43:30.792Z</time></trkpt><trkpt lat="45.6139523" lon="11.3983532"><ele>421.2</ele><time>2026-04-26T07:43:31.791Z</time></trkpt><trkpt lat="45.6140154" lon="11.3983528"><ele>420.6</ele><time>2026-04-26T07:43:32.792Z</time></trkpt><trkpt lat="45.6141349" lon="11.3983357"><ele>420.0</ele><time>2026-04-26T07:43:34.791Z</time></trkpt><trkpt lat="45.61425" lon="11.3982958"><ele>420.0</ele><time>2026-04-26T07:43:36.791Z</time></trkpt><trkpt lat="45.6143435" lon="11.3982504"><ele>420.0</ele><time>2026-04-26T07:43:38.79Z</time></trkpt><trkpt lat="45.6144236" lon="11.3982101"><ele>420.0</ele><time>2026-04-26T07:43:40.791Z</time></trkpt><trkpt lat="45.6145114" lon="11.3981656"><ele>420.0</ele><time>2026-04-26T07:43:42.791Z</time></trkpt><trkpt lat="45.6145718" lon="11.3981355"><ele>420.0</ele><time>2026-04-26T07:43:44.792Z</time></trkpt><trkpt lat="45.614636" lon="11.3981088"><ele>420.0</ele><time>2026-04-26T07:43:47.792Z</time></trkpt><trkpt lat="45.6147085" lon="11.3980567"><ele>420.3333333333333</ele><time>2026-04-26T07:43:50.791Z</time></trkpt><trkpt lat="45.614771" lon="11.3980246"><ele>420.66666666666663</ele><time>2026-04-26T07:43:52.791Z</time></trkpt><trkpt lat="45.6148495" lon="11.3980005"><ele>421.0</ele><time>2026-04-26T07:43:54.791Z</time></trkpt><trkpt lat="45.6149251" lon="11.3979764"><ele>421.3333333333333</ele><time>2026-04-26T07:43:56.791Z</time></trkpt><trkpt lat="45.6150025" lon="11.3979477"><ele>421.66666666666663</ele><time>2026-04-26T07:43:58.792Z</time></trkpt><trkpt lat="45.6150892" lon="11.3979105"><ele>422.0</ele><time>2026-04-26T07:44:00.791Z</time></trkpt><trkpt lat="45.6151956" lon="11.397866"><ele>422.40000000000003</ele><time>2026-04-26T07:44:02.791Z</time></trkpt><trkpt lat="45.6152868" lon="11.3978105"><ele>422.8</ele><time>2026-04-26T07:44:04.792Z</time></trkpt><trkpt lat="45.6153801" lon="11.3977546"><ele>423.2</ele><time>2026-04-26T07:44:06.791Z</time></trkpt><trkpt lat="45.6154771" lon="11.397712"><ele>423.6</ele><time>2026-04-26T07:44:08.791Z</time></trkpt><trkpt lat="45.6155645" lon="11.3976774"><ele>424.0</ele><time>2026-04-26T07:44:10.791Z</time></trkpt><trkpt lat="45.6156497" lon="11.3976424"><ele>424.0</ele><time>2026-04-26T07:44:12.791Z</time></trkpt><trkpt lat="45.6157406" lon="11.3975896"><ele>424.0</ele><time>2026-04-26T07:44:14.792Z</time></trkpt><trkpt lat="45.6158203" lon="11.3975322"><ele>424.0</ele><time>2026-04-26T07:44:16.791Z</time></trkpt><trkpt lat="45.6159031" lon="11.3974868"><ele>424.0</ele><time>2026-04-26T07:44:18.79Z</time></trkpt><trkpt lat="45.6160107" lon="11.3974281"><ele>424.0</ele><time>2026-04-26T07:44:20.791Z</time></trkpt><trkpt lat="45.616108" lon="11.3973673"><ele>424.2</ele><time>2026-04-26T07:44:22.791Z</time></trkpt><trkpt lat="45.6161872" lon="11.3973195"><ele>424.4</ele><time>2026-04-26T07:44:24.791Z</time></trkpt><trkpt lat="45.616261" lon="11.3972806"><ele>424.6</ele><time>2026-04-26T07:44:26.791Z</time></trkpt><trkpt lat="45.6163522" lon="11.3971907"><ele>424.8</ele><time>2026-04-26T07:44:28.792Z</time></trkpt><trkpt lat="45.6164279" lon="11.3970636"><ele>425.0</ele><time>2026-04-26T07:44:30.792Z</time></trkpt><trkpt lat="45.6165096" lon="11.3968776"><ele>425.2</ele><time>2026-04-26T07:44:32.791Z</time></trkpt><trkpt lat="45.616552" lon="11.3967609"><ele>425.4</ele><time>2026-04-26T07:44:34.792Z</time></trkpt><trkpt lat="45.6165748" lon="11.3966024"><ele>425.6</ele><time>2026-04-26T07:44:36.791Z</time></trkpt><trkpt lat="45.6166099" lon="11.396433"><ele>425.8</ele><time>2026-04-26T07:44:38.791Z</time></trkpt><trkpt lat="45.6166596" lon="11.3963565"><ele>426.0</ele><time>2026-04-26T07:44:39.792Z</time></trkpt><trkpt lat="45.616723" lon="11.3962164"><ele>425.3333333333333</ele><time>2026-04-26T07:44:41.791Z</time></trkpt><trkpt lat="45.6167771" lon="11.3961144"><ele>424.66666666666663</ele><time>2026-04-26T07:44:43.79Z</time></trkpt><trkpt lat="45.6168553" lon="11.3960717"><ele>424.0</ele><time>2026-04-26T07:44:44.792Z</time></trkpt><trkpt lat="45.6169377" lon="11.3960265"><ele>423.3333333333333</ele><time>2026-04-26T07:44:45.791Z</time></trkpt><trkpt lat="45.6170122" lon="11.3959799"><ele>422.66666666666663</ele><time>2026-04-26T07:44:46.791Z</time></trkpt><trkpt lat="45.6171096" lon="11.3959771"><ele>422.0</ele><time>2026-04-26T07:44:47.792Z</time></trkpt><trkpt lat="45.6171753" lon="11.395965"><ele>422.0</ele><time>2026-04-26T07:44:48.791Z</time></trkpt><trkpt lat="45.6172428" lon="11.3959401"><ele>422.0</ele><time>2026-04-26T07:44:49.792Z</time></trkpt><trkpt lat="45.6173132" lon="11.3959461"><ele>422.0</ele><time>2026-04-26T07:44:50.792Z</time></trkpt><trkpt lat="45.6173718" lon="11.3958587"><ele>422.0</ele><time>2026-04-26T07:44:51.791Z</time></trkpt><trkpt lat="45.6174324" lon="11.3958213"><ele>422.0</ele><time>2026-04-26T07:44:52.791Z</time></trkpt><trkpt lat="45.6174962" lon="11.3957467"><ele>422.0</ele><time>2026-04-26T07:44:53.791Z</time></trkpt><trkpt lat="45.6175565" lon="11.3957161"><ele>422.0</ele><time>2026-04-26T07:44:54.792Z</time></trkpt><trkpt lat="45.6176404" lon="11.3956211"><ele>422.0</ele><time>2026-04-26T07:44:55.792Z</time></trkpt><trkpt lat="45.6177301" lon="11.3955228"><ele>422.0</ele><time>2026-04-26T07:44:57.791Z</time></trkpt><trkpt lat="45.6178123" lon="11.395405"><ele>422.0</ele><time>2026-04-26T07:44:58.792Z</time></trkpt><trkpt lat="45.6179847" lon="11.3952612"><ele>422.0</ele><time>2026-04-26T07:45:00.792Z</time></trkpt><trkpt lat="45.6180558" lon="11.395183"><ele>418.25</ele><time>2026-04-26T07:45:01.791Z</time></trkpt><trkpt lat="45.6181281" lon="11.3951117"><ele>414.5</ele><time>2026-04-26T07:45:02.791Z</time></trkpt><trkpt lat="45.6182133" lon="11.395003"><ele>410.75</ele><time>2026-04-26T07:45:03.791Z</time></trkpt><trkpt lat="45.6182918" lon="11.3948701"><ele>407.0</ele><time>2026-04-26T07:45:04.79Z</time></trkpt><trkpt lat="45.6184195" lon="11.3947353"><ele>406.75</ele><time>2026-04-26T07:45:05.792Z</time></trkpt><trkpt lat="45.6185384" lon="11.3946699"><ele>406.5</ele><time>2026-04-26T07:45:06.791Z</time></trkpt><trkpt lat="45.6186496" lon="11.3946179"><ele>406.25</ele><time>2026-04-26T07:45:07.792Z</time></trkpt><trkpt lat="45.6187649" lon="11.3945439"><ele>406.0</ele><time>2026-04-26T07:45:08.791Z</time></trkpt><trkpt lat="45.618864" lon="11.3945064"><ele>406.0</ele><time>2026-04-26T07:45:09.791Z</time></trkpt><trkpt lat="45.6189637" lon="11.3944505"><ele>406.0</ele><time>2026-04-26T07:45:10.791Z</time></trkpt><trkpt lat="45.6190576" lon="11.3943556"><ele>406.0</ele><time>2026-04-26T07:45:11.791Z</time></trkpt><trkpt lat="45.6191461" lon="11.3942678"><ele>406.0</ele><time>2026-04-26T07:45:12.791Z</time></trkpt><trkpt lat="45.6192504" lon="11.394163"><ele>406.0</ele><time>2026-04-26T07:45:13.791Z</time></trkpt><trkpt lat="45.6193578" lon="11.3940638"><ele>406.0</ele><time>2026-04-26T07:45:14.791Z</time></trkpt><trkpt lat="45.6194477" lon="11.3939657"><ele>406.0</ele><time>2026-04-26T07:45:15.792Z</time></trkpt><trkpt lat="45.6195336" lon="11.3938803"><ele>406.0</ele><time>2026-04-26T07:45:16.79Z</time></trkpt><trkpt lat="45.6196093" lon="11.3938014"><ele>406.0</ele><time>2026-04-26T07:45:17.791Z</time></trkpt><trkpt lat="45.6196895" lon="11.3937023"><ele>405.8</ele><time>2026-04-26T07:45:18.79Z</time></trkpt><trkpt lat="45.6197806" lon="11.3936119"><ele>405.6</ele><time>2026-04-26T07:45:19.791Z</time></trkpt><trkpt lat="45.6198811" lon="11.3935122"><ele>405.4</ele><time>2026-04-26T07:45:20.79Z</time></trkpt><trkpt lat="45.6199592" lon="11.3934316"><ele>405.2</ele><time>2026-04-26T07:45:21.79Z</time></trkpt><trkpt lat="45.6200389" lon="11.3933297"><ele>405.0</ele><time>2026-04-26T07:45:22.79Z</time></trkpt><trkpt lat="45.620132" lon="11.3932834"><ele>405.0</ele><time>2026-04-26T07:45:23.789Z</time></trkpt><trkpt lat="45.6202176" lon="11.3932313"><ele>405.0</ele><time>2026-04-26T07:45:24.791Z</time></trkpt><trkpt lat="45.6203098" lon="11.3931626"><ele>405.0</ele><time>2026-04-26T07:45:25.79Z</time></trkpt><trkpt lat="45.620421" lon="11.3930784"><ele>405.0</ele><time>2026-04-26T07:45:26.79Z</time></trkpt><trkpt lat="45.6205424" lon="11.3930766"><ele>405.0</ele><time>2026-04-26T07:45:27.791Z</time></trkpt><trkpt lat="45.6206495" lon="11.3930884"><ele>401.75</ele><time>2026-04-26T07:45:28.79Z</time></trkpt><trkpt lat="45.620809" lon="11.3930783"><ele>398.5</ele><time>2026-04-26T07:45:29.791Z</time></trkpt><trkpt lat="45.6209112" lon="11.3930491"><ele>395.25</ele><time>2026-04-26T07:45:30.79Z</time></trkpt><trkpt lat="45.6209602" lon="11.3931431"><ele>392.0</ele><time>2026-04-26T07:45:31.79Z</time></trkpt><trkpt lat="45.6210635" lon="11.3931177"><ele>387.25</ele><time>2026-04-26T07:45:32.791Z</time></trkpt><trkpt lat="45.6211856" lon="11.3930818"><ele>382.5</ele><time>2026-04-26T07:45:33.791Z</time></trkpt><trkpt lat="45.6213062" lon="11.3930827"><ele>377.75</ele><time>2026-04-26T07:45:34.79Z</time></trkpt><trkpt lat="45.6214198" lon="11.3930642"><ele>373.0</ele><time>2026-04-26T07:45:35.79Z</time></trkpt><trkpt lat="45.6215368" lon="11.3930264"><ele>373.0</ele><time>2026-04-26T07:45:36.79Z</time></trkpt><trkpt lat="45.6216339" lon="11.3930288"><ele>373.0</ele><time>2026-04-26T07:45:37.79Z</time></trkpt><trkpt lat="45.6217576" lon="11.393017"><ele>373.0</ele><time>2026-04-26T07:45:38.792Z</time></trkpt><trkpt lat="45.6218786" lon="11.392976"><ele>373.0</ele><time>2026-04-26T07:45:39.79Z</time></trkpt><trkpt lat="45.621955" lon="11.3929198"><ele>373.0</ele><time>2026-04-26T07:45:40.791Z</time></trkpt><trkpt lat="45.6220617" lon="11.3928347"><ele>375.75</ele><time>2026-04-26T07:45:41.79Z</time></trkpt><trkpt lat="45.6221746" lon="11.3927538"><ele>378.5</ele><time>2026-04-26T07:45:42.79Z</time></trkpt><trkpt lat="45.6222843" lon="11.3926501"><ele>381.25</ele><time>2026-04-26T07:45:43.79Z</time></trkpt><trkpt lat="45.6223906" lon="11.3925973"><ele>384.0</ele><time>2026-04-26T07:45:44.79Z</time></trkpt><trkpt lat="45.6224971" lon="11.392512"><ele>384.0</ele><time>2026-04-26T07:45:45.791Z</time></trkpt><trkpt lat="45.6225984" lon="11.392441"><ele>384.0</ele><time>2026-04-26T07:45:46.791Z</time></trkpt><trkpt lat="45.6227067" lon="11.39234"><ele>384.0</ele><time>2026-04-26T07:45:47.791Z</time></trkpt><trkpt lat="45.6227997" lon="11.3922733"><ele>384.0</ele><time>2026-04-26T07:45:48.79Z</time></trkpt><trkpt lat="45.6228823" lon="11.3922408"><ele>384.0</ele><time>2026-04-26T07:45:49.791Z</time></trkpt><trkpt lat="45.6229613" lon="11.3921946"><ele>382.0</ele><time>2026-04-26T07:45:50.791Z</time></trkpt><trkpt lat="45.623051" lon="11.3921128"><ele>380.0</ele><time>2026-04-26T07:45:51.79Z</time></trkpt><trkpt lat="45.6231412" lon="11.3919773"><ele>378.0</ele><time>2026-04-26T07:45:52.79Z</time></trkpt><trkpt lat="45.6232305" lon="11.391919"><ele>376.0</ele><time>2026-04-26T07:45:53.791Z</time></trkpt><trkpt lat="45.6232988" lon="11.3918728"><ele>374.0</ele><time>2026-04-26T07:45:54.79Z</time></trkpt><trkpt lat="45.6233528" lon="11.3917199"><ele>374.0</ele><time>2026-04-26T07:45:55.791Z</time></trkpt><trkpt lat="45.6234207" lon="11.391582"><ele>374.0</ele><time>2026-04-26T07:45:56.791Z</time></trkpt><trkpt lat="45.6234051" lon="11.3914303"><ele>374.0</ele><time>2026-04-26T07:45:57.79Z</time></trkpt><trkpt lat="45.6234193" lon="11.3912543"><ele>374.0</ele><time>2026-04-26T07:45:58.79Z</time></trkpt><trkpt lat="45.6234336" lon="11.3910985"><ele>378.25</ele><time>2026-04-26T07:45:59.791Z</time></trkpt><trkpt lat="45.6234634" lon="11.3909368"><ele>382.5</ele><time>2026-04-26T07:46:00.79Z</time></trkpt><trkpt lat="45.6235049" lon="11.390779"><ele>386.75</ele><time>2026-04-26T07:46:01.791Z</time></trkpt><trkpt lat="45.623544" lon="11.3906115"><ele>391.0</ele><time>2026-04-26T07:46:02.79Z</time></trkpt><trkpt lat="45.6236099" lon="11.3904767"><ele>383.4</ele><time>2026-04-26T07:46:03.791Z</time></trkpt><trkpt lat="45.6236529" lon="11.3903781"><ele>375.8</ele><time>2026-04-26T07:46:04.79Z</time></trkpt><trkpt lat="45.6237237" lon="11.3902318"><ele>368.2</ele><time>2026-04-26T07:46:05.791Z</time></trkpt><trkpt lat="45.6238158" lon="11.3901284"><ele>360.59999999999997</ele><time>2026-04-26T07:46:06.791Z</time></trkpt><trkpt lat="45.6238976" lon="11.3900064"><ele>353.0</ele><time>2026-04-26T07:46:07.79Z</time></trkpt><trkpt lat="45.6239767" lon="11.3898527"><ele>353.0</ele><time>2026-04-26T07:46:08.79Z</time></trkpt><trkpt lat="45.6240517" lon="11.3897915"><ele>353.0</ele><time>2026-04-26T07:46:09.791Z</time></trkpt><trkpt lat="45.6241139" lon="11.3896515"><ele>353.0</ele><time>2026-04-26T07:46:10.79Z</time></trkpt><trkpt lat="45.6242014" lon="11.389535"><ele>353.0</ele><time>2026-04-26T07:46:11.79Z</time></trkpt><trkpt lat="45.6242736" lon="11.3894214"><ele>353.0</ele><time>2026-04-26T07:46:12.79Z</time></trkpt><trkpt lat="45.6243578" lon="11.3893315"><ele>351.59999999999997</ele><time>2026-04-26T07:46:13.79Z</time></trkpt><trkpt lat="45.6244438" lon="11.3892033"><ele>350.2</ele><time>2026-04-26T07:46:14.79Z</time></trkpt><trkpt lat="45.6245249" lon="11.3891257"><ele>348.8</ele><time>2026-04-26T07:46:15.79Z</time></trkpt><trkpt lat="45.6246121" lon="11.3890458"><ele>347.4</ele><time>2026-04-26T07:46:16.79Z</time></trkpt><trkpt lat="45.6247062" lon="11.3889676"><ele>346.0</ele><time>2026-04-26T07:46:17.791Z</time></trkpt><trkpt lat="45.624793" lon="11.3888603"><ele>353.0</ele><time>2026-04-26T07:46:18.79Z</time></trkpt><trkpt lat="45.6248868" lon="11.3887883"><ele>360.0</ele><time>2026-04-26T07:46:19.791Z</time></trkpt><trkpt lat="45.6249982" lon="11.3887279"><ele>367.0</ele><time>2026-04-26T07:46:20.791Z</time></trkpt><trkpt lat="45.6250875" lon="11.3887017"><ele>374.0</ele><time>2026-04-26T07:46:21.79Z</time></trkpt><trkpt lat="45.6251807" lon="11.3886752"><ele>381.0</ele><time>2026-04-26T07:46:22.791Z</time></trkpt><trkpt lat="45.6253147" lon="11.3886009"><ele>381.0</ele><time>2026-04-26T07:46:23.79Z</time></trkpt><trkpt lat="45.6253853" lon="11.388623"><ele>381.0</ele><time>2026-04-26T07:46:24.79Z</time></trkpt><trkpt lat="45.6254916" lon="11.3886301"><ele>381.0</ele><time>2026-04-26T07:46:25.791Z</time></trkpt><trkpt lat="45.6255663" lon="11.3887924"><ele>381.0</ele><time>2026-04-26T07:46:26.79Z</time></trkpt><trkpt lat="45.6256783" lon="11.3888439"><ele>381.0</ele><time>2026-04-26T07:46:27.791Z</time></trkpt><trkpt lat="45.6257967" lon="11.3888999"><ele>371.25</ele><time>2026-04-26T07:46:28.79Z</time></trkpt><trkpt lat="45.6259009" lon="11.3889271"><ele>361.5</ele><time>2026-04-26T07:46:29.79Z</time></trkpt><trkpt lat="45.6260198" lon="11.3889305"><ele>351.75</ele><time>2026-04-26T07:46:30.79Z</time></trkpt><trkpt lat="45.6261355" lon="11.3889315"><ele>342.0</ele><time>2026-04-26T07:46:31.79Z</time></trkpt><trkpt lat="45.6262523" lon="11.3889228"><ele>341.8</ele><time>2026-04-26T07:46:32.79Z</time></trkpt><trkpt lat="45.6263629" lon="11.3889301"><ele>341.6</ele><time>2026-04-26T07:46:33.791Z</time></trkpt><trkpt lat="45.6264604" lon="11.3889504"><ele>341.40000000000003</ele><time>2026-04-26T07:46:34.791Z</time></trkpt><trkpt lat="45.6265355" lon="11.3889999"><ele>341.20000000000005</ele><time>2026-04-26T07:46:35.79Z</time></trkpt><trkpt lat="45.626634" lon="11.3890058"><ele>341.0</ele><time>2026-04-26T07:46:36.79Z</time></trkpt><trkpt lat="45.626728" lon="11.3889902"><ele>341.0</ele><time>2026-04-26T07:46:37.791Z</time></trkpt><trkpt lat="45.6268753" lon="11.3889119"><ele>341.0</ele><time>2026-04-26T07:46:38.79Z</time></trkpt><trkpt lat="45.6269649" lon="11.3888296"><ele>341.0</ele><time>2026-04-26T07:46:39.79Z</time></trkpt><trkpt lat="45.6270551" lon="11.3887613"><ele>341.0</ele><time>2026-04-26T07:46:40.791Z</time></trkpt><trkpt lat="45.62714" lon="11.388644"><ele>343.0</ele><time>2026-04-26T07:46:41.79Z</time></trkpt><trkpt lat="45.6272278" lon="11.388535"><ele>345.0</ele><time>2026-04-26T07:46:42.79Z</time></trkpt><trkpt lat="45.627317" lon="11.3884347"><ele>347.0</ele><time>2026-04-26T07:46:43.791Z</time></trkpt><trkpt lat="45.6273922" lon="11.388331"><ele>349.0</ele><time>2026-04-26T07:46:44.79Z</time></trkpt><trkpt lat="45.627476" lon="11.3882222"><ele>351.0</ele><time>2026-04-26T07:46:45.79Z</time></trkpt><trkpt lat="45.6275669" lon="11.3881355"><ele>351.0</ele><time>2026-04-26T07:46:46.79Z</time></trkpt><trkpt lat="45.6276643" lon="11.3880562"><ele>351.0</ele><time>2026-04-26T07:46:47.79Z</time></trkpt><trkpt lat="45.6277644" lon="11.3879974"><ele>351.0</ele><time>2026-04-26T07:46:48.79Z</time></trkpt><trkpt lat="45.6278768" lon="11.387937"><ele>351.0</ele><time>2026-04-26T07:46:49.79Z</time></trkpt><trkpt lat="45.6280185" lon="11.3879143"><ele>352.75</ele><time>2026-04-26T07:46:50.79Z</time></trkpt><trkpt lat="45.6281278" lon="11.3879116"><ele>354.5</ele><time>2026-04-26T07:46:51.791Z</time></trkpt><trkpt lat="45.6282496" lon="11.3878637"><ele>356.25</ele><time>2026-04-26T07:46:52.79Z</time></trkpt><trkpt lat="45.6283561" lon="11.3878418"><ele>358.0</ele><time>2026-04-26T07:46:53.79Z</time></trkpt><trkpt lat="45.6284632" lon="11.3878413"><ele>358.0</ele><time>2026-04-26T07:46:54.791Z</time></trkpt><trkpt lat="45.6285636" lon="11.3878027"><ele>358.0</ele><time>2026-04-26T07:46:55.79Z</time></trkpt><trkpt lat="45.6286458" lon="11.3877419"><ele>358.0</ele><time>2026-04-26T07:46:56.79Z</time></trkpt><trkpt lat="45.6287402" lon="11.3876597"><ele>358.0</ele><time>2026-04-26T07:46:57.79Z</time></trkpt><trkpt lat="45.6288489" lon="11.3875613"><ele>358.0</ele><time>2026-04-26T07:46:58.791Z</time></trkpt><trkpt lat="45.6289484" lon="11.3874817"><ele>358.79999999999995</ele><time>2026-04-26T07:46:59.791Z</time></trkpt><trkpt lat="45.6290424" lon="11.3874115"><ele>359.6</ele><time>2026-04-26T07:47:00.791Z</time></trkpt><trkpt lat="45.6291409" lon="11.3873191"><ele>360.4</ele><time>2026-04-26T07:47:01.791Z</time></trkpt><trkpt lat="45.6292425" lon="11.3872678"><ele>361.20000000000005</ele><time>2026-04-26T07:47:02.79Z</time></trkpt><trkpt lat="45.6293362" lon="11.3872023"><ele>362.0</ele><time>2026-04-26T07:47:03.791Z</time></trkpt><trkpt lat="45.6294298" lon="11.3871097"><ele>349.75</ele><time>2026-04-26T07:47:04.79Z</time></trkpt><trkpt lat="45.6295125" lon="11.3869881"><ele>337.5</ele><time>2026-04-26T07:47:05.79Z</time></trkpt><trkpt lat="45.6296044" lon="11.3868664"><ele>325.25</ele><time>2026-04-26T07:47:06.791Z</time></trkpt><trkpt lat="45.6296905" lon="11.3867438"><ele>313.0</ele><time>2026-04-26T07:47:07.791Z</time></trkpt><trkpt lat="45.6297526" lon="11.3866127"><ele>313.0</ele><time>2026-04-26T07:47:08.791Z</time></trkpt><trkpt lat="45.6298199" lon="11.3864781"><ele>313.0</ele><time>2026-04-26T07:47:09.79Z</time></trkpt><trkpt lat="45.6298806" lon="11.386335"><ele>313.0</ele><time>2026-04-26T07:47:10.791Z</time></trkpt><trkpt lat="45.6299398" lon="11.3861812"><ele>313.0</ele><time>2026-04-26T07:47:11.79Z</time></trkpt><trkpt lat="45.6300016" lon="11.3860445"><ele>318.75</ele><time>2026-04-26T07:47:12.79Z</time></trkpt><trkpt lat="45.6300636" lon="11.3859015"><ele>324.5</ele><time>2026-04-26T07:47:13.791Z</time></trkpt><trkpt lat="45.6301177" lon="11.3857562"><ele>330.25</ele><time>2026-04-26T07:47:14.79Z</time></trkpt><trkpt lat="45.6301665" lon="11.3856192"><ele>336.0</ele><time>2026-04-26T07:47:15.791Z</time></trkpt><trkpt lat="45.6302137" lon="11.3854723"><ele>342.5</ele><time>2026-04-26T07:47:16.789Z</time></trkpt><trkpt lat="45.6302835" lon="11.3853399"><ele>349.0</ele><time>2026-04-26T07:47:17.79Z</time></trkpt><trkpt lat="45.6303345" lon="11.3852071"><ele>355.5</ele><time>2026-04-26T07:47:18.79Z</time></trkpt><trkpt lat="45.6304333" lon="11.3850975"><ele>362.0</ele><time>2026-04-26T07:47:19.791Z</time></trkpt><trkpt lat="45.6305236" lon="11.3850131"><ele>352.0</ele><time>2026-04-26T07:47:20.79Z</time></trkpt><trkpt lat="45.6306208" lon="11.3848949"><ele>342.0</ele><time>2026-04-26T07:47:21.79Z</time></trkpt><trkpt lat="45.6307012" lon="11.3847801"><ele>332.0</ele><time>2026-04-26T07:47:22.79Z</time></trkpt><trkpt lat="45.6308059" lon="11.3846424"><ele>322.0</ele><time>2026-04-26T07:47:23.791Z</time></trkpt><trkpt lat="45.6309183" lon="11.3844846"><ele>322.0</ele><time>2026-04-26T07:47:24.79Z</time></trkpt><trkpt lat="45.6309749" lon="11.3844024"><ele>322.0</ele><time>2026-04-26T07:47:25.791Z</time></trkpt><trkpt lat="45.6310667" lon="11.3843249"><ele>322.0</ele><time>2026-04-26T07:47:26.79Z</time></trkpt><trkpt lat="45.6311568" lon="11.3841958"><ele>322.0</ele><time>2026-04-26T07:47:27.79Z</time></trkpt><trkpt lat="45.6312679" lon="11.3841032"><ele>322.0</ele><time>2026-04-26T07:47:28.79Z</time></trkpt><trkpt lat="45.6313636" lon="11.3840735"><ele>318.5</ele><time>2026-04-26T07:47:29.791Z</time></trkpt><trkpt lat="45.6314606" lon="11.3840221"><ele>315.0</ele><time>2026-04-26T07:47:30.79Z</time></trkpt><trkpt lat="45.6315307" lon="11.3839957"><ele>311.5</ele><time>2026-04-26T07:47:31.79Z</time></trkpt><trkpt lat="45.6316052" lon="11.3839756"><ele>308.0</ele><time>2026-04-26T07:47:32.79Z</time></trkpt><trkpt lat="45.631683" lon="11.3840111"><ele>304.5</ele><time>2026-04-26T07:47:34.791Z</time></trkpt><trkpt lat="45.6315812" lon="11.3840658"><ele>301.0</ele><time>2026-04-26T07:47:35.79Z</time></trkpt><trkpt lat="45.6315182" lon="11.3841712"><ele>301.0</ele><time>2026-04-26T07:47:38.791Z</time></trkpt><trkpt lat="45.6313974" lon="11.3841955"><ele>301.0</ele><time>2026-04-26T07:47:40.79Z</time></trkpt><trkpt lat="45.6313321" lon="11.3842379"><ele>301.0</ele><time>2026-04-26T07:47:41.789Z</time></trkpt><trkpt lat="45.6312849" lon="11.3843018"><ele>301.0</ele><time>2026-04-26T07:47:42.79Z</time></trkpt><trkpt lat="45.6312279" lon="11.3843543"><ele>301.0</ele><time>2026-04-26T07:47:43.79Z</time></trkpt><trkpt lat="45.6311678" lon="11.3843858"><ele>301.0</ele><time>2026-04-26T07:47:44.79Z</time></trkpt><trkpt lat="45.6311133" lon="11.3844523"><ele>301.66666666666663</ele><time>2026-04-26T07:47:45.79Z</time></trkpt><trkpt lat="45.6310348" lon="11.3845107"><ele>302.3333333333333</ele><time>2026-04-26T07:47:46.791Z</time></trkpt><trkpt lat="45.6309705" lon="11.3845849"><ele>303.0</ele><time>2026-04-26T07:47:47.791Z</time></trkpt><trkpt lat="45.6309007" lon="11.3846848"><ele>303.6666666666667</ele><time>2026-04-26T07:47:49.79Z</time></trkpt><trkpt lat="45.6308658" lon="11.3847929"><ele>304.33333333333337</ele><time>2026-04-26T07:47:50.79Z</time></trkpt><trkpt lat="45.6308247" lon="11.3848634"><ele>305.0</ele><time>2026-04-26T07:47:51.79Z</time></trkpt><trkpt lat="45.6308141" lon="11.3849673"><ele>305.0</ele><time>2026-04-26T07:47:52.79Z</time></trkpt><trkpt lat="45.6307698" lon="11.3851307"><ele>305.0</ele><time>2026-04-26T07:47:54.791Z</time></trkpt><trkpt lat="45.6306916" lon="11.3851342"><ele>305.0</ele><time>2026-04-26T07:47:55.79Z</time></trkpt><trkpt lat="45.6305875" lon="11.3852425"><ele>305.0</ele><time>2026-04-26T07:47:56.79Z</time></trkpt><trkpt lat="45.6305067" lon="11.3854209"><ele>305.0</ele><time>2026-04-26T07:47:58.79Z</time></trkpt><trkpt lat="45.6304652" lon="11.385503"><ele>305.0</ele><time>2026-04-26T07:47:59.79Z</time></trkpt><trkpt lat="45.6304612" lon="11.385611"><ele>305.0</ele><time>2026-04-26T07:48:00.791Z</time></trkpt><trkpt lat="45.6304379" lon="11.3857111"><ele>305.0</ele><time>2026-04-26T07:48:01.791Z</time></trkpt><trkpt lat="45.6304143" lon="11.3858343"><ele>305.0</ele><time>2026-04-26T07:48:02.79Z</time></trkpt><trkpt lat="45.6304545" lon="11.3859654"><ele>305.0</ele><time>2026-04-26T07:48:03.79Z</time></trkpt><trkpt lat="45.6304822" lon="11.3861022"><ele>301.25</ele><time>2026-04-26T07:48:04.79Z</time></trkpt><trkpt lat="45.6306138" lon="11.3862536"><ele>297.5</ele><time>2026-04-26T07:48:06.791Z</time></trkpt><trkpt lat="45.6306549" lon="11.3863591"><ele>293.75</ele><time>2026-04-26T07:48:07.79Z</time></trkpt><trkpt lat="45.6307609" lon="11.3864493"><ele>290.0</ele><time>2026-04-26T07:48:09.79Z</time></trkpt><trkpt lat="45.6308141" lon="11.3865281"><ele>290.0</ele><time>2026-04-26T07:48:10.79Z</time></trkpt><trkpt lat="45.6308868" lon="11.386598"><ele>290.0</ele><time>2026-04-26T07:48:11.791Z</time></trkpt><trkpt lat="45.6309536" lon="11.3866928"><ele>290.0</ele><time>2026-04-26T07:48:12.79Z</time></trkpt><trkpt lat="45.6310415" lon="11.386754"><ele>290.0</ele><time>2026-04-26T07:48:13.791Z</time></trkpt><trkpt lat="45.6310701" lon="11.386848"><ele>290.0</ele><time>2026-04-26T07:48:14.79Z</time></trkpt><trkpt lat="45.6311295" lon="11.3869243"><ele>290.0</ele><time>2026-04-26T07:48:15.79Z</time></trkpt><trkpt lat="45.631166" lon="11.3870023"><ele>290.14285714285717</ele><time>2026-04-26T07:48:16.79Z</time></trkpt><trkpt lat="45.6312439" lon="11.3871058"><ele>290.28571428571433</ele><time>2026-04-26T07:48:18.789Z</time></trkpt><trkpt lat="45.63128" lon="11.3871813"><ele>290.42857142857144</ele><time>2026-04-26T07:48:19.79Z</time></trkpt><trkpt lat="45.6312743" lon="11.3872821"><ele>290.57142857142856</ele><time>2026-04-26T07:48:21.79Z</time></trkpt><trkpt lat="45.6312572" lon="11.3873735"><ele>290.71428571428567</ele><time>2026-04-26T07:48:26.791Z</time></trkpt><trkpt lat="45.6312038" lon="11.3874231"><ele>290.85714285714283</ele><time>2026-04-26T07:48:30.791Z</time></trkpt><trkpt lat="45.6311653" lon="11.3875038"><ele>291.0</ele><time>2026-04-26T07:48:34.79Z</time></trkpt><trkpt lat="45.6311351" lon="11.3876119"><ele>290.0</ele><time>2026-04-26T07:48:38.791Z</time></trkpt><trkpt lat="45.6310905" lon="11.3877057"><ele>289.0</ele><time>2026-04-26T07:48:42.79Z</time></trkpt><trkpt lat="45.6310525" lon="11.3878076"><ele>288.0</ele><time>2026-04-26T07:48:47.791Z</time></trkpt><trkpt lat="45.6310386" lon="11.3879217"><ele>287.0</ele><time>2026-04-26T07:48:51.791Z</time></trkpt><trkpt lat="45.6310275" lon="11.3880232"><ele>286.0</ele><time>2026-04-26T07:48:54.79Z</time></trkpt><trkpt lat="45.6310245" lon="11.3881617"><ele>285.0</ele><time>2026-04-26T07:48:57.79Z</time></trkpt><trkpt lat="45.6310409" lon="11.3882895"><ele>284.6666666666667</ele><time>2026-04-26T07:48:59.79Z</time></trkpt><trkpt lat="45.6310473" lon="11.3884039"><ele>284.3333333333333</ele><time>2026-04-26T07:49:01.791Z</time></trkpt><trkpt lat="45.6310382" lon="11.3885124"><ele>284.0</ele><time>2026-04-26T07:49:04.79Z</time></trkpt><trkpt lat="45.6310379" lon="11.3886225"><ele>283.66666666666663</ele><time>2026-04-26T07:49:07.791Z</time></trkpt><trkpt lat="45.6310184" lon="11.38873"><ele>283.3333333333333</ele><time>2026-04-26T07:49:10.79Z</time></trkpt><trkpt lat="45.6310266" lon="11.3888466"><ele>283.0</ele><time>2026-04-26T07:49:14.789Z</time></trkpt><trkpt lat="45.6310135" lon="11.3889628"><ele>283.0</ele><time>2026-04-26T07:49:18.791Z</time></trkpt><trkpt lat="45.6309821" lon="11.3890575"><ele>283.0</ele><time>2026-04-26T07:49:21.791Z</time></trkpt><trkpt lat="45.6309695" lon="11.3891541"><ele>283.0</ele><time>2026-04-26T07:49:24.79Z</time></trkpt><trkpt lat="45.6309955" lon="11.3893016"><ele>283.0</ele><time>2026-04-26T07:49:29.791Z</time></trkpt><trkpt lat="45.6310358" lon="11.3894035"><ele>283.0</ele><time>2026-04-26T07:49:32.79Z</time></trkpt><trkpt lat="45.6310698" lon="11.3894923"><ele>283.0</ele><time>2026-04-26T07:49:35.791Z</time></trkpt><trkpt lat="45.6311016" lon="11.3895862"><ele>284.42857142857144</ele><time>2026-04-26T07:49:38.79Z</time></trkpt><trkpt lat="45.6311411" lon="11.3896607"><ele>285.8571428571429</ele><time>2026-04-26T07:49:41.79Z</time></trkpt><trkpt lat="45.6311812" lon="11.3897558"><ele>287.2857142857143</ele><time>2026-04-26T07:49:45.79Z</time></trkpt><trkpt lat="45.6311899" lon="11.3898467"><ele>288.7142857142857</ele><time>2026-04-26T07:49:48.791Z</time></trkpt><trkpt lat="45.6311764" lon="11.3899418"><ele>290.1428571428571</ele><time>2026-04-26T07:49:52.79Z</time></trkpt><trkpt lat="45.6311291" lon="11.3900225"><ele>291.57142857142856</ele><time>2026-04-26T07:49:59.791Z</time></trkpt><trkpt lat="45.6310645" lon="11.3900604"><ele>293.0</ele><time>2026-04-26T07:50:05.79Z</time></trkpt><trkpt lat="45.6309933" lon="11.3900992"><ele>293.0</ele><time>2026-04-26T07:50:10.791Z</time></trkpt><trkpt lat="45.6309377" lon="11.3901513"><ele>293.0</ele><time>2026-04-26T07:50:14.791Z</time></trkpt><trkpt lat="45.6308762" lon="11.3902098"><ele>293.0</ele><time>2026-04-26T07:50:18.79Z</time></trkpt><trkpt lat="45.6307987" lon="11.3902762"><ele>293.0</ele><time>2026-04-26T07:50:22.791Z</time></trkpt><trkpt lat="45.6302171" lon="11.3912447"><ele>290.0</ele><time>2026-04-26T07:50:57.793Z</time></trkpt><trkpt lat="45.6309536" lon="11.3866928"><ele>290.0</ele><time>2026-04-26T07:48:12.79Z</time></trkpt><trkpt lat="45.6310415" lon="11.386754"><ele>290.0</ele><time>2026-04-26T07:48:13.791Z</time></trkpt><trkpt lat="45.6310701" lon="11.386848"><ele>290.0</ele><time>2026-04-26T07:48:14.79Z</time></trkpt><trkpt lat="45.6311295" lon="11.3869243"><ele>290.0</ele><time>2026-04-26T07:48:15.79Z</time></trkpt><trkpt lat="45.631166" lon="11.3870023"><ele>290.0</ele><time>2026-04-26T07:48:16.79Z</time></trkpt><trkpt lat="45.6312439" lon="11.3871058"><ele>290.0</ele><time>2026-04-26T07:48:18.789Z</time></trkpt><trkpt lat="45.63128" lon="11.3871813"><ele>290.14285714285717</ele><time>2026-04-26T07:48:19.79Z</time></trkpt><trkpt lat="45.6312743" lon="11.3872821"><ele>290.28571428571433</ele><time>2026-04-26T07:48:21.79Z</time></trkpt><trkpt lat="45.6312572" lon="11.3873735"><ele>290.42857142857144</ele><time>2026-04-26T07:48:26.791Z</time></trkpt><trkpt lat="45.6312038" lon="11.3874231"><ele>290.57142857142856</ele><time>2026-04-26T07:48:30.791Z</time></trkpt><trkpt lat="45.6311653" lon="11.3875038"><ele>290.71428571428567</ele><time>2026-04-26T07:48:34.79Z</time></trkpt><trkpt lat="45.6311351" lon="11.3876119"><ele>290.85714285714283</ele><time>2026-04-26T07:48:38.791Z</time></trkpt><trkpt lat="45.6310905" lon="11.3877057"><ele>291.0</ele><time>2026-04-26T07:48:42.79Z</time></trkpt><trkpt lat="45.6310525" lon="11.3878076"><ele>290.0</ele><time>2026-04-26T07:48:47.791Z</time></trkpt><trkpt lat="45.6310386" lon="11.3879217"><ele>289.0</ele><time>2026-04-26T07:48:51.791Z</time></trkpt><trkpt lat="45.6310275" lon="11.3880232"><ele>288.0</ele><time>2026-04-26T07:48:54.79Z</time></trkpt><trkpt lat="45.6310245" lon="11.3881617"><ele>287.0</ele><time>2026-04-26T07:48:57.79Z</time></trkpt><trkpt lat="45.6310409" lon="11.3882895"><ele>286.0</ele><time>2026-04-26T07:48:59.79Z</time></trkpt><trkpt lat="45.6310473" lon="11.3884039"><ele>285.0</ele><time>2026-04-26T07:49:01.791Z</time></trkpt><trkpt lat="45.6310382" lon="11.3885124"><ele>284.6666666666667</ele><time>2026-04-26T07:49:04.79Z</time></trkpt><trkpt lat="45.6310379" lon="11.3886225"><ele>284.3333333333333</ele><time>2026-04-26T07:49:07.791Z</time></trkpt><trkpt lat="45.6310184" lon="11.38873"><ele>284.0</ele><time>2026-04-26T07:49:10.79Z</time></trkpt><trkpt lat="45.6310266" lon="11.3888466"><ele>283.66666666666663</ele><time>2026-04-26T07:49:14.789Z</time></trkpt><trkpt lat="45.6310135" lon="11.3889628"><ele>283.3333333333333</ele><time>2026-04-26T07:49:18.791Z</time></trkpt><trkpt lat="45.6309821" lon="11.3890575"><ele>283.0</ele><time>2026-04-26T07:49:21.791Z</time></trkpt><trkpt lat="45.6309695" lon="11.3891541"><ele>283.0</ele><time>2026-04-26T07:49:24.79Z</time></trkpt><trkpt lat="45.6309955" lon="11.3893016"><ele>283.0</ele><time>2026-04-26T07:49:29.791Z</time></trkpt><trkpt lat="45.6310358" lon="11.3894035"><ele>283.0</ele><time>2026-04-26T07:49:32.79Z</time></trkpt><trkpt lat="45.6310698" lon="11.3894923"><ele>283.0</ele><time>2026-04-26T07:49:35.791Z</time></trkpt><trkpt lat="45.6311016" lon="11.3895862"><ele>283.0</ele><time>2026-04-26T07:49:38.79Z</time></trkpt><trkpt lat="45.6311411" lon="11.3896607"><ele>283.0</ele><time>2026-04-26T07:49:41.79Z</time></trkpt><trkpt lat="45.6311812" lon="11.3897558"><ele>284.42857142857144</ele><time>2026-04-26T07:49:45.79Z</time></trkpt><trkpt lat="45.6311899" lon="11.3898467"><ele>285.8571428571429</ele><time>2026-04-26T07:49:48.791Z</time></trkpt><trkpt lat="45.6311764" lon="11.3899418"><ele>287.2857142857143</ele><time>2026-04-26T07:49:52.79Z</time></trkpt><trkpt lat="45.6311291" lon="11.3900225"><ele>288.7142857142857</ele><time>2026-04-26T07:49:59.791Z</time></trkpt><trkpt lat="45.6310645" lon="11.3900604"><ele>290.1428571428571</ele><time>2026-04-26T07:50:05.79Z</time></trkpt><trkpt lat="45.6309933" lon="11.3900992"><ele>291.57142857142856</ele><time>2026-04-26T07:50:10.791Z</time></trkpt><trkpt lat="45.6309377" lon="11.3901513"><ele>293.0</ele><time>2026-04-26T07:50:14.791Z</time></trkpt><trkpt lat="45.6308762" lon="11.3902098"><ele>293.0</ele><time>2026-04-26T07:50:18.79Z</time></trkpt><trkpt lat="45.6307987" lon="11.3902762"><ele>293.0</ele><time>2026-04-26T07:50:22.791Z</time></trkpt><trkpt lat="45.6302171" lon="11.3912447"><ele>293.4285714285714</ele><time>2026-04-26T07:50:57.793Z</time></trkpt><trkpt lat="45.6301593" lon="11.3912847"><ele>293.85714285714283</ele><time>2026-04-26T07:51:01.791Z</time></trkpt><trkpt lat="45.6301091" lon="11.3913701"><ele>294.2857142857143</ele><time>2026-04-26T07:51:05.792Z</time></trkpt><trkpt lat="45.6300707" lon="11.3914531"><ele>294.71428571428567</ele><time>2026-04-26T07:51:10.791Z</time></trkpt><trkpt lat="45.6300161" lon="11.3915221"><ele>295.1428571428571</ele><time>2026-04-26T07:51:15.791Z</time></trkpt><trkpt lat="45.6299564" lon="11.3915696"><ele>295.57142857142856</ele><time>2026-04-26T07:51:19.792Z</time></trkpt><trkpt lat="45.6299195" lon="11.3916563"><ele>296.0</ele><time>2026-04-26T07:51:22.791Z</time></trkpt><trkpt lat="45.6298773" lon="11.3917259"><ele>299.57142857142856</ele><time>2026-04-26T07:51:25.792Z</time></trkpt><trkpt lat="45.6298143" lon="11.3917981"><ele>303.1428571428571</ele><time>2026-04-26T07:51:28.791Z</time></trkpt><trkpt lat="45.6297421" lon="11.3918313"><ele>306.71428571428567</ele><time>2026-04-26T07:51:31.792Z</time></trkpt><trkpt lat="45.6296765" lon="11.3918643"><ele>310.2857142857143</ele><time>2026-04-26T07:51:34.792Z</time></trkpt><trkpt lat="45.629625" lon="11.3919215"><ele>313.85714285714283</ele><time>2026-04-26T07:51:37.792Z</time></trkpt><trkpt lat="45.6295696" lon="11.3919897"><ele>317.4285714285714</ele><time>2026-04-26T07:51:40.792Z</time></trkpt><trkpt lat="45.6295314" lon="11.3920709"><ele>321.0</ele><time>2026-04-26T07:51:43.791Z</time></trkpt><trkpt lat="45.629512" lon="11.3921676"><ele>318.3333333333333</ele><time>2026-04-26T07:51:46.791Z</time></trkpt><trkpt lat="45.6294779" lon="11.392253"><ele>315.6666666666667</ele><time>2026-04-26T07:51:49.792Z</time></trkpt><trkpt lat="45.6294407" lon="11.3923565"><ele>313.0</ele><time>2026-04-26T07:51:52.791Z</time></trkpt><trkpt lat="45.6294045" lon="11.3924451"><ele>310.33333333333337</ele><time>2026-04-26T07:51:54.791Z</time></trkpt><trkpt lat="45.6293762" lon="11.3925259"><ele>307.6666666666667</ele><time>2026-04-26T07:51:56.792Z</time></trkpt><trkpt lat="45.6293308" lon="11.3926115"><ele>305.0</ele><time>2026-04-26T07:51:59.79Z</time></trkpt><trkpt lat="45.6309536" lon="11.3866928"><ele>302.6666666666667</ele><time>2026-04-26T07:48:12.79Z</time></trkpt><trkpt lat="45.6310415" lon="11.386754"><ele>300.33333333333337</ele><time>2026-04-26T07:48:13.791Z</time></trkpt><trkpt lat="45.6310701" lon="11.386848"><ele>298.0</ele><time>2026-04-26T07:48:14.79Z</time></trkpt><trkpt lat="45.6311295" lon="11.3869243"><ele>295.6666666666667</ele><time>2026-04-26T07:48:15.79Z</time></trkpt><trkpt lat="45.631166" lon="11.3870023"><ele>293.3333333333333</ele><time>2026-04-26T07:48:16.79Z</time></trkpt><trkpt lat="45.6312439" lon="11.3871058"><ele>291.0</ele><time>2026-04-26T07:48:18.789Z</time></trkpt><trkpt lat="45.63128" lon="11.3871813"><ele>291.0</ele><time>2026-04-26T07:48:19.79Z</time></trkpt><trkpt lat="45.6312743" lon="11.3872821"><ele>291.0</ele><time>2026-04-26T07:48:21.79Z</time></trkpt><trkpt lat="45.6312572" lon="11.3873735"><ele>291.0</ele><time>2026-04-26T07:48:26.791Z</time></trkpt><trkpt lat="45.6312038" lon="11.3874231"><ele>291.0</ele><time>2026-04-26T07:48:30.791Z</time></trkpt><trkpt lat="45.6311653" lon="11.3875038"><ele>291.0</ele><time>2026-04-26T07:48:34.79Z</time></trkpt><trkpt lat="45.6311351" lon="11.3876119"><ele>291.0</ele><time>2026-04-26T07:48:38.791Z</time></trkpt><trkpt lat="45.6310905" lon="11.3877057"><ele>291.0</ele><time>2026-04-26T07:48:42.79Z</time></trkpt><trkpt lat="45.6310525" lon="11.3878076"><ele>290.0</ele><time>2026-04-26T07:48:47.791Z</time></trkpt><trkpt lat="45.6310386" lon="11.3879217"><ele>289.0</ele><time>2026-04-26T07:48:51.791Z</time></trkpt><trkpt lat="45.6310275" lon="11.3880232"><ele>288.0</ele><time>2026-04-26T07:48:54.79Z</time></trkpt><trkpt lat="45.6310245" lon="11.3881617"><ele>287.0</ele><time>2026-04-26T07:48:57.79Z</time></trkpt><trkpt lat="45.6310409" lon="11.3882895"><ele>286.0</ele><time>2026-04-26T07:48:59.79Z</time></trkpt><trkpt lat="45.6310473" lon="11.3884039"><ele>285.0</ele><time>2026-04-26T07:49:01.791Z</time></trkpt><trkpt lat="45.6310382" lon="11.3885124"><ele>284.6666666666667</ele><time>2026-04-26T07:49:04.79Z</time></trkpt><trkpt lat="45.6310379" lon="11.3886225"><ele>284.3333333333333</ele><time>2026-04-26T07:49:07.791Z</time></trkpt><trkpt lat="45.6310184" lon="11.38873"><ele>284.0</ele><time>2026-04-26T07:49:10.79Z</time></trkpt><trkpt lat="45.6310266" lon="11.3888466"><ele>283.66666666666663</ele><time>2026-04-26T07:49:14.789Z</time></trkpt><trkpt lat="45.6310135" lon="11.3889628"><ele>283.3333333333333</ele><time>2026-04-26T07:49:18.791Z</time></trkpt><trkpt lat="45.6309821" lon="11.3890575"><ele>283.0</ele><time>2026-04-26T07:49:21.791Z</time></trkpt><trkpt lat="45.6309695" lon="11.3891541"><ele>283.0</ele><time>2026-04-26T07:49:24.79Z</time></trkpt><trkpt lat="45.6309955" lon="11.3893016"><ele>283.0</ele><time>2026-04-26T07:49:29.791Z</time></trkpt><trkpt lat="45.6310358" lon="11.3894035"><ele>283.0</ele><time>2026-04-26T07:49:32.79Z</time></trkpt><trkpt lat="45.6310698" lon="11.3894923"><ele>283.0</ele><time>2026-04-26T07:49:35.791Z</time></trkpt><trkpt lat="45.6311016" lon="11.3895862"><ele>283.0</ele><time>2026-04-26T07:49:38.79Z</time></trkpt><trkpt lat="45.6311411" lon="11.3896607"><ele>283.0</ele><time>2026-04-26T07:49:41.79Z</time></trkpt><trkpt lat="45.6311812" lon="11.3897558"><ele>284.42857142857144</ele><time>2026-04-26T07:49:45.79Z</time></trkpt><trkpt lat="45.6311899" lon="11.3898467"><ele>285.8571428571429</ele><time>2026-04-26T07:49:48.791Z</time></trkpt><trkpt lat="45.6311764" lon="11.3899418"><ele>287.2857142857143</ele><time>2026-04-26T07:49:52.79Z</time></trkpt><trkpt lat="45.6311291" lon="11.3900225"><ele>288.7142857142857</ele><time>2026-04-26T07:49:59.791Z</time></trkpt><trkpt lat="45.6310645" lon="11.3900604"><ele>290.1428571428571</ele><time>2026-04-26T07:50:05.79Z</time></trkpt><trkpt lat="45.6309933" lon="11.3900992"><ele>291.57142857142856</ele><time>2026-04-26T07:50:10.791Z</time></trkpt><trkpt lat="45.6309377" lon="11.3901513"><ele>293.0</ele><time>2026-04-26T07:50:14.791Z</time></trkpt><trkpt lat="45.6308762" lon="11.3902098"><ele>293.0</ele><time>2026-04-26T07:50:18.79Z</time></trkpt><trkpt lat="45.6307987" lon="11.3902762"><ele>293.0</ele><time>2026-04-26T07:50:22.791Z</time></trkpt><trkpt lat="45.6302171" lon="11.3912447"><ele>293.4285714285714</ele><time>2026-04-26T07:50:57.793Z</time></trkpt><trkpt lat="45.6301593" lon="11.3912847"><ele>293.85714285714283</ele><time>2026-04-26T07:51:01.791Z</time></trkpt><trkpt lat="45.6301091" lon="11.3913701"><ele>294.2857142857143</ele><time>2026-04-26T07:51:05.792Z</time></trkpt><trkpt lat="45.6300707" lon="11.3914531"><ele>294.71428571428567</ele><time>2026-04-26T07:51:10.791Z</time></trkpt><trkpt lat="45.6300161" lon="11.3915221"><ele>295.1428571428571</ele><time>2026-04-26T07:51:15.791Z</time></trkpt><trkpt lat="45.6299564" lon="11.3915696"><ele>295.57142857142856</ele><time>2026-04-26T07:51:19.792Z</time></trkpt><trkpt lat="45.6299195" lon="11.3916563"><ele>296.0</ele><time>2026-04-26T07:51:22.791Z</time></trkpt><trkpt lat="45.6298773" lon="11.3917259"><ele>299.57142857142856</ele><time>2026-04-26T07:51:25.792Z</time></trkpt><trkpt lat="45.6298143" lon="11.3917981"><ele>303.1428571428571</ele><time>2026-04-26T07:51:28.791Z</time></trkpt><trkpt lat="45.6297421" lon="11.3918313"><ele>306.71428571428567</ele><time>2026-04-26T07:51:31.792Z</time></trkpt><trkpt lat="45.6296765" lon="11.3918643"><ele>310.2857142857143</ele><time>2026-04-26T07:51:34.792Z</time></trkpt><trkpt lat="45.629625" lon="11.3919215"><ele>313.85714285714283</ele><time>2026-04-26T07:51:37.792Z</time></trkpt><trkpt lat="45.6295696" lon="11.3919897"><ele>317.4285714285714</ele><time>2026-04-26T07:51:40.792Z</time></trkpt><trkpt lat="45.6295314" lon="11.3920709"><ele>321.0</ele><time>2026-04-26T07:51:43.791Z</time></trkpt><trkpt lat="45.629512" lon="11.3921676"><ele>318.3333333333333</ele><time>2026-04-26T07:51:46.791Z</time></trkpt><trkpt lat="45.6294779" lon="11.392253"><ele>315.6666666666667</ele><time>2026-04-26T07:51:49.792Z</time></trkpt><trkpt lat="45.6294407" lon="11.3923565"><ele>313.0</ele><time>2026-04-26T07:51:52.791Z</time></trkpt><trkpt lat="45.6294045" lon="11.3924451"><ele>310.33333333333337</ele><time>2026-04-26T07:51:54.791Z</time></trkpt><trkpt lat="45.6293762" lon="11.3925259"><ele>307.6666666666667</ele><time>2026-04-26T07:51:56.792Z</time></trkpt><trkpt lat="45.6293308" lon="11.3926115"><ele>305.0</ele><time>2026-04-26T07:51:59.79Z</time></trkpt><trkpt lat="45.6292986" lon="11.3927373"><ele>305.0</ele><time>2026-04-26T07:52:02.792Z</time></trkpt><trkpt lat="45.6292731" lon="11.3928218"><ele>305.0</ele><time>2026-04-26T07:52:05.792Z</time></trkpt><trkpt lat="45.6292392" lon="11.39291"><ele>305.0</ele><time>2026-04-26T07:52:08.792Z</time></trkpt><trkpt lat="45.6292134" lon="11.393005"><ele>305.0</ele><time>2026-04-26T07:52:11.792Z</time></trkpt><trkpt lat="45.6291596" lon="11.393058"><ele>305.0</ele><time>2026-04-26T07:52:14.792Z</time></trkpt><trkpt lat="45.6291121" lon="11.3931253"><ele>305.0</ele><time>2026-04-26T07:52:17.791Z</time></trkpt><trkpt lat="45.6290617" lon="11.3932263"><ele>305.0</ele><time>2026-04-26T07:52:21.791Z</time></trkpt><trkpt lat="45.62902" lon="11.3933224"><ele>308.2857142857143</ele><time>2026-04-26T07:52:24.791Z</time></trkpt><trkpt lat="45.6289604" lon="11.3933854"><ele>311.57142857142856</ele><time>2026-04-26T07:52:27.792Z</time></trkpt><trkpt lat="45.6288993" lon="11.3934457"><ele>314.85714285714283</ele><time>2026-04-26T07:52:30.791Z</time></trkpt><trkpt lat="45.6288773" lon="11.3935326"><ele>318.1428571428571</ele><time>2026-04-26T07:52:33.791Z</time></trkpt><trkpt lat="45.628837" lon="11.3936148"><ele>321.42857142857144</ele><time>2026-04-26T07:52:36.791Z</time></trkpt><trkpt lat="45.6287682" lon="11.3936941"><ele>324.71428571428567</ele><time>2026-04-26T07:52:40.791Z</time></trkpt><trkpt lat="45.6287071" lon="11.3937594"><ele>328.0</ele><time>2026-04-26T07:52:43.791Z</time></trkpt><trkpt lat="45.6286602" lon="11.3938543"><ele>329.4285714285714</ele><time>2026-04-26T07:52:47.79Z</time></trkpt><trkpt lat="45.6286338" lon="11.3939451"><ele>330.85714285714283</ele><time>2026-04-26T07:52:50.791Z</time></trkpt><trkpt lat="45.6286147" lon="11.3940627"><ele>332.2857142857143</ele><time>2026-04-26T07:52:53.791Z</time></trkpt><trkpt lat="45.6286315" lon="11.3941681"><ele>333.71428571428567</ele><time>2026-04-26T07:52:55.79Z</time></trkpt><trkpt lat="45.6286755" lon="11.394244"><ele>335.1428571428571</ele><time>2026-04-26T07:52:57.79Z</time></trkpt><trkpt lat="45.628744" lon="11.3943029"><ele>336.57142857142856</ele><time>2026-04-26T07:53:00.79Z</time></trkpt><trkpt lat="45.6288051" lon="11.3943546"><ele>338.0</ele><time>2026-04-26T07:53:03.791Z</time></trkpt><trkpt lat="45.6288729" lon="11.3944007"><ele>338.0</ele><time>2026-04-26T07:53:07.79Z</time></trkpt><trkpt lat="45.628938" lon="11.3944444"><ele>338.0</ele><time>2026-04-26T07:53:11.79Z</time></trkpt><trkpt lat="45.629017" lon="11.3944651"><ele>338.0</ele><time>2026-04-26T07:53:15.79Z</time></trkpt><trkpt lat="45.62909" lon="11.3944873"><ele>338.0</ele><time>2026-04-26T07:53:18.79Z</time></trkpt><trkpt lat="45.6291565" lon="11.3945135"><ele>338.0</ele><time>2026-04-26T07:53:21.79Z</time></trkpt><trkpt lat="45.6292217" lon="11.3945465"><ele>338.0</ele><time>2026-04-26T07:53:24.79Z</time></trkpt><trkpt lat="45.629293" lon="11.3945855"><ele>338.0</ele><time>2026-04-26T07:53:27.79Z</time></trkpt><trkpt lat="45.6293716" lon="11.3946094"><ele>338.0</ele><time>2026-04-26T07:53:30.79Z</time></trkpt><trkpt lat="45.629438" lon="11.3946438"><ele>338.0</ele><time>2026-04-26T07:53:33.791Z</time></trkpt><trkpt lat="45.6294974" lon="11.3947098"><ele>338.0</ele><time>2026-04-26T07:53:37.79Z</time></trkpt><trkpt lat="45.6295633" lon="11.3947941"><ele>338.0</ele><time>2026-04-26T07:53:41.79Z</time></trkpt><trkpt lat="45.6296191" lon="11.3948671"><ele>338.0</ele><time>2026-04-26T07:53:44.791Z</time></trkpt><trkpt lat="45.6296847" lon="11.3949286"><ele>338.0</ele><time>2026-04-26T07:53:47.79Z</time></trkpt><trkpt lat="45.6297453" lon="11.3950026"><ele>339.1666666666667</ele><time>2026-04-26T07:53:51.791Z</time></trkpt><trkpt lat="45.6297966" lon="11.3950555"><ele>340.33333333333337</ele><time>2026-04-26T07:53:54.791Z</time></trkpt><trkpt lat="45.6298503" lon="11.3951433"><ele>341.5</ele><time>2026-04-26T07:53:58.791Z</time></trkpt><trkpt lat="45.6299022" lon="11.3952182"><ele>342.6666666666667</ele><time>2026-04-26T07:54:01.791Z</time></trkpt><trkpt lat="45.6299196" lon="11.3953232"><ele>343.8333333333333</ele><time>2026-04-26T07:54:05.791Z</time></trkpt><trkpt lat="45.6299514" lon="11.395428"><ele>345.0</ele><time>2026-04-26T07:54:09.79Z</time></trkpt><trkpt lat="45.6300084" lon="11.3955157"><ele>342.0</ele><time>2026-04-26T07:54:12.79Z</time></trkpt><trkpt lat="45.6300574" lon="11.3956161"><ele>339.0</ele><time>2026-04-26T07:54:15.79Z</time></trkpt><trkpt lat="45.6300858" lon="11.3957371"><ele>336.0</ele><time>2026-04-26T07:54:18.791Z</time></trkpt><trkpt lat="45.6301051" lon="11.3958284"><ele>333.0</ele><time>2026-04-26T07:54:21.791Z</time></trkpt><trkpt lat="45.6300982" lon="11.3959319"><ele>330.0</ele><time>2026-04-26T07:54:26.791Z</time></trkpt><trkpt lat="45.6300992" lon="11.3960475"><ele>327.0</ele><time>2026-04-26T07:54:30.791Z</time></trkpt><trkpt lat="45.6301019" lon="11.39616"><ele>327.0</ele><time>2026-04-26T07:54:33.791Z</time></trkpt><trkpt lat="45.6301158" lon="11.3962772"><ele>327.0</ele><time>2026-04-26T07:54:36.791Z</time></trkpt><trkpt lat="45.6301444" lon="11.3964093"><ele>327.0</ele><time>2026-04-26T07:54:39.791Z</time></trkpt><trkpt lat="45.6301687" lon="11.3965038"><ele>327.0</ele><time>2026-04-26T07:54:41.791Z</time></trkpt><trkpt lat="45.6301953" lon="11.3965978"><ele>327.0</ele><time>2026-04-26T07:54:43.79Z</time></trkpt><trkpt lat="45.6302448" lon="11.396705"><ele>327.0</ele><time>2026-04-26T07:54:46.79Z</time></trkpt><trkpt lat="45.6302916" lon="11.3967965"><ele>335.5</ele><time>2026-04-26T07:54:48.791Z</time></trkpt><trkpt lat="45.6303461" lon="11.3968838"><ele>344.0</ele><time>2026-04-26T07:54:50.79Z</time></trkpt><trkpt lat="45.6304157" lon="11.3969739"><ele>352.5</ele><time>2026-04-26T07:54:52.791Z</time></trkpt><trkpt lat="45.6304938" lon="11.3970245"><ele>361.0</ele><time>2026-04-26T07:54:54.791Z</time></trkpt><trkpt lat="45.6307203" lon="11.3970319"><ele>361.0</ele><time>2026-04-26T07:55:01.79Z</time></trkpt><trkpt lat="45.6307992" lon="11.3970366"><ele>361.0</ele><time>2026-04-26T07:55:04.79Z</time></trkpt><trkpt lat="45.6308861" lon="11.3970297"><ele>361.0</ele><time>2026-04-26T07:55:07.791Z</time></trkpt><trkpt lat="45.6309622" lon="11.3970264"><ele>361.0</ele><time>2026-04-26T07:55:10.79Z</time></trkpt><trkpt lat="45.631095" lon="11.3970241"><ele>361.0</ele><time>2026-04-26T07:55:16.79Z</time></trkpt><trkpt lat="45.631158" lon="11.3970513"><ele>361.0</ele><time>2026-04-26T07:55:19.79Z</time></trkpt><trkpt lat="45.6312217" lon="11.3970777"><ele>364.8</ele><time>2026-04-26T07:55:22.79Z</time></trkpt><trkpt lat="45.6313036" lon="11.397096"><ele>368.6</ele><time>2026-04-26T07:55:26.79Z</time></trkpt><trkpt lat="45.6314375" lon="11.3971035"><ele>372.4</ele><time>2026-04-26T07:55:32.79Z</time></trkpt><trkpt lat="45.6315251" lon="11.3971106"><ele>376.2</ele><time>2026-04-26T07:55:36.79Z</time></trkpt><trkpt lat="45.6316589" lon="11.3971189"><ele>380.0</ele><time>2026-04-26T07:55:41.791Z</time></trkpt><trkpt lat="45.631719" lon="11.3971561"><ele>377.7142857142857</ele><time>2026-04-26T07:55:44.791Z</time></trkpt><trkpt lat="45.6317755" lon="11.3972054"><ele>375.42857142857144</ele><time>2026-04-26T07:55:47.791Z</time></trkpt><trkpt lat="45.6318264" lon="11.3972678"><ele>373.1428571428571</ele><time>2026-04-26T07:55:50.791Z</time></trkpt><trkpt lat="45.6318801" lon="11.3973273"><ele>370.8571428571429</ele><time>2026-04-26T07:55:53.79Z</time></trkpt><trkpt lat="45.631951" lon="11.3973966"><ele>368.57142857142856</ele><time>2026-04-26T07:55:57.79Z</time></trkpt><trkpt lat="45.6320154" lon="11.3974422"><ele>366.2857142857143</ele><time>2026-04-26T07:56:00.791Z</time></trkpt><trkpt lat="45.6320818" lon="11.3974868"><ele>364.0</ele><time>2026-04-26T07:56:03.791Z</time></trkpt><trkpt lat="45.6321485" lon="11.3975328"><ele>364.0</ele><time>2026-04-26T07:56:06.791Z</time></trkpt><trkpt lat="45.6322332" lon="11.3975645"><ele>364.0</ele><time>2026-04-26T07:56:09.79Z</time></trkpt><trkpt lat="45.6323194" lon="11.3975821"><ele>364.0</ele><time>2026-04-26T07:56:12.79Z</time></trkpt><trkpt lat="45.6323931" lon="11.397578"><ele>364.0</ele><time>2026-04-26T07:56:15.791Z</time></trkpt><trkpt lat="45.6324696" lon="11.3975932"><ele>364.0</ele><time>2026-04-26T07:56:19.79Z</time></trkpt><trkpt lat="45.6325409" lon="11.3976205"><ele>364.0</ele><time>2026-04-26T07:56:24.791Z</time></trkpt><trkpt lat="45.6326162" lon="11.3976563"><ele>364.0</ele><time>2026-04-26T07:56:28.79Z</time></trkpt><trkpt lat="45.6326709" lon="11.3977062"><ele>364.0</ele><time>2026-04-26T07:56:33.79Z</time></trkpt><trkpt lat="45.6327328" lon="11.3977627"><ele>364.0</ele><time>2026-04-26T07:56:37.79Z</time></trkpt><trkpt lat="45.6328031" lon="11.3978193"><ele>364.0</ele><time>2026-04-26T07:56:41.79Z</time></trkpt><trkpt lat="45.632866" lon="11.3978907"><ele>364.0</ele><time>2026-04-26T07:56:45.789Z</time></trkpt><trkpt lat="45.6329159" lon="11.397952"><ele>364.0</ele><time>2026-04-26T07:56:48.79Z</time></trkpt><trkpt lat="45.6329785" lon="11.3980013"><ele>364.0</ele><time>2026-04-26T07:56:51.791Z</time></trkpt><trkpt lat="45.6330588" lon="11.3980456"><ele>364.7142857142857</ele><time>2026-04-26T07:56:54.79Z</time></trkpt><trkpt lat="45.6331199" lon="11.398083"><ele>365.42857142857144</ele><time>2026-04-26T07:56:57.79Z</time></trkpt><trkpt lat="45.6331814" lon="11.3981335"><ele>366.1428571428571</ele><time>2026-04-26T07:57:02.791Z</time></trkpt><trkpt lat="45.6332384" lon="11.3981879"><ele>366.8571428571429</ele><time>2026-04-26T07:57:06.79Z</time></trkpt><trkpt lat="45.6332844" lon="11.3982614"><ele>367.57142857142856</ele><time>2026-04-26T07:57:12.791Z</time></trkpt><trkpt lat="45.6332964" lon="11.398364"><ele>368.2857142857143</ele><time>2026-04-26T07:57:19.79Z</time></trkpt><trkpt lat="45.6333217" lon="11.398462"><ele>369.0</ele><time>2026-04-26T07:57:23.79Z</time></trkpt><trkpt lat="45.633347" lon="11.3985556"><ele>369.0</ele><time>2026-04-26T07:57:27.791Z</time></trkpt><trkpt lat="45.6333789" lon="11.3986539"><ele>369.0</ele><time>2026-04-26T07:57:31.79Z</time></trkpt><trkpt lat="45.6334296" lon="11.3987313"><ele>369.0</ele><time>2026-04-26T07:57:35.791Z</time></trkpt><trkpt lat="45.6334738" lon="11.3988025"><ele>369.0</ele><time>2026-04-26T07:57:38.791Z</time></trkpt><trkpt lat="45.6335223" lon="11.3988964"><ele>369.0</ele><time>2026-04-26T07:57:42.791Z</time></trkpt><trkpt lat="45.6335749" lon="11.3989923"><ele>369.0</ele><time>2026-04-26T07:57:46.791Z</time></trkpt><trkpt lat="45.633606" lon="11.3990871"><ele>371.57142857142856</ele><time>2026-04-26T07:57:50.79Z</time></trkpt><trkpt lat="45.6336354" lon="11.3991739"><ele>374.1428571428571</ele><time>2026-04-26T07:57:54.79Z</time></trkpt><trkpt lat="45.6336848" lon="11.3992328"><ele>376.7142857142857</ele><time>2026-04-26T07:57:57.79Z</time></trkpt><trkpt lat="45.6337329" lon="11.3993008"><ele>379.2857142857143</ele><time>2026-04-26T07:58:00.791Z</time></trkpt><trkpt lat="45.6337765" lon="11.399375"><ele>381.8571428571429</ele><time>2026-04-26T07:58:03.791Z</time></trkpt><trkpt lat="45.633853" lon="11.3994376"><ele>384.42857142857144</ele><time>2026-04-26T07:58:06.79Z</time></trkpt><trkpt lat="45.6339345" lon="11.399485"><ele>387.0</ele><time>2026-04-26T07:58:09.791Z</time></trkpt><trkpt lat="45.6340198" lon="11.3995245"><ele>387.0</ele><time>2026-04-26T07:58:12.791Z</time></trkpt><trkpt lat="45.6341969" lon="11.3995288"><ele>387.0</ele><time>2026-04-26T07:58:19.79Z</time></trkpt><trkpt lat="45.6342679" lon="11.3995085"><ele>387.0</ele><time>2026-04-26T07:58:22.79Z</time></trkpt><trkpt lat="45.6343434" lon="11.3994717"><ele>387.0</ele><time>2026-04-26T07:58:25.79Z</time></trkpt><trkpt lat="45.6344182" lon="11.399463"><ele>387.0</ele><time>2026-04-26T07:58:29.79Z</time></trkpt><trkpt lat="45.634647" lon="11.3994712"><ele>387.8571428571429</ele><time>2026-04-26T07:58:43.791Z</time></trkpt><trkpt lat="45.6347111" lon="11.399487"><ele>388.7142857142857</ele><time>2026-04-26T07:58:47.79Z</time></trkpt><trkpt lat="45.6347769" lon="11.3995094"><ele>389.57142857142856</ele><time>2026-04-26T07:58:51.791Z</time></trkpt><trkpt lat="45.6348585" lon="11.3995276"><ele>390.42857142857144</ele><time>2026-04-26T07:58:55.79Z</time></trkpt><trkpt lat="45.6349288" lon="11.3995591"><ele>391.2857142857143</ele><time>2026-04-26T07:58:59.79Z</time></trkpt><trkpt lat="45.6349911" lon="11.3995893"><ele>392.14285714285717</ele><time>2026-04-26T07:59:04.791Z</time></trkpt><trkpt lat="45.6350535" lon="11.3996083"><ele>393.0</ele><time>2026-04-26T07:59:07.79Z</time></trkpt><trkpt lat="45.6351325" lon="11.3996609"><ele>394.0</ele><time>2026-04-26T07:59:10.791Z</time></trkpt><trkpt lat="45.6351939" lon="11.3997313"><ele>395.0</ele><time>2026-04-26T07:59:13.79Z</time></trkpt><trkpt lat="45.6352588" lon="11.3997799"><ele>396.0</ele><time>2026-04-26T07:59:16.79Z</time></trkpt><trkpt lat="45.635328" lon="11.3998024"><ele>397.0</ele><time>2026-04-26T07:59:19.79Z</time></trkpt><trkpt lat="45.6354081" lon="11.3998388"><ele>398.0</ele><time>2026-04-26T07:59:23.79Z</time></trkpt><trkpt lat="45.6354817" lon="11.39984"><ele>399.0</ele><time>2026-04-26T07:59:26.791Z</time></trkpt><trkpt lat="45.635557" lon="11.3998042"><ele>399.0</ele><time>2026-04-26T07:59:29.79Z</time></trkpt><trkpt lat="45.6356416" lon="11.3997703"><ele>399.0</ele><time>2026-04-26T07:59:32.79Z</time></trkpt><trkpt lat="45.6357243" lon="11.3997452"><ele>399.0</ele><time>2026-04-26T07:59:35.79Z</time></trkpt><trkpt lat="45.6358076" lon="11.3997548"><ele>399.0</ele><time>2026-04-26T07:59:38.79Z</time></trkpt><trkpt lat="45.6358358" lon="11.3998514"><ele>399.0</ele><time>2026-04-26T07:59:42.79Z</time></trkpt><trkpt lat="45.6358051" lon="11.3999851"><ele>399.0</ele><time>2026-04-26T07:59:47.79Z</time></trkpt><trkpt lat="45.635781" lon="11.4000914"><ele>399.0</ele><time>2026-04-26T07:59:51.791Z</time></trkpt><trkpt lat="45.6357593" lon="11.4002118"><ele>399.0</ele><time>2026-04-26T07:59:55.789Z</time></trkpt><trkpt lat="45.6357518" lon="11.4003473"><ele>399.0</ele><time>2026-04-26T07:59:58.791Z</time></trkpt><trkpt lat="45.6357487" lon="11.4004751"><ele>399.0</ele><time>2026-04-26T08:00:00.79Z</time></trkpt><trkpt lat="45.6357703" lon="11.4006399"><ele>399.0</ele><time>2026-04-26T08:00:01.79Z</time></trkpt><trkpt lat="45.6357674" lon="11.4007493"><ele>397.5</ele><time>2026-04-26T08:00:02.791Z</time></trkpt><trkpt lat="45.6357709" lon="11.4008586"><ele>396.0</ele><time>2026-04-26T08:00:03.79Z</time></trkpt><trkpt lat="45.6357636" lon="11.4009514"><ele>394.5</ele><time>2026-04-26T08:00:04.79Z</time></trkpt><trkpt lat="45.6357504" lon="11.4010615"><ele>393.0</ele><time>2026-04-26T08:00:05.79Z</time></trkpt><trkpt lat="45.6357604" lon="11.4011842"><ele>391.5</ele><time>2026-04-26T08:00:06.791Z</time></trkpt><trkpt lat="45.635813" lon="11.4012824"><ele>390.0</ele><time>2026-04-26T08:00:07.79Z</time></trkpt><trkpt lat="45.6358726" lon="11.4013583"><ele>388.8</ele><time>2026-04-26T08:00:08.791Z</time></trkpt><trkpt lat="45.6359514" lon="11.4014376"><ele>387.6</ele><time>2026-04-26T08:00:09.79Z</time></trkpt><trkpt lat="45.6360353" lon="11.4015125"><ele>386.4</ele><time>2026-04-26T08:00:10.791Z</time></trkpt><trkpt lat="45.6361159" lon="11.4015532"><ele>385.2</ele><time>2026-04-26T08:00:11.791Z</time></trkpt><trkpt lat="45.6362171" lon="11.4016326"><ele>384.0</ele><time>2026-04-26T08:00:12.791Z</time></trkpt><trkpt lat="45.636293" lon="11.4016925"><ele>383.0</ele><time>2026-04-26T08:00:13.791Z</time></trkpt><trkpt lat="45.6364125" lon="11.4017815"><ele>382.0</ele><time>2026-04-26T08:00:14.79Z</time></trkpt><trkpt lat="45.6365224" lon="11.4018665"><ele>381.0</ele><time>2026-04-26T08:00:15.79Z</time></trkpt><trkpt lat="45.6365884" lon="11.4019871"><ele>380.0</ele><time>2026-04-26T08:00:16.791Z</time></trkpt><trkpt lat="45.6366628" lon="11.4021016"><ele>378.75</ele><time>2026-04-26T08:00:17.791Z</time></trkpt><trkpt lat="45.6367078" lon="11.4022611"><ele>377.5</ele><time>2026-04-26T08:00:18.79Z</time></trkpt><trkpt lat="45.63677" lon="11.4024014"><ele>376.25</ele><time>2026-04-26T08:00:19.791Z</time></trkpt><trkpt lat="45.6368067" lon="11.4025655"><ele>375.0</ele><time>2026-04-26T08:00:20.79Z</time></trkpt><trkpt lat="45.6368418" lon="11.4027204"><ele>375.0</ele><time>2026-04-26T08:00:21.79Z</time></trkpt><trkpt lat="45.6368407" lon="11.4029003"><ele>375.0</ele><time>2026-04-26T08:00:22.791Z</time></trkpt><trkpt lat="45.6368494" lon="11.4030707"><ele>375.0</ele><time>2026-04-26T08:00:23.79Z</time></trkpt><trkpt lat="45.6368382" lon="11.4032382"><ele>375.0</ele><time>2026-04-26T08:00:24.791Z</time></trkpt><trkpt lat="45.6368268" lon="11.4033889"><ele>373.0</ele><time>2026-04-26T08:00:25.79Z</time></trkpt><trkpt lat="45.6368197" lon="11.4035597"><ele>371.0</ele><time>2026-04-26T08:00:26.79Z</time></trkpt><trkpt lat="45.6368381" lon="11.4037253"><ele>369.0</ele><time>2026-04-26T08:00:27.79Z</time></trkpt><trkpt lat="45.6368591" lon="11.4039209"><ele>367.0</ele><time>2026-04-26T08:00:28.79Z</time></trkpt><trkpt lat="45.6368793" lon="11.4041193"><ele>365.5</ele><time>2026-04-26T08:00:29.79Z</time></trkpt><trkpt lat="45.6369061" lon="11.4043042"><ele>364.0</ele><time>2026-04-26T08:00:30.79Z</time></trkpt><trkpt lat="45.6369408" lon="11.404476"><ele>362.5</ele><time>2026-04-26T08:00:31.79Z</time></trkpt><trkpt lat="45.6369825" lon="11.4046538"><ele>361.0</ele><time>2026-04-26T08:00:32.79Z</time></trkpt><trkpt lat="45.637022" lon="11.4048155"><ele>361.0</ele><time>2026-04-26T08:00:33.79Z</time></trkpt><trkpt lat="45.6370783" lon="11.4049684"><ele>361.0</ele><time>2026-04-26T08:00:34.79Z</time></trkpt><trkpt lat="45.6371244" lon="11.4051313"><ele>361.0</ele><time>2026-04-26T08:00:35.791Z</time></trkpt><trkpt lat="45.6371621" lon="11.4052635"><ele>361.0</ele><time>2026-04-26T08:00:36.791Z</time></trkpt><trkpt lat="45.6372193" lon="11.4053741"><ele>361.0</ele><time>2026-04-26T08:00:37.79Z</time></trkpt><trkpt lat="45.6372743" lon="11.405472"><ele>355.5</ele><time>2026-04-26T08:00:38.791Z</time></trkpt><trkpt lat="45.6373644" lon="11.4055518"><ele>350.0</ele><time>2026-04-26T08:00:39.791Z</time></trkpt><trkpt lat="45.6375126" lon="11.4055423"><ele>344.5</ele><time>2026-04-26T08:00:40.791Z</time></trkpt><trkpt lat="45.6376067" lon="11.4055523"><ele>339.0</ele><time>2026-04-26T08:00:41.791Z</time></trkpt><trkpt lat="45.6377323" lon="11.405564"><ele>337.75</ele><time>2026-04-26T08:00:42.79Z</time></trkpt><trkpt lat="45.6378857" lon="11.4055533"><ele>336.5</ele><time>2026-04-26T08:00:43.791Z</time></trkpt><trkpt lat="45.6380163" lon="11.4055986"><ele>335.25</ele><time>2026-04-26T08:00:44.79Z</time></trkpt><trkpt lat="45.6381309" lon="11.405635"><ele>334.0</ele><time>2026-04-26T08:00:45.791Z</time></trkpt><trkpt lat="45.6382398" lon="11.4056997"><ele>334.0</ele><time>2026-04-26T08:00:46.79Z</time></trkpt><trkpt lat="45.6383388" lon="11.4057885"><ele>334.0</ele><time>2026-04-26T08:00:47.791Z</time></trkpt><trkpt lat="45.6384171" lon="11.405885"><ele>334.0</ele><time>2026-04-26T08:00:48.791Z</time></trkpt><trkpt lat="45.6385262" lon="11.4059554"><ele>334.0</ele><time>2026-04-26T08:00:49.791Z</time></trkpt><trkpt lat="45.6386383" lon="11.406003"><ele>334.2</ele><time>2026-04-26T08:00:50.79Z</time></trkpt><trkpt lat="45.6387393" lon="11.4060566"><ele>334.4</ele><time>2026-04-26T08:00:51.79Z</time></trkpt><trkpt lat="45.6388266" lon="11.4061048"><ele>334.6</ele><time>2026-04-26T08:00:52.79Z</time></trkpt><trkpt lat="45.6389197" lon="11.4061475"><ele>334.8</ele><time>2026-04-26T08:00:53.791Z</time></trkpt><trkpt lat="45.6390239" lon="11.4061329"><ele>335.0</ele><time>2026-04-26T08:00:54.79Z</time></trkpt><trkpt lat="45.6391267" lon="11.406152"><ele>335.0</ele><time>2026-04-26T08:00:55.791Z</time></trkpt><trkpt lat="45.639235" lon="11.4061686"><ele>335.0</ele><time>2026-04-26T08:00:56.79Z</time></trkpt><trkpt lat="45.6393383" lon="11.4061658"><ele>335.0</ele><time>2026-04-26T08:00:57.79Z</time></trkpt><trkpt lat="45.6394482" lon="11.4061645"><ele>335.0</ele><time>2026-04-26T08:00:58.79Z</time></trkpt><trkpt lat="45.6395633" lon="11.4061791"><ele>335.0</ele><time>2026-04-26T08:00:59.79Z</time></trkpt><trkpt lat="45.6396843" lon="11.4061899"><ele>334.0</ele><time>2026-04-26T08:01:00.79Z</time></trkpt><trkpt lat="45.639809" lon="11.4062013"><ele>333.0</ele><time>2026-04-26T08:01:01.79Z</time></trkpt><trkpt lat="45.6399246" lon="11.4062192"><ele>332.0</ele><time>2026-04-26T08:01:02.791Z</time></trkpt><trkpt lat="45.6400538" lon="11.4062316"><ele>331.0</ele><time>2026-04-26T08:01:03.79Z</time></trkpt><trkpt lat="45.6401782" lon="11.4062562"><ele>331.5</ele><time>2026-04-26T08:01:04.79Z</time></trkpt><trkpt lat="45.6403017" lon="11.4062948"><ele>332.0</ele><time>2026-04-26T08:01:05.79Z</time></trkpt><trkpt lat="45.6404225" lon="11.4063083"><ele>332.5</ele><time>2026-04-26T08:01:06.79Z</time></trkpt><trkpt lat="45.6405312" lon="11.4063266"><ele>333.0</ele><time>2026-04-26T08:01:07.791Z</time></trkpt><trkpt lat="45.6406347" lon="11.4063545"><ele>333.0</ele><time>2026-04-26T08:01:08.79Z</time></trkpt><trkpt lat="45.6407377" lon="11.4063462"><ele>333.0</ele><time>2026-04-26T08:01:09.789Z</time></trkpt><trkpt lat="45.6408368" lon="11.4063306"><ele>333.0</ele><time>2026-04-26T08:01:10.791Z</time></trkpt><trkpt lat="45.6409349" lon="11.4063298"><ele>333.0</ele><time>2026-04-26T08:01:11.79Z</time></trkpt><trkpt lat="45.6410334" lon="11.4063099"><ele>333.0</ele><time>2026-04-26T08:01:12.79Z</time></trkpt><trkpt lat="45.6411636" lon="11.4062951"><ele>331.0</ele><time>2026-04-26T08:01:13.791Z</time></trkpt><trkpt lat="45.6412722" lon="11.4062811"><ele>329.0</ele><time>2026-04-26T08:01:14.79Z</time></trkpt><trkpt lat="45.641366" lon="11.4062464"><ele>327.0</ele><time>2026-04-26T08:01:15.791Z</time></trkpt><trkpt lat="45.6414698" lon="11.4062057"><ele>325.0</ele><time>2026-04-26T08:01:16.791Z</time></trkpt><trkpt lat="45.6415884" lon="11.4061444"><ele>323.0</ele><time>2026-04-26T08:01:17.791Z</time></trkpt><trkpt lat="45.6417056" lon="11.406093"><ele>323.0</ele><time>2026-04-26T08:01:18.79Z</time></trkpt><trkpt lat="45.6418103" lon="11.4060621"><ele>323.0</ele><time>2026-04-26T08:01:19.791Z</time></trkpt><trkpt lat="45.6419064" lon="11.4060362"><ele>323.0</ele><time>2026-04-26T08:01:20.79Z</time></trkpt><trkpt lat="45.6420101" lon="11.4059951"><ele>323.0</ele><time>2026-04-26T08:01:21.791Z</time></trkpt><trkpt lat="45.6421133" lon="11.4059766"><ele>323.0</ele><time>2026-04-26T08:01:22.79Z</time></trkpt><trkpt lat="45.6422225" lon="11.4059807"><ele>321.0</ele><time>2026-04-26T08:01:23.791Z</time></trkpt><trkpt lat="45.6423301" lon="11.405982"><ele>319.0</ele><time>2026-04-26T08:01:24.791Z</time></trkpt><trkpt lat="45.6424443" lon="11.4059818"><ele>317.0</ele><time>2026-04-26T08:01:25.789Z</time></trkpt><trkpt lat="45.6425444" lon="11.4059824"><ele>315.0</ele><time>2026-04-26T08:01:26.79Z</time></trkpt><trkpt lat="45.6426279" lon="11.4059641"><ele>313.0</ele><time>2026-04-26T08:01:27.791Z</time></trkpt><trkpt lat="45.642729" lon="11.4059326"><ele>310.8</ele><time>2026-04-26T08:01:28.79Z</time></trkpt><trkpt lat="45.6428428" lon="11.4058881"><ele>308.6</ele><time>2026-04-26T08:01:29.79Z</time></trkpt><trkpt lat="45.6429381" lon="11.4058602"><ele>306.4</ele><time>2026-04-26T08:01:30.791Z</time></trkpt><trkpt lat="45.6430215" lon="11.4058627"><ele>304.2</ele><time>2026-04-26T08:01:31.79Z</time></trkpt><trkpt lat="45.643113" lon="11.4058389"><ele>302.0</ele><time>2026-04-26T08:01:32.79Z</time></trkpt><trkpt lat="45.6432037" lon="11.4058366"><ele>302.0</ele><time>2026-04-26T08:01:33.79Z</time></trkpt><trkpt lat="45.643273" lon="11.4059432"><ele>302.0</ele><time>2026-04-26T08:01:34.791Z</time></trkpt><trkpt lat="45.6433508" lon="11.4060256"><ele>302.0</ele><time>2026-04-26T08:01:35.79Z</time></trkpt><trkpt lat="45.6434077" lon="11.4061393"><ele>302.0</ele><time>2026-04-26T08:01:36.79Z</time></trkpt><trkpt lat="45.6434863" lon="11.4062609"><ele>302.0</ele><time>2026-04-26T08:01:37.791Z</time></trkpt><trkpt lat="45.6435714" lon="11.4063881"><ele>297.75</ele><time>2026-04-26T08:01:38.79Z</time></trkpt><trkpt lat="45.6436406" lon="11.4065163"><ele>293.5</ele><time>2026-04-26T08:01:39.789Z</time></trkpt><trkpt lat="45.643734" lon="11.4066318"><ele>289.25</ele><time>2026-04-26T08:01:40.791Z</time></trkpt><trkpt lat="45.6438159" lon="11.4067313"><ele>285.0</ele><time>2026-04-26T08:01:41.791Z</time></trkpt><trkpt lat="45.6439232" lon="11.4068099"><ele>285.0</ele><time>2026-04-26T08:01:42.79Z</time></trkpt><trkpt lat="45.6440113" lon="11.4069051"><ele>285.0</ele><time>2026-04-26T08:01:43.79Z</time></trkpt><trkpt lat="45.6441038" lon="11.4069843"><ele>285.0</ele><time>2026-04-26T08:01:44.791Z</time></trkpt><trkpt lat="45.6441996" lon="11.4070644"><ele>285.0</ele><time>2026-04-26T08:01:45.79Z</time></trkpt><trkpt lat="45.6442701" lon="11.4071509"><ele>285.0</ele><time>2026-04-26T08:01:46.791Z</time></trkpt><trkpt lat="45.6443614" lon="11.4072051"><ele>284.6</ele><time>2026-04-26T08:01:47.79Z</time></trkpt><trkpt lat="45.6444459" lon="11.4072324"><ele>284.2</ele><time>2026-04-26T08:01:48.79Z</time></trkpt><trkpt lat="45.6445469" lon="11.4072488"><ele>283.8</ele><time>2026-04-26T08:01:49.791Z</time></trkpt><trkpt lat="45.6446567" lon="11.4072594"><ele>283.4</ele><time>2026-04-26T08:01:50.79Z</time></trkpt><trkpt lat="45.644767" lon="11.4071188"><ele>283.0</ele><time>2026-04-26T08:01:51.791Z</time></trkpt><trkpt lat="45.644876" lon="11.4070724"><ele>280.0</ele><time>2026-04-26T08:01:52.791Z</time></trkpt><trkpt lat="45.6449596" lon="11.4070117"><ele>277.0</ele><time>2026-04-26T08:01:53.79Z</time></trkpt><trkpt lat="45.6450554" lon="11.4069492"><ele>274.0</ele><time>2026-04-26T08:01:54.791Z</time></trkpt><trkpt lat="45.6451712" lon="11.4069011"><ele>271.0</ele><time>2026-04-26T08:01:56.791Z</time></trkpt><trkpt lat="45.6452401" lon="11.4068666"><ele>268.0</ele><time>2026-04-26T08:01:57.79Z</time></trkpt><trkpt lat="45.6452619" lon="11.4069917"><ele>265.0</ele><time>2026-04-26T08:01:58.79Z</time></trkpt><trkpt lat="45.6453301" lon="11.4070025"><ele>262.0</ele><time>2026-04-26T08:01:59.791Z</time></trkpt><trkpt lat="45.6453596" lon="11.407134"><ele>259.0</ele><time>2026-04-26T08:02:00.791Z</time></trkpt><trkpt lat="45.6454034" lon="11.407205"><ele>256.0</ele><time>2026-04-26T08:02:01.79Z</time></trkpt><trkpt lat="45.6454514" lon="11.4072922"><ele>252.99999999999997</ele><time>2026-04-26T08:02:02.791Z</time></trkpt><trkpt lat="45.6455129" lon="11.4073642"><ele>250.0</ele><time>2026-04-26T08:02:04.79Z</time></trkpt><trkpt lat="45.6456842" lon="11.4071323"><ele>250.0</ele><time>2026-04-26T08:02:10.79Z</time></trkpt><trkpt lat="45.6457088" lon="11.4070189"><ele>250.0</ele><time>2026-04-26T08:02:11.79Z</time></trkpt><trkpt lat="45.6458039" lon="11.4068068"><ele>250.0</ele><time>2026-04-26T08:02:13.791Z</time></trkpt><trkpt lat="45.6458677" lon="11.4067126"><ele>250.0</ele><time>2026-04-26T08:02:14.791Z</time></trkpt><trkpt lat="45.6459248" lon="11.4066275"><ele>250.0</ele><time>2026-04-26T08:02:15.79Z</time></trkpt><trkpt lat="45.6459657" lon="11.406524"><ele>250.0</ele><time>2026-04-26T08:02:16.791Z</time></trkpt><trkpt lat="45.6460548" lon="11.4064244"><ele>250.0</ele><time>2026-04-26T08:02:17.79Z</time></trkpt><trkpt lat="45.6461032" lon="11.4062794"><ele>250.0</ele><time>2026-04-26T08:02:18.791Z</time></trkpt><trkpt lat="45.6461798" lon="11.4061848"><ele>250.0</ele><time>2026-04-26T08:02:19.79Z</time></trkpt><trkpt lat="45.646251" lon="11.4060878"><ele>250.0</ele><time>2026-04-26T08:02:20.791Z</time></trkpt><trkpt lat="45.6463289" lon="11.4059856"><ele>249.4</ele><time>2026-04-26T08:02:21.791Z</time></trkpt><trkpt lat="45.6464372" lon="11.4059576"><ele>248.8</ele><time>2026-04-26T08:02:22.79Z</time></trkpt><trkpt lat="45.6465224" lon="11.4058869"><ele>248.2</ele><time>2026-04-26T08:02:23.79Z</time></trkpt><trkpt lat="45.6466328" lon="11.4058834"><ele>247.6</ele><time>2026-04-26T08:02:24.79Z</time></trkpt><trkpt lat="45.6467391" lon="11.405964"><ele>247.0</ele><time>2026-04-26T08:02:25.79Z</time></trkpt><trkpt lat="45.6468365" lon="11.4059824"><ele>241.25</ele><time>2026-04-26T08:02:26.791Z</time></trkpt><trkpt lat="45.6469946" lon="11.4059527"><ele>235.5</ele><time>2026-04-26T08:02:27.791Z</time></trkpt><trkpt lat="45.6470864" lon="11.4059185"><ele>229.75</ele><time>2026-04-26T08:02:28.79Z</time></trkpt><trkpt lat="45.6472083" lon="11.4058798"><ele>224.0</ele><time>2026-04-26T08:02:29.791Z</time></trkpt><trkpt lat="45.6473404" lon="11.4057995"><ele>224.0</ele><time>2026-04-26T08:02:30.79Z</time></trkpt><trkpt lat="45.6474635" lon="11.4057446"><ele>224.0</ele><time>2026-04-26T08:02:31.791Z</time></trkpt><trkpt lat="45.647596" lon="11.4056801"><ele>224.0</ele><time>2026-04-26T08:02:32.791Z</time></trkpt><trkpt lat="45.647717" lon="11.4056395"><ele>224.0</ele><time>2026-04-26T08:02:33.79Z</time></trkpt><trkpt lat="45.647821" lon="11.4055629"><ele>222.39999999999998</ele><time>2026-04-26T08:02:34.79Z</time></trkpt><trkpt lat="45.6479" lon="11.4054925"><ele>220.79999999999998</ele><time>2026-04-26T08:02:35.791Z</time></trkpt><trkpt lat="45.6480034" lon="11.4054266"><ele>219.20000000000002</ele><time>2026-04-26T08:02:36.79Z</time></trkpt><trkpt lat="45.6481001" lon="11.4053534"><ele>217.60000000000002</ele><time>2026-04-26T08:02:37.79Z</time></trkpt><trkpt lat="45.6481762" lon="11.4052819"><ele>216.0</ele><time>2026-04-26T08:02:38.79Z</time></trkpt><trkpt lat="45.6482445" lon="11.4051855"><ele>216.0</ele><time>2026-04-26T08:02:40.79Z</time></trkpt><trkpt lat="45.648297" lon="11.4050682"><ele>216.00000000000003</ele><time>2026-04-26T08:02:42.791Z</time></trkpt><trkpt lat="45.6482974" lon="11.4051654"><ele>216.00000000000003</ele><time>2026-04-26T08:02:43.79Z</time></trkpt><trkpt lat="45.6483182" lon="11.405039"><ele>216.0</ele><time>2026-04-26T08:02:44.79Z</time></trkpt><trkpt lat="45.6482182" lon="11.4051698"><ele>216.0</ele><time>2026-04-26T08:02:48.791Z</time></trkpt><trkpt lat="45.6481683" lon="11.4053147"><ele>216.0</ele><time>2026-04-26T08:02:50.791Z</time></trkpt><trkpt lat="45.6481708" lon="11.4054479"><ele>216.0</ele><time>2026-04-26T08:02:51.79Z</time></trkpt><trkpt lat="45.6482604" lon="11.4055483"><ele>216.0</ele><time>2026-04-26T08:02:52.79Z</time></trkpt><trkpt lat="45.6484141" lon="11.4054906"><ele>216.0</ele><time>2026-04-26T08:02:54.79Z</time></trkpt><trkpt lat="45.6458677" lon="11.4067126"><ele>222.20000000000002</ele><time>2026-04-26T08:02:14.791Z</time></trkpt><trkpt lat="45.6459248" lon="11.4066275"><ele>228.40000000000003</ele><time>2026-04-26T08:02:15.79Z</time></trkpt><trkpt lat="45.6459657" lon="11.406524"><ele>234.6</ele><time>2026-04-26T08:02:16.791Z</time></trkpt><trkpt lat="45.6460548" lon="11.4064244"><ele>240.8</ele><time>2026-04-26T08:02:17.79Z</time></trkpt><trkpt lat="45.6461032" lon="11.4062794"><ele>247.0</ele><time>2026-04-26T08:02:18.791Z</time></trkpt><trkpt lat="45.6461798" lon="11.4061848"><ele>247.0</ele><time>2026-04-26T08:02:19.79Z</time></trkpt><trkpt lat="45.646251" lon="11.4060878"><ele>247.0</ele><time>2026-04-26T08:02:20.791Z</time></trkpt><trkpt lat="45.6463289" lon="11.4059856"><ele>247.0</ele><time>2026-04-26T08:02:21.791Z</time></trkpt><trkpt lat="45.6464372" lon="11.4059576"><ele>247.0</ele><time>2026-04-26T08:02:22.79Z</time></trkpt><trkpt lat="45.6465224" lon="11.4058869"><ele>247.0</ele><time>2026-04-26T08:02:23.79Z</time></trkpt><trkpt lat="45.6466328" lon="11.4058834"><ele>247.0</ele><time>2026-04-26T08:02:24.79Z</time></trkpt><trkpt lat="45.6467391" lon="11.405964"><ele>247.0</ele><time>2026-04-26T08:02:25.79Z</time></trkpt><trkpt lat="45.6468365" lon="11.4059824"><ele>247.0</ele><time>2026-04-26T08:02:26.791Z</time></trkpt><trkpt lat="45.6469946" lon="11.4059527"><ele>247.0</ele><time>2026-04-26T08:02:27.791Z</time></trkpt><trkpt lat="45.6470864" lon="11.4059185"><ele>241.25</ele><time>2026-04-26T08:02:28.79Z</time></trkpt><trkpt lat="45.6472083" lon="11.4058798"><ele>235.5</ele><time>2026-04-26T08:02:29.791Z</time></trkpt><trkpt lat="45.6473404" lon="11.4057995"><ele>229.75</ele><time>2026-04-26T08:02:30.79Z</time></trkpt><trkpt lat="45.6474635" lon="11.4057446"><ele>224.0</ele><time>2026-04-26T08:02:31.791Z</time></trkpt><trkpt lat="45.647596" lon="11.4056801"><ele>224.0</ele><time>2026-04-26T08:02:32.791Z</time></trkpt><trkpt lat="45.647717" lon="11.4056395"><ele>223.99999999999997</ele><time>2026-04-26T08:02:33.79Z</time></trkpt><trkpt lat="45.647821" lon="11.4055629"><ele>223.99999999999997</ele><time>2026-04-26T08:02:34.79Z</time></trkpt><trkpt lat="45.6479" lon="11.4054925"><ele>224.0</ele><time>2026-04-26T08:02:35.791Z</time></trkpt><trkpt lat="45.6480034" lon="11.4054266"><ele>224.0</ele><time>2026-04-26T08:02:36.79Z</time></trkpt><trkpt lat="45.6481001" lon="11.4053534"><ele>222.66666666666669</ele><time>2026-04-26T08:02:37.79Z</time></trkpt><trkpt lat="45.6481762" lon="11.4052819"><ele>221.33333333333334</ele><time>2026-04-26T08:02:38.79Z</time></trkpt><trkpt lat="45.6482445" lon="11.4051855"><ele>220.0</ele><time>2026-04-26T08:02:40.79Z</time></trkpt><trkpt lat="45.648297" lon="11.4050682"><ele>218.66666666666669</ele><time>2026-04-26T08:02:42.791Z</time></trkpt><trkpt lat="45.6482974" lon="11.4051654"><ele>217.33333333333334</ele><time>2026-04-26T08:02:43.79Z</time></trkpt><trkpt lat="45.6483182" lon="11.405039"><ele>216.0</ele><time>2026-04-26T08:02:44.79Z</time></trkpt><trkpt lat="45.6482182" lon="11.4051698"><ele>216.0</ele><time>2026-04-26T08:02:48.791Z</time></trkpt><trkpt lat="45.6481683" lon="11.4053147"><ele>216.0</ele><time>2026-04-26T08:02:50.791Z</time></trkpt><trkpt lat="45.6481708" lon="11.4054479"><ele>216.0</ele><time>2026-04-26T08:02:51.79Z</time></trkpt><trkpt lat="45.6482604" lon="11.4055483"><ele>216.0</ele><time>2026-04-26T08:02:52.79Z</time></trkpt><trkpt lat="45.6484141" lon="11.4054906"><ele>216.0</ele><time>2026-04-26T08:02:54.79Z</time></trkpt><trkpt lat="45.6485659" lon="11.405362"><ele>216.00000000000003</ele><time>2026-04-26T08:02:56.791Z</time></trkpt><trkpt lat="45.6486599" lon="11.4053738"><ele>216.00000000000003</ele><time>2026-04-26T08:02:57.791Z</time></trkpt><trkpt lat="45.6487494" lon="11.40535"><ele>216.0</ele><time>2026-04-26T08:02:58.79Z</time></trkpt><trkpt lat="45.6488157" lon="11.405375"><ele>216.0</ele><time>2026-04-26T08:02:59.79Z</time></trkpt><trkpt lat="45.648879" lon="11.4054226"><ele>207.75</ele><time>2026-04-26T08:03:00.79Z</time></trkpt><trkpt lat="45.6490188" lon="11.405571"><ele>199.5</ele><time>2026-04-26T08:03:01.791Z</time></trkpt><trkpt lat="45.6491171" lon="11.4056606"><ele>191.25</ele><time>2026-04-26T08:03:02.79Z</time></trkpt><trkpt lat="45.6492211" lon="11.4057807"><ele>183.0</ele><time>2026-04-26T08:03:03.791Z</time></trkpt><trkpt lat="45.6493263" lon="11.405917"><ele>183.0</ele><time>2026-04-26T08:03:04.79Z</time></trkpt><trkpt lat="45.6494248" lon="11.4060593"><ele>183.0</ele><time>2026-04-26T08:03:05.79Z</time></trkpt><trkpt lat="45.6495176" lon="11.4062227"><ele>183.0</ele><time>2026-04-26T08:03:06.79Z</time></trkpt><trkpt lat="45.6495967" lon="11.4063587"><ele>183.0</ele><time>2026-04-26T08:03:07.791Z</time></trkpt><trkpt lat="45.6496849" lon="11.4064876"><ele>180.0</ele><time>2026-04-26T08:03:08.791Z</time></trkpt><trkpt lat="45.6497643" lon="11.4066216"><ele>177.0</ele><time>2026-04-26T08:03:09.79Z</time></trkpt><trkpt lat="45.6498407" lon="11.4067635"><ele>174.0</ele><time>2026-04-26T08:03:10.79Z</time></trkpt><trkpt lat="45.6499072" lon="11.4068845"><ele>171.0</ele><time>2026-04-26T08:03:11.791Z</time></trkpt><trkpt lat="45.6499747" lon="11.4070122"><ele>171.0</ele><time>2026-04-26T08:03:12.79Z</time></trkpt><trkpt lat="45.6500104" lon="11.4071258"><ele>171.0</ele><time>2026-04-26T08:03:13.79Z</time></trkpt><trkpt lat="45.6500589" lon="11.4072547"><ele>171.0</ele><time>2026-04-26T08:03:14.79Z</time></trkpt><trkpt lat="45.6500682" lon="11.4073593"><ele>171.0</ele><time>2026-04-26T08:03:15.79Z</time></trkpt><trkpt lat="45.6500747" lon="11.4074847"><ele>171.0</ele><time>2026-04-26T08:03:16.79Z</time></trkpt><trkpt lat="45.6500887" lon="11.4076073"><ele>171.0</ele><time>2026-04-26T08:03:17.791Z</time></trkpt><trkpt lat="45.6500894" lon="11.4077117"><ele>171.66666666666666</ele><time>2026-04-26T08:03:18.791Z</time></trkpt><trkpt lat="45.6500622" lon="11.4078374"><ele>172.33333333333334</ele><time>2026-04-26T08:03:19.79Z</time></trkpt><trkpt lat="45.650067" lon="11.4079501"><ele>173.0</ele><time>2026-04-26T08:03:20.79Z</time></trkpt><trkpt lat="45.6500419" lon="11.4080379"><ele>173.66666666666669</ele><time>2026-04-26T08:03:21.791Z</time></trkpt><trkpt lat="45.6500292" lon="11.4081721"><ele>174.33333333333334</ele><time>2026-04-26T08:03:22.79Z</time></trkpt><trkpt lat="45.6500167" lon="11.4082608"><ele>175.0</ele><time>2026-04-26T08:03:23.79Z</time></trkpt><trkpt lat="45.6500177" lon="11.4083891"><ele>175.0</ele><time>2026-04-26T08:03:24.791Z</time></trkpt><trkpt lat="45.6500238" lon="11.408504"><ele>175.0</ele><time>2026-04-26T08:03:25.79Z</time></trkpt><trkpt lat="45.6500177" lon="11.4086262"><ele>175.0</ele><time>2026-04-26T08:03:26.791Z</time></trkpt><trkpt lat="45.6500274" lon="11.4087698"><ele>175.0</ele><time>2026-04-26T08:03:28.791Z</time></trkpt><trkpt lat="45.6500508" lon="11.4088562"><ele>175.0</ele><time>2026-04-26T08:03:29.79Z</time></trkpt><trkpt lat="45.6501727" lon="11.4088523"><ele>171.25</ele><time>2026-04-26T08:03:31.79Z</time></trkpt><trkpt lat="45.6503201" lon="11.4087549"><ele>167.5</ele><time>2026-04-26T08:03:33.79Z</time></trkpt><trkpt lat="45.6504196" lon="11.4086506"><ele>163.75</ele><time>2026-04-26T08:03:34.791Z</time></trkpt><trkpt lat="45.6505025" lon="11.4085574"><ele>160.0</ele><time>2026-04-26T08:03:35.791Z</time></trkpt><trkpt lat="45.6505845" lon="11.4084858"><ele>160.0</ele><time>2026-04-26T08:03:36.79Z</time></trkpt><trkpt lat="45.6506735" lon="11.4083833"><ele>160.0</ele><time>2026-04-26T08:03:37.791Z</time></trkpt><trkpt lat="45.6507427" lon="11.4082444"><ele>160.0</ele><time>2026-04-26T08:03:38.791Z</time></trkpt><trkpt lat="45.6507995" lon="11.4080847"><ele>160.0</ele><time>2026-04-26T08:03:39.79Z</time></trkpt><trkpt lat="45.6508297" lon="11.4079295"><ele>160.25</ele><time>2026-04-26T08:03:40.79Z</time></trkpt><trkpt lat="45.6508648" lon="11.4077793"><ele>160.5</ele><time>2026-04-26T08:03:41.79Z</time></trkpt><trkpt lat="45.6508975" lon="11.407633"><ele>160.75</ele><time>2026-04-26T08:03:42.79Z</time></trkpt><trkpt lat="45.6509234" lon="11.4074653"><ele>161.0</ele><time>2026-04-26T08:03:43.79Z</time></trkpt><trkpt lat="45.6509633" lon="11.4072412"><ele>159.75</ele><time>2026-04-26T08:03:44.79Z</time></trkpt><trkpt lat="45.6510043" lon="11.4070663"><ele>158.5</ele><time>2026-04-26T08:03:45.79Z</time></trkpt><trkpt lat="45.6510434" lon="11.4068925"><ele>157.25</ele><time>2026-04-26T08:03:46.79Z</time></trkpt><trkpt lat="45.6510739" lon="11.4067083"><ele>156.0</ele><time>2026-04-26T08:03:47.79Z</time></trkpt><trkpt lat="45.6510789" lon="11.4065558"><ele>156.0</ele><time>2026-04-26T08:03:48.791Z</time></trkpt><trkpt lat="45.6510791" lon="11.4064066"><ele>156.0</ele><time>2026-04-26T08:03:49.79Z</time></trkpt><trkpt lat="45.6510017" lon="11.4062782"><ele>156.0</ele><time>2026-04-26T08:03:50.791Z</time></trkpt><trkpt lat="45.6509351" lon="11.4061636"><ele>156.0</ele><time>2026-04-26T08:03:51.79Z</time></trkpt><trkpt lat="45.6508997" lon="11.4060561"><ele>156.0</ele><time>2026-04-26T08:03:52.79Z</time></trkpt><trkpt lat="45.6508494" lon="11.4059829"><ele>154.4</ele><time>2026-04-26T08:03:53.79Z</time></trkpt><trkpt lat="45.6508151" lon="11.4059049"><ele>152.8</ele><time>2026-04-26T08:03:54.791Z</time></trkpt><trkpt lat="45.6508914" lon="11.4059063"><ele>151.20000000000002</ele><time>2026-04-26T08:03:58.79Z</time></trkpt><trkpt lat="45.6509739" lon="11.4059974"><ele>149.6</ele><time>2026-04-26T08:04:00.79Z</time></trkpt><trkpt lat="45.6510515" lon="11.4060703"><ele>148.0</ele><time>2026-04-26T08:04:01.79Z</time></trkpt><trkpt lat="45.6511637" lon="11.4061834"><ele>144.75</ele><time>2026-04-26T08:04:02.791Z</time></trkpt><trkpt lat="45.6513445" lon="11.4061782"><ele>141.5</ele><time>2026-04-26T08:04:03.79Z</time></trkpt><trkpt lat="45.6514212" lon="11.4062651"><ele>138.25</ele><time>2026-04-26T08:04:04.79Z</time></trkpt><trkpt lat="45.6515487" lon="11.4063518"><ele>135.0</ele><time>2026-04-26T08:04:05.79Z</time></trkpt><trkpt lat="45.6516506" lon="11.4064409"><ele>135.0</ele><time>2026-04-26T08:04:06.791Z</time></trkpt><trkpt lat="45.6517395" lon="11.4065241"><ele>135.0</ele><time>2026-04-26T08:04:07.79Z</time></trkpt><trkpt lat="45.6518259" lon="11.4066313"><ele>135.0</ele><time>2026-04-26T08:04:08.791Z</time></trkpt><trkpt lat="45.6519017" lon="11.4067568"><ele>135.0</ele><time>2026-04-26T08:04:09.791Z</time></trkpt><trkpt lat="45.651978" lon="11.4068799"><ele>133.4</ele><time>2026-04-26T08:04:10.791Z</time></trkpt><trkpt lat="45.6520314" lon="11.4070131"><ele>131.8</ele><time>2026-04-26T08:04:11.79Z</time></trkpt><trkpt lat="45.6520926" lon="11.4071368"><ele>130.2</ele><time>2026-04-26T08:04:12.791Z</time></trkpt><trkpt lat="45.6521432" lon="11.4072455"><ele>128.6</ele><time>2026-04-26T08:04:13.791Z</time></trkpt><trkpt lat="45.6521799" lon="11.407366"><ele>127.0</ele><time>2026-04-26T08:04:14.789Z</time></trkpt><trkpt lat="45.6522073" lon="11.4074492"><ele>127.00000000000001</ele><time>2026-04-26T08:04:15.79Z</time></trkpt><trkpt lat="45.6522559" lon="11.4075246"><ele>127.0</ele><time>2026-04-26T08:04:16.79Z</time></trkpt><trkpt lat="45.6523142" lon="11.4076322"><ele>127.0</ele><time>2026-04-26T08:04:18.791Z</time></trkpt><trkpt lat="45.652377" lon="11.4076732"><ele>127.0</ele><time>2026-04-26T08:04:20.791Z</time></trkpt><trkpt lat="45.652415" lon="11.407758"><ele>127.00000000000001</ele><time>2026-04-26T08:04:21.79Z</time></trkpt><trkpt lat="45.6524673" lon="11.4078455"><ele>127.0</ele><time>2026-04-26T08:04:23.79Z</time></trkpt><trkpt lat="45.6524982" lon="11.407995"><ele>126.0</ele><time>2026-04-26T08:04:26.79Z</time></trkpt><trkpt lat="45.6525381" lon="11.408145"><ele>124.99999999999999</ele><time>2026-04-26T08:04:28.791Z</time></trkpt><trkpt lat="45.6525972" lon="11.4082805"><ele>123.99999999999999</ele><time>2026-04-26T08:04:30.79Z</time></trkpt><trkpt lat="45.652671" lon="11.4084086"><ele>123.0</ele><time>2026-04-26T08:04:32.79Z</time></trkpt><trkpt lat="45.6527093" lon="11.4084919"><ele>122.0</ele><time>2026-04-26T08:04:33.791Z</time></trkpt><trkpt lat="45.6527377" lon="11.4085883"><ele>121.99999999999999</ele><time>2026-04-26T08:04:35.791Z</time></trkpt><trkpt lat="45.6527778" lon="11.4087046"><ele>122.0</ele><time>2026-04-26T08:04:37.79Z</time></trkpt><trkpt lat="45.6528172" lon="11.4088185"><ele>122.0</ele><time>2026-04-26T08:04:39.791Z</time></trkpt><trkpt lat="45.6528469" lon="11.4089337"><ele>122.0</ele><time>2026-04-26T08:04:40.791Z</time></trkpt><trkpt lat="45.6528812" lon="11.4090154"><ele>121.99999999999999</ele><time>2026-04-26T08:04:41.79Z</time></trkpt><trkpt lat="45.6529163" lon="11.4090915"><ele>122.0</ele><time>2026-04-26T08:04:42.79Z</time></trkpt><trkpt lat="45.6529405" lon="11.4091794"><ele>119.49999999999999</ele><time>2026-04-26T08:04:43.791Z</time></trkpt><trkpt lat="45.6529438" lon="11.4092803"><ele>117.0</ele><time>2026-04-26T08:04:44.79Z</time></trkpt><trkpt lat="45.6529571" lon="11.4093745"><ele>114.5</ele><time>2026-04-26T08:04:45.79Z</time></trkpt><trkpt lat="45.6529618" lon="11.4095067"><ele>112.0</ele><time>2026-04-26T08:04:47.791Z</time></trkpt><trkpt lat="45.6529574" lon="11.409629"><ele>109.49999999999999</ele><time>2026-04-26T08:04:49.791Z</time></trkpt><trkpt lat="45.6529418" lon="11.4097621"><ele>107.0</ele><time>2026-04-26T08:04:51.79Z</time></trkpt><trkpt lat="45.6529261" lon="11.4098781"><ele>106.8</ele><time>2026-04-26T08:04:53.791Z</time></trkpt><trkpt lat="45.6529283" lon="11.4099809"><ele>106.6</ele><time>2026-04-26T08:04:55.791Z</time></trkpt><trkpt lat="45.6529943" lon="11.4100719"><ele>106.39999999999999</ele><time>2026-04-26T08:04:57.791Z</time></trkpt><trkpt lat="45.6530506" lon="11.4102193"><ele>106.19999999999999</ele><time>2026-04-26T08:04:58.79Z</time></trkpt><trkpt lat="45.6529685" lon="11.4102354"><ele>106.0</ele><time>2026-04-26T08:04:59.79Z</time></trkpt><trkpt lat="45.6528071" lon="11.4104025"><ele>105.83333333333334</ele><time>2026-04-26T08:05:03.79Z</time></trkpt><trkpt lat="45.6527346" lon="11.410443"><ele>105.66666666666667</ele><time>2026-04-26T08:05:04.79Z</time></trkpt><trkpt lat="45.6526638" lon="11.4104981"><ele>105.5</ele><time>2026-04-26T08:05:05.79Z</time></trkpt><trkpt lat="45.6526015" lon="11.4105505"><ele>105.33333333333334</ele><time>2026-04-26T08:05:06.791Z</time></trkpt><trkpt lat="45.6525139" lon="11.410604"><ele>105.16666666666667</ele><time>2026-04-26T08:05:07.791Z</time></trkpt><trkpt lat="45.6524141" lon="11.4106869"><ele>105.0</ele><time>2026-04-26T08:05:09.791Z</time></trkpt><trkpt lat="45.6523342" lon="11.4107441"><ele>105.0</ele><time>2026-04-26T08:05:11.79Z</time></trkpt><trkpt lat="45.6522712" lon="11.4107892"><ele>105.0</ele><time>2026-04-26T08:05:16.79Z</time></trkpt><trkpt lat="45.652188" lon="11.410799"><ele>105.0</ele><time>2026-04-26T08:05:18.791Z</time></trkpt><trkpt lat="45.6521505" lon="11.4108937"><ele>105.0</ele><time>2026-04-26T08:05:22.791Z</time></trkpt><trkpt lat="45.6521499" lon="11.4110174"><ele>105.0</ele><time>2026-04-26T08:05:25.789Z</time></trkpt><trkpt lat="45.6521872" lon="11.4111667"><ele>105.0</ele><time>2026-04-26T08:05:26.79Z</time></trkpt><trkpt lat="45.6522311" lon="11.4113325"><ele>104.4</ele><time>2026-04-26T08:05:28.79Z</time></trkpt><trkpt lat="45.6522319" lon="11.4114769"><ele>103.8</ele><time>2026-04-26T08:05:30.791Z</time></trkpt><trkpt lat="45.6522878" lon="11.4115592"><ele>103.19999999999999</ele><time>2026-04-26T08:05:32.79Z</time></trkpt><trkpt lat="45.6523465" lon="11.4116798"><ele>102.6</ele><time>2026-04-26T08:05:34.791Z</time></trkpt><trkpt lat="45.6523844" lon="11.4117855"><ele>102.0</ele><time>2026-04-26T08:05:36.79Z</time></trkpt><trkpt lat="45.6524178" lon="11.4119087"><ele>102.0</ele><time>2026-04-26T08:05:38.791Z</time></trkpt><trkpt lat="45.6524404" lon="11.4120104"><ele>102.0</ele><time>2026-04-26T08:05:40.791Z</time></trkpt><trkpt lat="45.6523852" lon="11.4121035"><ele>102.0</ele><time>2026-04-26T08:05:43.79Z</time></trkpt><trkpt lat="45.6523142" lon="11.4121567"><ele>102.0</ele><time>2026-04-26T08:05:46.791Z</time></trkpt><trkpt lat="45.6522552" lon="11.4122021"><ele>102.0</ele><time>2026-04-26T08:05:51.791Z</time></trkpt><trkpt lat="45.6521964" lon="11.4122369"><ele>102.0</ele><time>2026-04-26T08:05:53.79Z</time></trkpt><trkpt lat="45.652112" lon="11.4122694"><ele>101.8</ele><time>2026-04-26T08:05:55.791Z</time></trkpt><trkpt lat="45.6520142" lon="11.4122844"><ele>101.6</ele><time>2026-04-26T08:05:57.79Z</time></trkpt><trkpt lat="45.6519174" lon="11.4123088"><ele>101.39999999999999</ele><time>2026-04-26T08:05:59.79Z</time></trkpt><trkpt lat="45.6518297" lon="11.4123398"><ele>101.19999999999999</ele><time>2026-04-26T08:06:01.79Z</time></trkpt><trkpt lat="45.6517388" lon="11.4124028"><ele>101.0</ele><time>2026-04-26T08:06:03.791Z</time></trkpt><trkpt lat="45.6516466" lon="11.4124604"><ele>100.99999999999999</ele><time>2026-04-26T08:06:05.789Z</time></trkpt><trkpt lat="45.6515521" lon="11.4125168"><ele>101.0</ele><time>2026-04-26T08:06:07.791Z</time></trkpt><trkpt lat="45.6514745" lon="11.4125788"><ele>101.0</ele><time>2026-04-26T08:06:09.791Z</time></trkpt><trkpt lat="45.6514037" lon="11.4126348"><ele>101.0</ele><time>2026-04-26T08:06:11.79Z</time></trkpt><trkpt lat="45.651338" lon="11.4126868"><ele>100.99999999999999</ele><time>2026-04-26T08:06:13.791Z</time></trkpt><trkpt lat="45.6512711" lon="11.4127421"><ele>101.0</ele><time>2026-04-26T08:06:15.79Z</time></trkpt><trkpt lat="45.651193" lon="11.4128017"><ele>101.49999999999999</ele><time>2026-04-26T08:06:17.79Z</time></trkpt><trkpt lat="45.6511087" lon="11.4128458"><ele>102.0</ele><time>2026-04-26T08:06:19.79Z</time></trkpt><trkpt lat="45.6510275" lon="11.4128887"><ele>102.5</ele><time>2026-04-26T08:06:21.79Z</time></trkpt><trkpt lat="45.6509541" lon="11.412929"><ele>103.0</ele><time>2026-04-26T08:06:23.79Z</time></trkpt><trkpt lat="45.6508713" lon="11.4130064"><ele>103.49999999999999</ele><time>2026-04-26T08:06:26.79Z</time></trkpt><trkpt lat="45.6508114" lon="11.4130715"><ele>104.0</ele><time>2026-04-26T08:06:28.79Z</time></trkpt><trkpt lat="45.6507328" lon="11.4131296"><ele>104.0</ele><time>2026-04-26T08:06:30.79Z</time></trkpt><trkpt lat="45.6506292" lon="11.41319"><ele>104.0</ele><time>2026-04-26T08:06:32.79Z</time></trkpt><trkpt lat="45.6505295" lon="11.4132369"><ele>104.0</ele><time>2026-04-26T08:06:34.79Z</time></trkpt><trkpt lat="45.6504173" lon="11.413258"><ele>104.0</ele><time>2026-04-26T08:06:36.79Z</time></trkpt><trkpt lat="45.6503498" lon="11.4132759"><ele>104.0</ele><time>2026-04-26T08:06:37.79Z</time></trkpt><trkpt lat="45.6502832" lon="11.4132978"><ele>107.0</ele><time>2026-04-26T08:06:38.791Z</time></trkpt><trkpt lat="45.6501685" lon="11.4133636"><ele>110.0</ele><time>2026-04-26T08:06:40.79Z</time></trkpt><trkpt lat="45.6500819" lon="11.4134828"><ele>113.0</ele><time>2026-04-26T08:06:42.79Z</time></trkpt><trkpt lat="45.6499915" lon="11.4137242"><ele>116.0</ele><time>2026-04-26T08:06:43.791Z</time></trkpt><trkpt lat="45.6499584" lon="11.4138099"><ele>113.8</ele><time>2026-04-26T08:06:44.79Z</time></trkpt><trkpt lat="45.6498868" lon="11.4138618"><ele>111.6</ele><time>2026-04-26T08:06:45.79Z</time></trkpt><trkpt lat="45.6497919" lon="11.4139812"><ele>109.4</ele><time>2026-04-26T08:06:47.79Z</time></trkpt><trkpt lat="45.6497376" lon="11.4140428"><ele>107.2</ele><time>2026-04-26T08:06:48.791Z</time></trkpt><trkpt lat="45.649681" lon="11.4141038"><ele>105.0</ele><time>2026-04-26T08:06:49.79Z</time></trkpt><trkpt lat="45.6496152" lon="11.4142478"><ele>105.0</ele><time>2026-04-26T08:06:51.79Z</time></trkpt><trkpt lat="45.6495649" lon="11.4143839"><ele>105.0</ele><time>2026-04-26T08:06:53.79Z</time></trkpt><trkpt lat="45.6495563" lon="11.4145187"><ele>105.0</ele><time>2026-04-26T08:06:54.79Z</time></trkpt><trkpt lat="45.6495335" lon="11.4146144"><ele>105.0</ele><time>2026-04-26T08:06:55.79Z</time></trkpt><trkpt lat="45.6495033" lon="11.4147005"><ele>105.0</ele><time>2026-04-26T08:06:57.79Z</time></trkpt><trkpt lat="45.6494338" lon="11.4148509"><ele>106.66666666666667</ele><time>2026-04-26T08:07:00.79Z</time></trkpt><trkpt lat="45.6493679" lon="11.4148993"><ele>108.33333333333334</ele><time>2026-04-26T08:07:01.791Z</time></trkpt><trkpt lat="45.6493217" lon="11.4150272"><ele>110.0</ele><time>2026-04-26T08:07:03.79Z</time></trkpt><trkpt lat="45.6492854" lon="11.4151311"><ele>111.66666666666667</ele><time>2026-04-26T08:07:04.79Z</time></trkpt><trkpt lat="45.6492337" lon="11.4152436"><ele>113.33333333333334</ele><time>2026-04-26T08:07:06.79Z</time></trkpt><trkpt lat="45.6491867" lon="11.4153154"><ele>115.0</ele><time>2026-04-26T08:07:07.79Z</time></trkpt><trkpt lat="45.6491396" lon="11.415377"><ele>115.0</ele><time>2026-04-26T08:07:08.791Z</time></trkpt><trkpt lat="45.6490552" lon="11.4154577"><ele>115.0</ele><time>2026-04-26T08:07:10.79Z</time></trkpt><trkpt lat="45.6490071" lon="11.4155258"><ele>115.0</ele><time>2026-04-26T08:07:11.791Z</time></trkpt><trkpt lat="45.6488912" lon="11.4156477"><ele>115.0</ele><time>2026-04-26T08:07:13.79Z</time></trkpt><trkpt lat="45.6488442" lon="11.4157218"><ele>115.0</ele><time>2026-04-26T08:07:14.791Z</time></trkpt><trkpt lat="45.6487421" lon="11.4158108"><ele>116.00000000000001</ele><time>2026-04-26T08:07:16.791Z</time></trkpt><trkpt lat="45.6486811" lon="11.4158881"><ele>117.0</ele><time>2026-04-26T08:07:17.791Z</time></trkpt><trkpt lat="45.648619" lon="11.4159582"><ele>118.0</ele><time>2026-04-26T08:07:18.791Z</time></trkpt><trkpt lat="45.6485338" lon="11.4160449"><ele>119.0</ele><time>2026-04-26T08:07:20.79Z</time></trkpt><trkpt lat="45.6484712" lon="11.4160883"><ele>120.00000000000001</ele><time>2026-04-26T08:07:21.789Z</time></trkpt><trkpt lat="45.6484158" lon="11.4161385"><ele>121.0</ele><time>2026-04-26T08:07:22.79Z</time></trkpt><trkpt lat="45.6483542" lon="11.4161833"><ele>121.00000000000001</ele><time>2026-04-26T08:07:23.79Z</time></trkpt><trkpt lat="45.6482969" lon="11.4162221"><ele>121.0</ele><time>2026-04-26T08:07:24.79Z</time></trkpt><trkpt lat="45.6482272" lon="11.4162729"><ele>121.0</ele><time>2026-04-26T08:07:26.79Z</time></trkpt><trkpt lat="45.6481255" lon="11.4163225"><ele>121.0</ele><time>2026-04-26T08:07:28.791Z</time></trkpt><trkpt lat="45.6480273" lon="11.4163835"><ele>121.00000000000001</ele><time>2026-04-26T08:07:30.79Z</time></trkpt><trkpt lat="45.6479586" lon="11.4164083"><ele>121.0</ele><time>2026-04-26T08:07:31.791Z</time></trkpt><trkpt lat="45.6478677" lon="11.4164905"><ele>118.19999999999999</ele><time>2026-04-26T08:07:33.791Z</time></trkpt><trkpt lat="45.6477513" lon="11.4165584"><ele>115.39999999999999</ele><time>2026-04-26T08:07:35.79Z</time></trkpt><trkpt lat="45.6476562" lon="11.4166218"><ele>112.6</ele><time>2026-04-26T08:07:37.79Z</time></trkpt><trkpt lat="45.6475543" lon="11.4167074"><ele>109.8</ele><time>2026-04-26T08:07:39.789Z</time></trkpt><trkpt lat="45.6474875" lon="11.4167335"><ele>107.0</ele><time>2026-04-26T08:07:40.791Z</time></trkpt><trkpt lat="45.6474191" lon="11.4167496"><ele>106.99999999999999</ele><time>2026-04-26T08:07:41.79Z</time></trkpt><trkpt lat="45.6473147" lon="11.416857"><ele>107.0</ele><time>2026-04-26T08:07:43.79Z</time></trkpt><trkpt lat="45.6472544" lon="11.4169041"><ele>107.0</ele><time>2026-04-26T08:07:44.791Z</time></trkpt><trkpt lat="45.6472007" lon="11.4169604"><ele>107.0</ele><time>2026-04-26T08:07:45.79Z</time></trkpt><trkpt lat="45.6471483" lon="11.4170169"><ele>106.99999999999999</ele><time>2026-04-26T08:07:46.791Z</time></trkpt><trkpt lat="45.6470813" lon="11.4171366"><ele>107.0</ele><time>2026-04-26T08:07:48.79Z</time></trkpt><trkpt lat="45.6470064" lon="11.4172556"><ele>106.25</ele><time>2026-04-26T08:07:50.791Z</time></trkpt><trkpt lat="45.6469177" lon="11.417367"><ele>105.5</ele><time>2026-04-26T08:07:52.79Z</time></trkpt><trkpt lat="45.6468417" lon="11.4174758"><ele>104.75</ele><time>2026-04-26T08:07:54.791Z</time></trkpt><trkpt lat="45.6467714" lon="11.4175966"><ele>104.0</ele><time>2026-04-26T08:07:56.79Z</time></trkpt><trkpt lat="45.6466795" lon="11.4177275"><ele>104.0</ele><time>2026-04-26T08:07:58.79Z</time></trkpt><trkpt lat="45.6465899" lon="11.4177925"><ele>104.0</ele><time>2026-04-26T08:07:59.79Z</time></trkpt><trkpt lat="45.6464672" lon="11.4178931"><ele>104.0</ele><time>2026-04-26T08:08:01.791Z</time></trkpt><trkpt lat="45.6463945" lon="11.4179328"><ele>104.0</ele><time>2026-04-26T08:08:02.79Z</time></trkpt><trkpt lat="45.6462707" lon="11.4180209"><ele>103.80000000000001</ele><time>2026-04-26T08:08:04.791Z</time></trkpt><trkpt lat="45.6461906" lon="11.4180665"><ele>103.60000000000001</ele><time>2026-04-26T08:08:05.79Z</time></trkpt><trkpt lat="45.6461168" lon="11.4181423"><ele>103.4</ele><time>2026-04-26T08:08:06.79Z</time></trkpt><trkpt lat="45.6460202" lon="11.4182491"><ele>103.2</ele><time>2026-04-26T08:08:08.791Z</time></trkpt><trkpt lat="45.645962" lon="11.418308"><ele>103.0</ele><time>2026-04-26T08:08:09.79Z</time></trkpt><trkpt lat="45.6458994" lon="11.4184413"><ele>103.00000000000001</ele><time>2026-04-26T08:08:11.791Z</time></trkpt><trkpt lat="45.6458368" lon="11.418495"><ele>103.0</ele><time>2026-04-26T08:08:12.791Z</time></trkpt><trkpt lat="45.6457361" lon="11.4185851"><ele>103.0</ele><time>2026-04-26T08:08:14.79Z</time></trkpt><trkpt lat="45.6457367" lon="11.4187031"><ele>103.0</ele><time>2026-04-26T08:08:15.79Z</time></trkpt><trkpt lat="45.6457155" lon="11.4187995"><ele>103.00000000000001</ele><time>2026-04-26T08:08:16.789Z</time></trkpt><trkpt lat="45.6456946" lon="11.4189409"><ele>103.0</ele><time>2026-04-26T08:08:18.789Z</time></trkpt><trkpt lat="45.6456791" lon="11.4190382"><ele>102.50000000000001</ele><time>2026-04-26T08:08:19.789Z</time></trkpt><trkpt lat="45.6456625" lon="11.4191348"><ele>102.0</ele><time>2026-04-26T08:08:20.789Z</time></trkpt><trkpt lat="45.6456483" lon="11.4193227"><ele>101.5</ele><time>2026-04-26T08:08:21.789Z</time></trkpt><trkpt lat="45.6455859" lon="11.4193902"><ele>101.0</ele><time>2026-04-26T08:08:22.789Z</time></trkpt><trkpt lat="45.6455787" lon="11.4195276"><ele>100.50000000000001</ele><time>2026-04-26T08:08:23.789Z</time></trkpt><trkpt lat="45.6455287" lon="11.419598"><ele>100.0</ele><time>2026-04-26T08:08:24.789Z</time></trkpt><trkpt lat="45.6454835" lon="11.4196753"><ele>99.50000000000001</ele><time>2026-04-26T08:08:25.788Z</time></trkpt><trkpt lat="45.6454287" lon="11.4197889"><ele>99.0</ele><time>2026-04-26T08:08:26.789Z</time></trkpt><trkpt lat="45.6452962" lon="11.4198228"><ele>98.5</ele><time>2026-04-26T08:08:28.789Z</time></trkpt><trkpt lat="45.6452282" lon="11.4198596"><ele>98.0</ele><time>2026-04-26T08:08:29.789Z</time></trkpt><trkpt lat="45.6451797" lon="11.4199238"><ele>97.50000000000001</ele><time>2026-04-26T08:08:30.79Z</time></trkpt><trkpt lat="45.6451167" lon="11.4199707"><ele>97.0</ele><time>2026-04-26T08:08:31.789Z</time></trkpt><trkpt lat="45.6450138" lon="11.4200923"><ele>99.19999999999999</ele><time>2026-04-26T08:08:33.789Z</time></trkpt><trkpt lat="45.6449683" lon="11.4201554"><ele>101.4</ele><time>2026-04-26T08:08:34.79Z</time></trkpt><trkpt lat="45.6448915" lon="11.4202019"><ele>103.60000000000001</ele><time>2026-04-26T08:08:35.789Z</time></trkpt><trkpt lat="45.6447778" lon="11.4202896"><ele>105.80000000000001</ele><time>2026-04-26T08:08:37.789Z</time></trkpt><trkpt lat="45.6446826" lon="11.4203844"><ele>108.0</ele><time>2026-04-26T08:08:39.79Z</time></trkpt><trkpt lat="45.6445851" lon="11.4204468"><ele>108.5</ele><time>2026-04-26T08:08:41.789Z</time></trkpt><trkpt lat="45.6445217" lon="11.4204955"><ele>109.0</ele><time>2026-04-26T08:08:42.79Z</time></trkpt><trkpt lat="45.6444616" lon="11.420534"><ele>109.5</ele><time>2026-04-26T08:08:43.789Z</time></trkpt><trkpt lat="45.6443983" lon="11.420591"><ele>110.0</ele><time>2026-04-26T08:08:44.79Z</time></trkpt><trkpt lat="45.6442893" lon="11.4206697"><ele>110.5</ele><time>2026-04-26T08:08:46.79Z</time></trkpt><trkpt lat="45.6442391" lon="11.4207322"><ele>111.0</ele><time>2026-04-26T08:08:47.789Z</time></trkpt><trkpt lat="45.6441867" lon="11.4207863"><ele>111.0</ele><time>2026-04-26T08:08:48.79Z</time></trkpt><trkpt lat="45.6441355" lon="11.4208488"><ele>111.0</ele><time>2026-04-26T08:08:49.789Z</time></trkpt><trkpt lat="45.6440808" lon="11.4209202"><ele>111.0</ele><time>2026-04-26T08:08:50.789Z</time></trkpt><trkpt lat="45.643989" lon="11.4209973"><ele>111.0</ele><time>2026-04-26T08:08:52.789Z</time></trkpt><trkpt lat="45.6438788" lon="11.4210816"><ele>111.0</ele><time>2026-04-26T08:08:54.79Z</time></trkpt><trkpt lat="45.6438223" lon="11.4211283"><ele>111.0</ele><time>2026-04-26T08:08:55.789Z</time></trkpt><trkpt lat="45.6437415" lon="11.4211985"><ele>111.0</ele><time>2026-04-26T08:08:57.79Z</time></trkpt><trkpt lat="45.643688" lon="11.4212523"><ele>111.0</ele><time>2026-04-26T08:08:58.789Z</time></trkpt><trkpt lat="45.6435917" lon="11.421343"><ele>111.0</ele><time>2026-04-26T08:09:00.789Z</time></trkpt><trkpt lat="45.6434859" lon="11.4214193"><ele>111.0</ele><time>2026-04-26T08:09:02.789Z</time></trkpt><trkpt lat="45.643425" lon="11.4214627"><ele>111.0</ele><time>2026-04-26T08:09:03.79Z</time></trkpt><trkpt lat="45.643322" lon="11.4215522"><ele>109.83333333333333</ele><time>2026-04-26T08:09:05.789Z</time></trkpt><trkpt lat="45.6432601" lon="11.421612"><ele>108.66666666666666</ele><time>2026-04-26T08:09:06.79Z</time></trkpt><trkpt lat="45.6431744" lon="11.4216701"><ele>107.5</ele><time>2026-04-26T08:09:08.79Z</time></trkpt><trkpt lat="45.6431148" lon="11.4217084"><ele>106.33333333333333</ele><time>2026-04-26T08:09:09.789Z</time></trkpt><trkpt lat="45.6430159" lon="11.4217122"><ele>105.16666666666666</ele><time>2026-04-26T08:09:11.79Z</time></trkpt><trkpt lat="45.6429498" lon="11.4217448"><ele>104.0</ele><time>2026-04-26T08:09:12.789Z</time></trkpt><trkpt lat="45.6428145" lon="11.4217734"><ele>104.33333333333333</ele><time>2026-04-26T08:09:14.79Z</time></trkpt><trkpt lat="45.642743" lon="11.4217676"><ele>104.66666666666666</ele><time>2026-04-26T08:09:15.79Z</time></trkpt><trkpt lat="45.6426197" lon="11.4217764"><ele>105.0</ele><time>2026-04-26T08:09:17.789Z</time></trkpt><trkpt lat="45.6425403" lon="11.4217766"><ele>105.33333333333334</ele><time>2026-04-26T08:09:18.789Z</time></trkpt><trkpt lat="45.6424739" lon="11.4217741"><ele>105.66666666666667</ele><time>2026-04-26T08:09:19.789Z</time></trkpt><trkpt lat="45.6423783" lon="11.421803"><ele>106.0</ele><time>2026-04-26T08:09:21.79Z</time></trkpt><trkpt lat="45.6423137" lon="11.4218085"><ele>106.00000000000001</ele><time>2026-04-26T08:09:22.788Z</time></trkpt><trkpt lat="45.6422486" lon="11.4218207"><ele>106.0</ele><time>2026-04-26T08:09:23.79Z</time></trkpt><trkpt lat="45.6421832" lon="11.4218582"><ele>106.0</ele><time>2026-04-26T08:09:24.789Z</time></trkpt><trkpt lat="45.6421073" lon="11.4219097"><ele>106.0</ele><time>2026-04-26T08:09:25.789Z</time></trkpt><trkpt lat="45.6419768" lon="11.4219677"><ele>106.00000000000001</ele><time>2026-04-26T08:09:27.79Z</time></trkpt><trkpt lat="45.6418987" lon="11.4220354"><ele>106.0</ele><time>2026-04-26T08:09:28.79Z</time></trkpt><trkpt lat="45.6418379" lon="11.4220773"><ele>105.4</ele><time>2026-04-26T08:09:29.79Z</time></trkpt><trkpt lat="45.641749" lon="11.4221218"><ele>104.8</ele><time>2026-04-26T08:09:31.79Z</time></trkpt><trkpt lat="45.6416081" lon="11.422055"><ele>104.2</ele><time>2026-04-26T08:09:33.79Z</time></trkpt><trkpt lat="45.6415327" lon="11.4220541"><ele>103.60000000000001</ele><time>2026-04-26T08:09:34.789Z</time></trkpt><trkpt lat="45.6414595" lon="11.4220309"><ele>103.0</ele><time>2026-04-26T08:09:35.79Z</time></trkpt><trkpt lat="45.6413889" lon="11.4220622"><ele>103.00000000000001</ele><time>2026-04-26T08:09:36.789Z</time></trkpt><trkpt lat="45.6413267" lon="11.4221035"><ele>103.0</ele><time>2026-04-26T08:09:37.79Z</time></trkpt><trkpt lat="45.6412693" lon="11.4221597"><ele>103.0</ele><time>2026-04-26T08:09:38.79Z</time></trkpt><trkpt lat="45.6411913" lon="11.4222169"><ele>103.0</ele><time>2026-04-26T08:09:39.789Z</time></trkpt><trkpt lat="45.641133" lon="11.4222705"><ele>103.00000000000001</ele><time>2026-04-26T08:09:40.789Z</time></trkpt><trkpt lat="45.6410729" lon="11.422319"><ele>103.0</ele><time>2026-04-26T08:09:41.789Z</time></trkpt><trkpt lat="45.640967" lon="11.4224101"><ele>101.33333333333334</ele><time>2026-04-26T08:09:43.789Z</time></trkpt><trkpt lat="45.640914" lon="11.4224834"><ele>99.66666666666667</ele><time>2026-04-26T08:09:44.789Z</time></trkpt><trkpt lat="45.6408507" lon="11.4225558"><ele>98.0</ele><time>2026-04-26T08:09:45.789Z</time></trkpt><trkpt lat="45.6407969" lon="11.42262"><ele>96.33333333333334</ele><time>2026-04-26T08:09:46.789Z</time></trkpt><trkpt lat="45.6407061" lon="11.4227695"><ele>94.66666666666667</ele><time>2026-04-26T08:09:48.789Z</time></trkpt><trkpt lat="45.6406515" lon="11.4228211"><ele>93.0</ele><time>2026-04-26T08:09:49.789Z</time></trkpt><trkpt lat="45.640603" lon="11.4228947"><ele>93.0</ele><time>2026-04-26T08:09:50.789Z</time></trkpt><trkpt lat="45.6405526" lon="11.4229661"><ele>93.0</ele><time>2026-04-26T08:09:51.79Z</time></trkpt><trkpt lat="45.6404932" lon="11.4230424"><ele>93.0</ele><time>2026-04-26T08:09:52.789Z</time></trkpt><trkpt lat="45.6403813" lon="11.4231525"><ele>93.0</ele><time>2026-04-26T08:09:54.79Z</time></trkpt><trkpt lat="45.6403337" lon="11.4232615"><ele>93.0</ele><time>2026-04-26T08:09:55.789Z</time></trkpt><trkpt lat="45.6402736" lon="11.423193"><ele>93.0</ele><time>2026-04-26T08:09:56.788Z</time></trkpt><trkpt lat="45.6401984" lon="11.4232209"><ele>93.0</ele><time>2026-04-26T08:09:58.789Z</time></trkpt><trkpt lat="45.6401534" lon="11.4230151"><ele>93.0</ele><time>2026-04-26T08:10:01.789Z</time></trkpt><trkpt lat="45.6401033" lon="11.4228565"><ele>93.0</ele><time>2026-04-26T08:10:03.789Z</time></trkpt><trkpt lat="45.6400336" lon="11.4226883"><ele>93.16666666666667</ele><time>2026-04-26T08:10:05.789Z</time></trkpt><trkpt lat="45.6399751" lon="11.4225525"><ele>93.33333333333333</ele><time>2026-04-26T08:10:07.79Z</time></trkpt><trkpt lat="45.6399099" lon="11.4224186"><ele>93.5</ele><time>2026-04-26T08:10:09.789Z</time></trkpt><trkpt lat="45.6398946" lon="11.4223136"><ele>93.66666666666666</ele><time>2026-04-26T08:10:10.79Z</time></trkpt><trkpt lat="45.6398571" lon="11.4222291"><ele>93.83333333333333</ele><time>2026-04-26T08:10:11.79Z</time></trkpt><trkpt lat="45.6398095" lon="11.4221697"><ele>94.0</ele><time>2026-04-26T08:10:12.789Z</time></trkpt><trkpt lat="45.6397437" lon="11.4219935"><ele>94.16666666666666</ele><time>2026-04-26T08:10:14.789Z</time></trkpt><trkpt lat="45.6397327" lon="11.4218866"><ele>94.33333333333333</ele><time>2026-04-26T08:10:16.788Z</time></trkpt><trkpt lat="45.6396754" lon="11.4217918"><ele>94.5</ele><time>2026-04-26T08:10:18.789Z</time></trkpt><trkpt lat="45.6396171" lon="11.4216291"><ele>94.66666666666667</ele><time>2026-04-26T08:10:20.789Z</time></trkpt><trkpt lat="45.6396003" lon="11.4215325"><ele>94.83333333333334</ele><time>2026-04-26T08:10:21.79Z</time></trkpt><trkpt lat="45.6395621" lon="11.4214484"><ele>95.0</ele><time>2026-04-26T08:10:23.79Z</time></trkpt><trkpt lat="45.6395107" lon="11.4213431"><ele>95.33333333333334</ele><time>2026-04-26T08:10:25.789Z</time></trkpt><trkpt lat="45.6394434" lon="11.4212682"><ele>95.66666666666667</ele><time>2026-04-26T08:10:27.789Z</time></trkpt><trkpt lat="45.6394135" lon="11.4211828"><ele>96.0</ele><time>2026-04-26T08:10:29.789Z</time></trkpt><trkpt lat="45.6393539" lon="11.4210971"><ele>96.33333333333334</ele><time>2026-04-26T08:10:31.789Z</time></trkpt><trkpt lat="45.6393315" lon="11.420982"><ele>96.66666666666667</ele><time>2026-04-26T08:10:35.789Z</time></trkpt><trkpt lat="45.6392946" lon="11.42088"><ele>97.0</ele><time>2026-04-26T08:10:38.788Z</time></trkpt><trkpt lat="45.6392645" lon="11.4207988"><ele>97.00000000000001</ele><time>2026-04-26T08:10:40.789Z</time></trkpt><trkpt lat="45.6392338" lon="11.4206959"><ele>97.0</ele><time>2026-04-26T08:10:43.789Z</time></trkpt><trkpt lat="45.639226" lon="11.4205897"><ele>97.0</ele><time>2026-04-26T08:10:46.79Z</time></trkpt><trkpt lat="45.6392134" lon="11.4204575"><ele>97.0</ele><time>2026-04-26T08:10:49.79Z</time></trkpt><trkpt lat="45.639186" lon="11.420342"><ele>97.00000000000001</ele><time>2026-04-26T08:10:52.79Z</time></trkpt><trkpt lat="45.6391705" lon="11.4202326"><ele>97.0</ele><time>2026-04-26T08:10:55.789Z</time></trkpt><trkpt lat="45.6391504" lon="11.42014"><ele>98.66666666666667</ele><time>2026-04-26T08:10:58.79Z</time></trkpt><trkpt lat="45.6391149" lon="11.4200573"><ele>100.33333333333334</ele><time>2026-04-26T08:11:02.789Z</time></trkpt><trkpt lat="45.6389473" lon="11.4197126"><ele>102.0</ele><time>2026-04-26T08:11:57.955Z</time></trkpt><trkpt lat="45.6390059" lon="11.4198369"><ele>102.0</ele><time>2026-04-26T08:12:04.788Z</time></trkpt><trkpt lat="45.6390044" lon="11.4199663"><ele>102.0</ele><time>2026-04-26T08:12:17.789Z</time></trkpt><trkpt lat="45.6389572" lon="11.4200392"><ele>102.0</ele><time>2026-04-26T08:12:20.789Z</time></trkpt><trkpt lat="45.6389099" lon="11.4201127"><ele>102.0</ele><time>2026-04-26T08:12:28.789Z</time></trkpt><trkpt lat="45.6388463" lon="11.4201668"><ele>102.0</ele><time>2026-04-26T08:12:32.788Z</time></trkpt><trkpt lat="45.6387729" lon="11.4201548"><ele>102.0</ele><time>2026-04-26T08:12:37.788Z</time></trkpt><trkpt lat="45.6387197" lon="11.4201065"><ele>102.0</ele><time>2026-04-26T08:12:41.788Z</time></trkpt><trkpt lat="45.6386542" lon="11.4200839"><ele>102.57142857142857</ele><time>2026-04-26T08:12:46.789Z</time></trkpt><trkpt lat="45.6385958" lon="11.4200282"><ele>103.14285714285714</ele><time>2026-04-26T08:12:54.788Z</time></trkpt><trkpt lat="45.6385287" lon="11.4200068"><ele>103.71428571428572</ele><time>2026-04-26T08:12:59.788Z</time></trkpt><trkpt lat="45.6384475" lon="11.4200069"><ele>104.28571428571428</ele><time>2026-04-26T08:13:03.789Z</time></trkpt><trkpt lat="45.6383808" lon="11.4199967"><ele>104.85714285714285</ele><time>2026-04-26T08:13:06.788Z</time></trkpt><trkpt lat="45.6383111" lon="11.4200028"><ele>105.42857142857143</ele><time>2026-04-26T08:13:09.788Z</time></trkpt><trkpt lat="45.6382331" lon="11.4199718"><ele>106.0</ele><time>2026-04-26T08:13:13.788Z</time></trkpt><trkpt lat="45.6381691" lon="11.4199121"><ele>106.0</ele><time>2026-04-26T08:13:18.789Z</time></trkpt><trkpt lat="45.6381261" lon="11.419835"><ele>106.0</ele><time>2026-04-26T08:13:24.788Z</time></trkpt><trkpt lat="45.6381069" lon="11.4197464"><ele>106.0</ele><time>2026-04-26T08:13:29.789Z</time></trkpt><trkpt lat="45.6380401" lon="11.419744"><ele>106.0</ele><time>2026-04-26T08:13:36.789Z</time></trkpt><trkpt lat="45.6379666" lon="11.4197345"><ele>106.0</ele><time>2026-04-26T08:13:41.788Z</time></trkpt><trkpt lat="45.6379554" lon="11.4196232"><ele>106.0</ele><time>2026-04-26T08:13:48.788Z</time></trkpt><trkpt lat="45.6379804" lon="11.4195298"><ele>106.0</ele><time>2026-04-26T08:13:53.788Z</time></trkpt><trkpt lat="45.6379988" lon="11.4194358"><ele>107.57142857142858</ele><time>2026-04-26T08:13:59.788Z</time></trkpt><trkpt lat="45.6380246" lon="11.4193445"><ele>109.14285714285714</ele><time>2026-04-26T08:14:05.788Z</time></trkpt><trkpt lat="45.6379802" lon="11.4192585"><ele>110.71428571428572</ele><time>2026-04-26T08:14:10.788Z</time></trkpt><trkpt lat="45.6379483" lon="11.419164"><ele>112.28571428571429</ele><time>2026-04-26T08:14:16.788Z</time></trkpt><trkpt lat="45.6379394" lon="11.4190673"><ele>113.85714285714286</ele><time>2026-04-26T08:14:22.788Z</time></trkpt><trkpt lat="45.6379103" lon="11.4189694"><ele>115.42857142857143</ele><time>2026-04-26T08:14:29.789Z</time></trkpt><trkpt lat="45.6378692" lon="11.4188777"><ele>117.0</ele><time>2026-04-26T08:14:36.788Z</time></trkpt><trkpt lat="45.6378402" lon="11.4187773"><ele>118.28571428571429</ele><time>2026-04-26T08:14:41.788Z</time></trkpt><trkpt lat="45.6378163" lon="11.4186926"><ele>119.57142857142858</ele><time>2026-04-26T08:14:45.789Z</time></trkpt><trkpt lat="45.6377966" lon="11.4185937"><ele>120.85714285714286</ele><time>2026-04-26T08:14:49.788Z</time></trkpt><trkpt lat="45.6377371" lon="11.4185385"><ele>122.14285714285714</ele><time>2026-04-26T08:14:53.788Z</time></trkpt><trkpt lat="45.6376761" lon="11.4185057"><ele>123.42857142857143</ele><time>2026-04-26T08:14:56.788Z</time></trkpt><trkpt lat="45.6376116" lon="11.4184629"><ele>124.71428571428572</ele><time>2026-04-26T08:14:59.789Z</time></trkpt><trkpt lat="45.637532" lon="11.4184083"><ele>126.0</ele><time>2026-04-26T08:15:02.789Z</time></trkpt><trkpt lat="45.6374746" lon="11.4183558"><ele>126.0</ele><time>2026-04-26T08:15:04.788Z</time></trkpt><trkpt lat="45.6373045" lon="11.418266"><ele>126.0</ele><time>2026-04-26T08:15:06.789Z</time></trkpt><trkpt lat="45.6371838" lon="11.4182052"><ele>126.0</ele><time>2026-04-26T08:15:09.788Z</time></trkpt><trkpt lat="45.6374494" lon="11.4183225"><ele>126.0</ele><time>2026-04-26T08:15:10.789Z</time></trkpt><trkpt lat="45.6370156" lon="11.4182107"><ele>126.0</ele><time>2026-04-26T08:15:15.788Z</time></trkpt><trkpt lat="45.6369492" lon="11.418204"><ele>126.33333333333333</ele><time>2026-04-26T08:15:18.788Z</time></trkpt><trkpt lat="45.6368688" lon="11.418223"><ele>126.66666666666666</ele><time>2026-04-26T08:15:21.788Z</time></trkpt><trkpt lat="45.636802" lon="11.4182357"><ele>127.0</ele><time>2026-04-26T08:15:24.788Z</time></trkpt><trkpt lat="45.6367272" lon="11.4182303"><ele>127.33333333333333</ele><time>2026-04-26T08:15:28.789Z</time></trkpt><trkpt lat="45.6366513" lon="11.4182609"><ele>127.66666666666666</ele><time>2026-04-26T08:15:32.788Z</time></trkpt><trkpt lat="45.6365876" lon="11.4182733"><ele>128.0</ele><time>2026-04-26T08:15:34.788Z</time></trkpt><trkpt lat="45.6365014" lon="11.4182835"><ele>128.0</ele><time>2026-04-26T08:15:37.789Z</time></trkpt><trkpt lat="45.6364376" lon="11.4182832"><ele>127.99999999999999</ele><time>2026-04-26T08:15:40.789Z</time></trkpt><trkpt lat="45.6363711" lon="11.418284"><ele>128.0</ele><time>2026-04-26T08:15:43.789Z</time></trkpt><trkpt lat="45.6363019" lon="11.4182921"><ele>128.0</ele><time>2026-04-26T08:15:46.788Z</time></trkpt><trkpt lat="45.6362315" lon="11.4183162"><ele>127.99999999999999</ele><time>2026-04-26T08:15:49.788Z</time></trkpt><trkpt lat="45.6361506" lon="11.4183248"><ele>128.0</ele><time>2026-04-26T08:15:53.788Z</time></trkpt><trkpt lat="45.6360843" lon="11.4183119"><ele>128.0</ele><time>2026-04-26T08:15:56.788Z</time></trkpt><trkpt lat="45.6360184" lon="11.418305"><ele>128.28571428571428</ele><time>2026-04-26T08:16:00.789Z</time></trkpt><trkpt lat="45.6359548" lon="11.4183058"><ele>128.57142857142856</ele><time>2026-04-26T08:16:03.788Z</time></trkpt><trkpt lat="45.6358852" lon="11.4183118"><ele>128.85714285714286</ele><time>2026-04-26T08:16:06.788Z</time></trkpt><trkpt lat="45.6357939" lon="11.4183117"><ele>129.14285714285714</ele><time>2026-04-26T08:16:09.788Z</time></trkpt><trkpt lat="45.6357196" lon="11.4183028"><ele>129.42857142857144</ele><time>2026-04-26T08:16:11.788Z</time></trkpt><trkpt lat="45.6356538" lon="11.4182709"><ele>129.71428571428572</ele><time>2026-04-26T08:16:15.788Z</time></trkpt><trkpt lat="45.6355909" lon="11.4182258"><ele>130.0</ele><time>2026-04-26T08:16:20.789Z</time></trkpt><trkpt lat="45.6355382" lon="11.4181625"><ele>130.00000000000003</ele><time>2026-04-26T08:16:24.788Z</time></trkpt><trkpt lat="45.6354817" lon="11.418111"><ele>130.0</ele><time>2026-04-26T08:16:28.788Z</time></trkpt><trkpt lat="45.6354115" lon="11.4180972"><ele>130.0</ele><time>2026-04-26T08:16:32.789Z</time></trkpt><trkpt lat="45.6353402" lon="11.4180644"><ele>130.0</ele><time>2026-04-26T08:16:37.788Z</time></trkpt><trkpt lat="45.6352767" lon="11.4180463"><ele>130.0</ele><time>2026-04-26T08:16:41.789Z</time></trkpt><trkpt lat="45.6352209" lon="11.4179777"><ele>130.00000000000003</ele><time>2026-04-26T08:16:47.788Z</time></trkpt><trkpt lat="45.6351549" lon="11.417936"><ele>130.0</ele><time>2026-04-26T08:16:51.788Z</time></trkpt><trkpt lat="45.6350838" lon="11.4178771"><ele>131.33333333333334</ele><time>2026-04-26T08:16:55.789Z</time></trkpt><trkpt lat="45.6350616" lon="11.4177655"><ele>132.66666666666669</ele><time>2026-04-26T08:16:59.789Z</time></trkpt><trkpt lat="45.6350322" lon="11.4176595"><ele>134.0</ele><time>2026-04-26T08:17:03.789Z</time></trkpt><trkpt lat="45.6349962" lon="11.4175583"><ele>135.33333333333334</ele><time>2026-04-26T08:17:06.789Z</time></trkpt><trkpt lat="45.6349358" lon="11.4174661"><ele>136.66666666666666</ele><time>2026-04-26T08:17:10.788Z</time></trkpt><trkpt lat="45.6348799" lon="11.4174148"><ele>138.0</ele><time>2026-04-26T08:17:13.788Z</time></trkpt><trkpt lat="45.6348202" lon="11.4173829"><ele>138.0</ele><time>2026-04-26T08:17:16.788Z</time></trkpt><trkpt lat="45.6347405" lon="11.4173695"><ele>138.0</ele><time>2026-04-26T08:17:21.788Z</time></trkpt><trkpt lat="45.6346688" lon="11.4173631"><ele>138.0</ele><time>2026-04-26T08:17:25.788Z</time></trkpt><trkpt lat="45.6346042" lon="11.4173474"><ele>138.0</ele><time>2026-04-26T08:17:29.789Z</time></trkpt><trkpt lat="45.6345379" lon="11.4173416"><ele>138.0</ele><time>2026-04-26T08:17:33.789Z</time></trkpt><trkpt lat="45.6344757" lon="11.4173244"><ele>138.0</ele><time>2026-04-26T08:17:37.788Z</time></trkpt><trkpt lat="45.6344135" lon="11.4172847"><ele>138.0</ele><time>2026-04-26T08:17:43.789Z</time></trkpt><trkpt lat="45.6343719" lon="11.4172039"><ele>138.85714285714286</ele><time>2026-04-26T08:17:49.788Z</time></trkpt><trkpt lat="45.6343325" lon="11.4171263"><ele>139.71428571428572</ele><time>2026-04-26T08:17:57.789Z</time></trkpt><trkpt lat="45.6343201" lon="11.4170285"><ele>140.57142857142858</ele><time>2026-04-26T08:18:05.789Z</time></trkpt><trkpt lat="45.6343206" lon="11.4169316"><ele>141.42857142857144</ele><time>2026-04-26T08:18:13.789Z</time></trkpt><trkpt lat="45.6343048" lon="11.416831"><ele>142.28571428571428</ele><time>2026-04-26T08:18:19.789Z</time></trkpt><trkpt lat="45.6342979" lon="11.4167343"><ele>143.14285714285717</ele><time>2026-04-26T08:18:25.789Z</time></trkpt><trkpt lat="45.6342818" lon="11.4166351"><ele>144.0</ele><time>2026-04-26T08:18:31.788Z</time></trkpt><trkpt lat="45.6342637" lon="11.4165364"><ele>144.00000000000003</ele><time>2026-04-26T08:18:39.789Z</time></trkpt><trkpt lat="45.6342611" lon="11.416426"><ele>144.0</ele><time>2026-04-26T08:18:45.788Z</time></trkpt><trkpt lat="45.6342642" lon="11.4163318"><ele>144.0</ele><time>2026-04-26T08:18:50.788Z</time></trkpt><trkpt lat="45.6342656" lon="11.4162289"><ele>144.0</ele><time>2026-04-26T08:18:56.789Z</time></trkpt><trkpt lat="45.6342984" lon="11.4161357"><ele>144.0</ele><time>2026-04-26T08:19:01.789Z</time></trkpt><trkpt lat="45.6343181" lon="11.4160354"><ele>144.00000000000003</ele><time>2026-04-26T08:19:05.788Z</time></trkpt><trkpt lat="45.6343597" lon="11.4159393"><ele>144.0</ele><time>2026-04-26T08:19:09.789Z</time></trkpt><trkpt lat="45.6343887" lon="11.4158428"><ele>153.0</ele><time>2026-04-26T08:19:13.789Z</time></trkpt><trkpt lat="45.6343858" lon="11.4157303"><ele>153.0</ele><time>2026-04-26T08:19:16.789Z</time></trkpt><trkpt lat="45.6344043" lon="11.4156238"><ele>153.0</ele><time>2026-04-26T08:19:19.788Z</time></trkpt><trkpt lat="45.6344412" lon="11.4155165"><ele>153.0</ele><time>2026-04-26T08:19:22.788Z</time></trkpt><trkpt lat="45.6344205" lon="11.4154217"><ele>153.0</ele><time>2026-04-26T08:19:28.788Z</time></trkpt><trkpt lat="45.6343514" lon="11.4154011"><ele>153.0</ele><time>2026-04-26T08:19:33.787Z</time></trkpt></trkseg></trk></gpx>